[[{"header":{"parameterUnit":"m.s-1","parameterCategory":1,"la1":31.0,"la2":29.5877,"lo1":-88.7671,"lo2":-86.6584,"dy":0.0162,"dx":0.0185,"nx":115,"ny":88,"refTime":"2025-11-04T00:00:00:Z","depth":0,"parameterNumber":2,"parameterNumberName":"U-component_of_WINDS"},"data":[0.0,0.0,0.0,0.0,0.0,0.0,0.0,0.0,0.0,0.0,0.0,0.0,0.0,0.0,0.0,0.0,0.0,0.0,0.0,0.0,0.0,0.0,0.0,0.0,0.0,0.0,0.0,0.0,0.0,0.0,0.0,0.0,0.0,0.0,0.0,0.0,0.0,0.0,0.0,0.0,0.0,0.0,0.0,0.0,0.0,0.0,0.0,0.0,0.0,0.0,0.0,0.0,0.0,0.0,0.0,0.0,0.0,0.0,0.0,0.0,0.0,0.0,0.0,0.0,0.0,0.0,0.0,0.0,0.0,0.0,0.0,0.0,0.0,0.0,0.0,0.0,0.0,0.0,0.0,0.0,0.0,0.0,0.0,0.0,0.0,0.0,0.0,0.0,0.0,0.0,0.0,0.0,0.0,0.0,0.0,0.0,0.0,0.0,0.0,0.0,0.0,0.0,0.0,0.0,0.0,0.0,0.0,0.0,0.0,0.0,0.0,0.0,0.0,0.0,0.0,0.0,0.0,0.0,0.0,0.0,0.0,0.0,0.0,0.0,0.0,0.0,0.0,0.0,0.0,0.0,0.0,0.0,0.0,0.0,0.0,0.0,0.0,0.0,0.0,0.0,0.0,0.0,0.0,0.0,0.0,0.0,0.0,0.0,0.0,0.0,0.0,0.0,0.0,0.0,0.0,0.0,0.0,0.0,0.0,0.0,0.0,0.0,0.0,0.0,0.0,0.0,0.0,0.0,0.0,0.0,0.0,0.0,0.0,0.0,0.0,0.0,0.0,0.0,0.0,0.0,0.0,0.0,0.0,0.0,0.0,0.0,0.0,0.0,0.0,0.0,0.0,0.0,0.0,0.0,0.0,0.0,0.0,0.0,0.0,0.0,0.0,0.0,0.0,0.0,0.0,0.0,0.0,0.0,0.0,0.0,0.0,0.0,0.0,0.0,0.0,0.0,0.0,0.0,0.0,0.0,0.0,0.0,0.0,0.0,0.0,0.0,0.0,0.0,0.0,0.0,0.0,0.0,0.0,0.0,0.0,0.0,0.0,0.0,0.0,0.0,0.0,0.0,0.0,0.0,0.0,0.0,0.0,0.0,0.0,0.0,0.0,0.0,0.0,0.0,0.0,0.0,0.0,0.0,0.0,0.0,0.0,0.0,0.0,0.0,0.0,0.0,0.0,0.0,0.0,0.0,0.0,0.0,0.0,0.0,0.0,0.0,0.0,0.0,0.0,0.0,0.0,0.0,0.0,0.0,0.0,0.0,0.0,0.0,0.0,0.0,0.0,0.0,0.0,0.0,0.0,0.0,0.0,0.0,0.0,0.0,0.0,0.0,0.0,0.0,0.0,0.0,0.0,0.0,0.0,0.0,0.0,0.0,0.0,0.0,0.0,0.0,0.0,0.0,0.0,0.0,0.0,0.0,0.0,0.0,0.0,0.0,0.0,0.0,0.0,0.0,0.0,0.0,0.0,0.0,0.0,0.0,0.0,0.0,0.0,0.0,0.0,0.0,0.0,0.0,0.0,0.0,0.0,0.0,0.0,0.0,0.0,0.0,0.0,0.0,0.0,0.0,0.0,0.0,0.0,0.0,0.0,0.0,0.0,0.0,0.0,0.0,0.0,0.0,0.0,0.0,0.0,0.0,0.0,0.0,0.0,0.0,0.0,0.0,0.0,0.0,0.0,0.0,0.0,0.0,0.0,0.0,0.0,0.0,0.0,0.0,0.0,0.0,0.0,0.0,0.0,0.0,0.0,0.0,0.0,0.0,0.0,0.0,0.0,0.0,0.0,0.0,0.0,0.0,0.0,0.0,0.0,0.0,0.0,0.0,0.0,0.0,0.0,0.0,0.0,0.0,0.0,0.0,0.0,0.0,0.0,0.0,0.0,0.0,0.0,0.0,0.0,0.0,0.0,0.0,0.0,0.0,0.0,0.0,0.0,0.0,0.0,0.0,0.0,0.0,0.0,0.0,0.0,0.0,0.0,0.0,0.0,0.0,0.0,0.0,0.0,0.0,0.0,0.0,0.0,0.0,0.0,0.0,0.0,0.0,0.0,0.0,0.0,0.0,0.0,0.0,0.0,0.0,0.0,0.0,0.0,0.0,0.0,0.0,0.0,0.0,0.0,0.0,0.0,0.0,0.0,0.0,0.0,0.0,0.0,0.0,0.0,0.0,0.0,0.0,0.0,0.0,0.0,0.0,0.0,0.0,0.0,0.0,0.0,0.0,0.0,0.0,0.0,0.0,0.0,0.0,0.0,0.0,0.0,0.0,0.0,0.0,0.0,0.0,0.0,0.0,0.0,0.0,0.0,0.0,0.0,0.0,0.0,0.0,0.0,0.0,0.0,0.0,0.0,0.0,0.0,0.0,0.0,0.0,0.0,0.0,0.0,0.0,0.0,0.0,0.0,0.0,0.0,0.0,0.0,0.0,0.0,0.0,0.0,0.0,0.0,0.0,0.0,0.0,0.0,0.0,0.0,0.0,0.0,0.0,0.0,0.0,0.0,0.0,0.0,0.0,0.0,0.0,0.0,0.0,0.0,0.0,0.0,0.0,0.0,0.0,0.0,0.0,0.0,0.0,0.0,0.0,0.0,0.0,0.0,0.0,0.0,0.0,0.0,0.0,0.0,0.0,0.0,0.0,0.0,0.0,0.0,0.0,0.0,0.0,0.0,0.0,0.0,0.0,0.0,0.0,0.0,0.0,0.0,0.0,0.0,0.0,0.0,0.0,0.0,0.0,0.0,0.0,0.0,0.0,0.0,0.0,0.0,0.0,0.0,0.0,0.0,0.0,0.0,0.0,0.0,0.0,0.0,0.0,0.0,0.0,0.0,0.0,0.0,0.0,0.0,0.0,0.0,0.0,0.0,0.0,0.0,0.0,0.0,0.0,0.0,0.0,0.0,0.0,0.0,0.0,0.0,0.0,0.0,0.0,0.0,0.0,0.0,0.0,0.0,0.0,0.0,0.0,0.0,0.0,0.0,0.0,0.0,0.0,0.0,0.0,0.0,0.0,0.0,0.0,0.0,0.0,0.0,0.0,0.0,0.0,0.0,0.0,0.0,0.0,0.0,0.0,0.0,0.0,0.0,0.0,0.0,0.0,0.0,0.0,0.0,0.0,0.0,0.0,0.0,0.0,0.0,0.0,0.0,0.0,0.0,0.0,0.0,0.0,0.0,0.0,0.0,0.0,0.0,0.0,0.0,0.0,0.0,0.0,0.0,0.0,0.0,0.0,0.0,0.0,0.0,0.0,0.0,0.0,0.0,0.0,0.0,0.0,0.0,0.0,0.0,0.0,0.0,0.0,0.0,0.0,0.0,0.0,0.0,0.0,0.0,0.0,0.0,0.0,0.0,0.0,0.0,0.0,0.0,0.0,0.0,0.0,0.0,0.0,0.0,0.0,0.0,0.0,0.0,0.0,0.0,0.0,0.0,0.0,0.0,0.0,0.0,0.0,0.0,0.0,0.0,0.0,0.0,0.0,0.0,0.0,0.0,0.0,0.0,0.0,0.0,0.0,0.0,0.0,0.0,0.0,0.0,0.0,0.0,0.0,0.0,0.0,0.0,0.0,0.0,0.0,0.0,0.0,0.0,0.0,0.0,0.0,0.0,0.0,0.0,0.0,0.0,0.0,0.0,0.0,0.0,0.0,0.0,0.0,0.0,0.0,0.0,0.0,0.0,0.0,0.0,0.0,0.0,0.0,0.0,0.0,0.0,0.0,0.0,0.0,0.0,0.0,0.0,0.0,0.0,0.0,0.0,0.0,0.0,0.0,0.0,0.0,0.0,0.0,0.0,0.0,0.0,0.0,0.0,0.0,0.0,0.0,0.0,0.0,0.0,0.0,0.0,0.0,0.0,0.0,0.0,0.0,0.0,0.0,0.0,0.0,0.0,0.0,0.0,0.0,0.0,0.0,0.0,0.0,0.0,0.0,0.0,0.0,0.0,0.0,0.0,0.0,0.0,0.0,0.0,0.0,0.0,0.0,0.0,0.0,0.0,0.0,0.0,0.0,0.0,0.0,0.0,0.0,0.0,0.0,0.0,0.0,0.0,0.0,0.0,0.0,0.0,0.0,0.0,0.0,0.0,0.0,0.0,0.0,0.0,0.0,0.0,0.0,0.0,0.0,0.0,0.0,0.0,0.0,0.0,0.0,0.0,0.0,0.0,0.0,0.0,0.0,0.0,0.0,0.0,0.0,0.0,0.0,0.0,0.0,0.0,0.0,0.0,0.0,0.0,0.0,0.0,0.0,0.0,0.0,0.0,0.0,-0.8079,0.0,0.0,0.0,0.0,0.0,0.0,0.0,0.0,0.0,0.0,0.0,0.0,0.0,0.0,0.0,0.0,0.0,0.0,0.0,0.0,0.0,0.0,0.0,0.0,0.0,0.0,0.0,0.0,0.0,0.0,0.0,0.0,0.0,0.0,0.0,0.0,0.0,0.0,0.0,0.0,0.0,0.0,0.0,0.0,0.0,0.0,0.0,0.0,0.0,0.0,0.0,0.0,0.0,0.0,0.0,0.0,0.0,0.0,0.0,0.0,0.0,0.0,0.0,0.0,0.0,0.0,0.0,0.0,0.0,0.0,0.0,0.0,0.0,0.0,0.0,0.0,0.0,0.0,0.0,0.0,0.0,0.0,0.0,0.0,0.0,0.0,0.0,0.0,0.0,0.0,0.0,0.0,0.0,0.0,0.0,0.0,0.0,0.0,0.0,0.0,0.0,0.0,0.0,0.0,0.0,0.0,0.0,0.0,0.0,0.0,-0.8191,-0.8123,-0.8079,-0.8079,-0.8079,0.0,0.0,0.0,0.0,0.0,0.0,0.0,0.0,0.0,0.0,0.0,0.0,0.0,0.0,0.0,0.0,0.0,0.0,0.0,0.0,0.0,0.0,0.0,0.0,0.0,0.0,0.0,0.0,0.0,0.0,0.0,0.0,0.0,0.0,0.0,0.0,0.0,0.0,0.0,0.0,0.0,0.0,0.0,0.0,0.0,0.0,0.0,0.0,0.0,0.0,0.0,0.0,0.0,0.0,0.0,0.0,0.0,0.0,0.0,0.0,0.0,0.0,0.0,0.0,0.0,0.0,0.0,0.0,0.0,0.0,0.0,0.0,0.0,0.0,0.0,0.0,0.0,0.0,0.0,0.0,0.0,0.0,0.0,0.0,0.0,0.0,0.0,0.0,0.0,0.0,0.0,0.0,0.0,0.0,0.0,0.0,0.0,0.0,0.0,0.0,0.0,0.0,0.0,0.0,0.0,0.0,0.0,0.0,0.0,0.0,0.0,0.0,-0.8549,-0.8541,-0.8556,0.0,0.0,0.0,0.0,0.0,0.0,0.0,0.0,0.0,0.0,0.0,0.0,0.0,0.0,0.0,0.0,0.0,0.0,0.0,0.0,0.0,0.0,0.0,0.0,0.0,0.0,0.0,0.0,0.0,0.0,0.0,0.0,0.0,0.0,0.0,0.0,0.0,0.0,0.0,0.0,0.0,0.0,0.0,0.0,0.0,0.0,0.0,0.0,0.0,0.0,0.0,0.0,0.0,0.0,0.0,0.0,0.0,0.0,0.0,0.0,0.0,0.0,0.0,0.0,0.0,0.0,0.0,0.0,0.0,0.0,0.0,0.0,0.0,0.0,0.0,0.0,0.0,0.0,0.0,0.0,0.0,0.0,0.0,0.0,0.0,0.0,0.0,0.0,0.0,0.0,0.0,0.0,0.0,0.0,0.0,0.0,0.0,0.0,0.0,0.0,0.0,0.0,0.0,0.0,0.0,0.0,0.0,0.0,0.0,0.0,-0.8695,-0.9872,-0.9912,0.0,-0.9919,0.0,0.0,0.0,0.0,0.0,0.0,0.0,0.0,0.0,0.0,0.0,0.0,0.0,0.0,0.0,0.0,0.0,0.0,0.0,0.0,0.0,0.0,0.0,0.0,0.0,0.0,0.0,0.0,0.0,0.0,0.0,0.0,0.0,0.0,0.0,0.0,0.0,0.0,0.0,0.0,0.0,0.0,0.0,0.0,0.0,0.0,0.0,0.0,0.0,0.0,0.0,0.0,0.0,0.0,0.0,0.0,0.0,0.0,0.0,0.0,0.0,0.0,0.0,0.0,0.0,0.0,0.0,0.0,0.0,0.0,0.0,0.0,0.0,0.0,0.0,0.0,0.0,0.0,0.0,0.0,0.0,0.0,0.0,0.0,0.0,0.0,0.0,0.0,0.0,0.0,0.0,0.0,0.0,0.0,0.0,0.0,0.0,0.0,0.0,0.0,0.0,0.0,0.0,0.0,0.0,0.0,0.0,0.0,0.0,0.0,-0.9566,-1.0088,-1.0103,-1.0103,0.0,0.0,0.0,0.0,0.0,0.0,0.0,0.0,0.0,0.0,0.0,0.0,0.0,0.0,0.0,0.0,0.0,0.0,0.0,0.0,0.0,0.0,0.0,0.0,0.0,0.0,0.0,0.0,0.0,0.0,0.0,0.0,0.0,0.0,0.0,0.0,0.0,0.0,0.0,0.0,0.0,0.0,0.0,0.0,0.0,0.0,0.0,0.0,0.0,0.0,0.0,0.0,0.0,0.0,0.0,0.0,0.0,0.0,0.0,0.0,0.0,0.0,0.0,0.0,0.0,0.0,0.0,0.0,0.0,0.0,0.0,0.0,0.0,0.0,0.0,0.0,0.0,0.0,0.0,0.0,0.0,0.0,0.0,0.0,0.0,0.0,0.0,0.0,0.0,0.0,0.0,0.0,0.0,0.0,0.0,0.0,0.0,0.0,0.0,0.0,0.0,0.0,0.0,0.0,0.0,0.0,0.0,0.0,0.0,0.0,-0.9789,-1.0281,-1.066,-1.0681,-1.0497,-1.0119,0.0,0.0,0.0,0.0,0.0,0.0,0.0,0.0,0.0,0.0,0.0,0.0,0.0,0.0,0.0,0.0,0.0,0.0,0.0,0.0,0.0,0.0,0.0,0.0,0.0,0.0,0.0,0.0,0.0,0.0,0.0,0.0,0.0,0.0,0.0,0.0,0.0,0.0,0.0,0.0,0.0,0.0,0.0,0.0,0.0,0.0,0.0,0.0,0.0,0.0,0.0,0.0,0.0,0.0,0.0,0.0,0.0,0.0,0.0,0.0,0.0,0.0,0.0,0.0,0.0,0.0,0.0,0.0,0.0,0.0,0.0,0.0,0.0,0.0,0.0,0.0,0.0,0.0,0.0,0.0,0.0,0.0,0.0,0.0,0.0,0.0,0.0,0.0,0.0,0.0,0.0,0.0,0.0,0.0,0.0,0.0,0.0,0.0,0.0,0.0,0.0,0.0,0.0,0.0,0.0,0.0,0.0,0.0,-1.1769,-1.0727,-1.0752,-1.2046,-1.2092,-1.1491,0.0,0.0,0.0,0.0,0.0,0.0,0.0,0.0,0.0,0.0,0.0,0.0,0.0,0.0,0.0,0.0,0.0,0.0,0.0,0.0,0.0,0.0,0.0,0.0,0.0,0.0,0.0,0.0,0.0,0.0,0.0,0.0,0.0,0.0,0.0,0.0,0.0,0.0,0.0,0.0,0.0,0.0,0.0,0.0,0.0,0.0,0.0,0.0,0.0,0.0,0.0,0.0,0.0,0.0,0.0,0.0,0.0,0.0,0.0,0.0,0.0,0.0,0.0,0.0,0.0,0.0,0.0,0.0,0.0,0.0,0.0,0.0,0.0,0.0,0.0,0.0,0.0,0.0,0.0,0.0,0.0,0.0,0.0,0.0,0.0,0.0,0.0,0.0,0.0,0.0,0.0,0.0,0.0,0.0,0.0,0.0,0.0,0.0,0.0,0.0,0.0,0.0,0.0,0.0,0.0,0.0,0.0,0.0,0.0,-0.9535,-0.9905,-1.1189,-1.3313,-1.1774,-1.1029,0.0,0.0,0.0,0.0,0.0,0.0,0.0,0.0,0.0,0.0,0.0,0.0,0.0,0.0,0.0,0.0,0.0,0.0,0.0,0.0,0.0,0.0,0.0,0.0,0.0,0.0,0.0,0.0,0.0,0.0,0.0,0.0,0.0,0.0,0.0,0.0,0.0,0.0,0.0,0.0,0.0,0.0,0.0,0.0,0.0,0.0,0.0,0.0,0.0,0.0,0.0,0.0,0.0,0.0,0.0,0.0,0.0,0.0,0.0,0.0,0.0,0.0,0.0,0.0,0.0,0.0,0.0,0.0,0.0,0.0,0.0,0.0,0.0,0.0,0.0,0.0,0.0,0.0,0.0,0.0,0.0,0.0,0.0,0.0,0.0,0.0,0.0,0.0,0.0,0.0,0.0,0.0,0.0,0.0,0.0,0.0,0.0,0.0,0.0,0.0,0.0,0.0,0.0,0.0,0.0,0.0,0.0,0.0,0.0,-0.942,0.0,-1.2128,-1.339,-1.1769,-1.0814,0.0,0.0,0.0,0.0,0.0,0.0,0.0,0.0,0.0,0.0,0.0,0.0,0.0,0.0,0.0,0.0,0.0,0.0,0.0,0.0,0.0,0.0,0.0,0.0,0.0,0.0,0.0,0.0,0.0,0.0,0.0,0.0,0.0,0.0,0.0,0.0,0.0,0.0,0.0,0.0,0.0,0.0,0.0,0.0,0.0,0.0,0.0,0.0,0.0,0.0,0.0,0.0,0.0,0.0,0.0,0.0,0.0,0.0,0.0,0.0,0.0,0.0,0.0,0.0,0.0,0.0,0.0,0.0,0.0,0.0,0.0,0.0,0.0,0.0,0.0,0.0,0.0,0.0,0.0,0.0,0.0,0.0,0.0,0.0,0.0,0.0,0.0,0.0,0.0,0.0,0.0,0.0,0.0,0.0,0.0,0.0,0.0,0.0,0.0,0.0,0.0,0.0,0.0,0.0,0.0,0.0,0.0,0.0,-0.9451,-1.2015,-1.3355,-1.3417,-1.2308,-1.2138,-1.0884,0.0,0.0,0.0,0.0,0.0,0.0,0.0,0.0,0.0,0.0,0.0,0.0,0.0,0.0,0.0,0.0,0.0,0.0,0.0,0.0,0.0,0.0,0.0,0.0,0.0,0.0,0.0,0.0,0.0,0.0,0.0,0.0,0.0,0.0,0.0,0.0,0.0,0.0,0.0,0.0,0.0,0.0,0.0,0.0,0.0,0.0,0.0,0.0,0.0,0.0,0.0,0.0,0.0,0.0,0.0,0.0,0.0,0.0,0.0,0.0,0.0,0.0,0.0,0.0,0.0,0.0,0.0,0.0,0.0,0.0,0.0,0.0,0.0,0.0,0.0,0.0,0.0,0.0,0.0,0.0,0.0,0.0,0.0,0.0,0.0,0.0,0.0,0.0,0.0,0.0,0.0,0.0,0.0,0.0,0.0,0.0,0.0,0.0,0.0,0.0,0.0,0.0,0.0,0.0,0.0,0.0,0.0,0.0,0.0,-1.0774,-1.162,-1.2763,-1.4098,-1.1528,-1.0567,0.0,0.0,0.0,0.0,0.0,0.0,0.0,0.0,0.0,0.0,0.0,0.0,0.0,0.0,0.0,0.0,0.0,0.0,0.0,0.0,0.0,0.0,0.0,0.0,0.0,0.0,0.0,0.0,0.0,0.0,0.0,0.0,0.0,0.0,0.0,0.0,0.0,0.0,0.0,0.0,0.0,0.0,0.0,0.0,0.0,0.0,0.0,0.0,0.0,0.0,0.0,0.0,0.0,0.0,0.0,0.0,0.0,0.0,0.0,0.0,0.0,0.0,0.0,0.0,0.0,0.0,0.0,0.0,0.0,0.0,0.0,0.0,0.0,0.0,0.0,0.0,0.0,0.0,0.0,0.0,0.0,0.0,0.0,0.0,0.0,0.0,0.0,0.0,0.0,0.0,0.0,0.0,0.0,0.0,0.0,0.0,0.0,0.0,0.0,0.0,0.0,0.0,0.0,0.0,0.0,0.0,0.0,0.0,0.0,-1.2425,-1.3275,-1.432,-1.5507,-1.2814,-1.1564,-1.1923,0.0,0.0,0.0,0.0,0.0,0.0,0.0,0.0,0.0,0.0,0.0,0.0,0.0,0.0,0.0,0.0,0.0,0.0,0.0,0.0,0.0,0.0,0.0,0.0,0.0,0.0,0.0,0.0,0.0,0.0,0.0,0.0,0.0,0.0,0.0,0.0,0.0,0.0,0.0,0.0,0.0,0.0,0.0,0.0,0.0,0.0,0.0,0.0,0.0,0.0,0.0,0.0,0.0,0.0,0.0,0.0,0.0,0.0,0.0,0.0,0.0,0.0,0.0,0.0,0.0,0.0,0.0,0.0,0.0,0.0,0.0,0.0,0.0,0.0,0.0,0.0,0.0,0.0,0.0,0.0,0.0,0.0,0.0,0.0,0.0,0.0,0.0,0.0,0.0,0.0,0.0,0.0,0.0,0.0,0.0,0.0,0.0,0.0,0.0,0.0,0.0,0.0,0.0,0.0,0.0,0.0,0.0,0.0,-1.6346,-1.7715,-1.7762,-1.6461,-1.5536,-1.3605,0.0,0.0,0.0,0.0,0.0,0.0,0.0,0.0,0.0,0.0,0.0,0.0,0.0,0.0,0.0,0.0,0.0,0.0,0.0,0.0,0.0,0.0,0.0,0.0,0.0,0.0,0.0,0.0,0.0,0.0,0.0,0.0,0.0,0.0,0.0,0.0,0.0,0.0,0.0,0.0,0.0,0.0,0.0,0.0,0.0,0.0,0.0,0.0,0.0,0.0,0.0,0.0,0.0,0.0,0.0,0.0,0.0,0.0,0.0,0.0,0.0,0.0,0.0,0.0,0.0,0.0,0.0,0.0,0.0,0.0,0.0,0.0,0.0,0.0,0.0,0.0,0.0,0.0,0.0,0.0,0.0,0.0,0.0,0.0,0.0,0.0,0.0,0.0,0.0,0.0,0.0,0.0,0.0,0.0,0.0,0.0,0.0,0.0,0.0,0.0,0.0,0.0,0.0,0.0,0.0,0.0,0.0,0.0,0.0,-1.8438,-2.027,-2.0824,-1.9883,-1.6335,-1.4206,0.0,0.0,0.0,0.0,0.0,0.0,0.0,0.0,0.0,0.0,0.0,0.0,0.0,0.0,0.0,0.0,0.0,0.0,0.0,0.0,0.0,0.0,0.0,0.0,0.0,0.0,0.0,0.0,0.0,0.0,0.0,0.0,0.0,0.0,0.0,0.0,0.0,0.0,0.0,0.0,0.0,0.0,0.0,0.0,0.0,0.0,0.0,0.0,0.0,0.0,0.0,0.0,0.0,0.0,0.0,0.0,0.0,0.0,0.0,0.0,0.0,0.0,0.0,0.0,0.0,0.0,0.0,0.0,0.0,0.0,0.0,0.0,0.0,0.0,0.0,0.0,0.0,0.0,0.0,0.0,0.0,0.0,0.0,0.0,0.0,0.0,0.0,0.0,0.0,0.0,0.0,0.0,0.0,0.0,0.0,0.0,0.0,0.0,0.0,0.0,0.0,0.0,0.0,0.0,0.0,0.0,0.0,0.0,-1.7376,-2.0104,-2.212,-2.2948,-2.2578,-1.8776,-1.6168,0.0,0.0,0.0,0.0,0.0,0.0,0.0,0.0,0.0,0.0,0.0,0.0,0.0,0.0,0.0,0.0,0.0,0.0,0.0,0.0,0.0,0.0,0.0,0.0,0.0,0.0,0.0,0.0,0.0,0.0,0.0,0.0,0.0,0.0,0.0,0.0,0.0,0.0,0.0,0.0,0.0,0.0,0.0,0.0,0.0,0.0,0.0,0.0,0.0,0.0,0.0,0.0,0.0,0.0,0.0,0.0,0.0,0.0,0.0,0.0,0.0,0.0,0.0,0.0,0.0,0.0,0.0,0.0,0.0,0.0,0.0,0.0,0.0,0.0,0.0,0.0,0.0,0.0,0.0,0.0,0.0,0.0,0.0,0.0,0.0,0.0,0.0,0.0,0.0,0.0,0.0,0.0,0.0,0.0,0.0,0.0,0.0,0.0,0.0,0.0,0.0,0.0,0.0,0.0,0.0,0.0,0.0,0.0,-1.8699,-2.135,-2.3286,-2.4281,-2.422,-2.167,-1.8698,0.0,0.0,0.0,0.0,0.0,0.0,0.0,0.0,0.0,0.0,0.0,0.0,0.0,0.0,0.0,0.0,0.0,0.0,0.0,0.0,0.0,0.0,0.0,0.0,0.0,0.0,0.0,0.0,0.0,0.0,0.0,0.0,0.0,0.0,0.0,0.0,0.0,0.0,0.0,0.0,0.0,0.0,0.0,0.0,0.0,0.0,0.0,0.0,0.0,0.0,0.0,0.0,0.0,0.0,0.0,0.0,0.0,0.0,0.0,0.0,0.0,0.0,0.0,0.0,0.0,0.0,0.0,0.0,0.0,0.0,0.0,0.0,0.0,0.0,0.0,0.0,0.0,0.0,0.0,0.0,0.0,0.0,0.0,0.0,0.0,0.0,0.0,0.0,0.0,0.0,0.0,0.0,0.0,0.0,0.0,0.0,0.0,0.0,0.0,0.0,0.0,0.0,0.0,0.0,0.0,0.0,0.0,0.0,-1.9886,-2.2043,-2.3548,-2.4276,-2.4208,-2.1503,-1.8997,0.0,0.0,0.0,0.0,0.0,0.0,0.0,0.0,0.0,0.0,0.0,0.0,0.0,0.0,0.0,0.0,0.0,0.0,0.0,0.0,0.0,0.0,0.0,0.0,0.0,0.0,0.0,0.0,0.0,0.0,0.0,0.0,0.0,0.0,0.0,0.0,0.0,0.0,0.0,0.0,0.0,0.0,0.0,0.0,0.0,0.0,0.0,0.0,-0.8861,0.0,0.0,0.0,0.0,0.0,0.0,0.0,0.0,0.0,0.0,0.0,0.0,0.0,0.0,0.0,0.0,0.0,0.0,0.0,0.0,0.0,0.0,0.0,0.0,0.0,0.0,0.0,0.0,0.0,0.0,0.0,0.0,0.0,0.0,0.0,0.0,0.0,0.0,0.0,0.0,0.0,0.0,0.0,0.0,0.0,0.0,0.0,0.0,0.0,0.0,0.0,0.0,0.0,0.0,0.0,0.0,0.0,0.0,0.0,-2.0734,-2.2717,-2.3779,-2.4297,-2.4188,-2.2454,-2.0246,0.0,0.0,0.0,0.0,0.0,0.0,0.0,0.0,0.0,0.0,0.0,0.0,0.0,0.0,0.0,0.0,0.0,0.0,0.0,0.0,0.0,0.0,0.0,0.0,0.0,0.0,0.0,0.0,0.0,0.0,0.0,0.0,0.0,0.0,0.0,0.0,0.0,0.0,0.0,0.0,0.0,0.0,0.0,0.0,0.0,0.0,0.0,0.0,0.0,0.0,0.0,0.0,0.0,0.0,0.0,0.0,0.0,0.0,0.0,0.0,0.0,0.0,0.0,0.0,0.0,0.0,0.0,0.0,0.0,0.0,0.0,0.0,0.0,0.0,0.0,0.0,0.0,0.0,0.0,0.0,0.0,0.0,0.0,0.0,0.0,0.0,0.0,0.0,0.0,0.0,0.0,0.0,0.0,0.0,0.0,0.0,0.0,0.0,0.0,0.0,0.0,0.0,0.0,0.0,0.0,0.0,0.0,-1.9233,-2.1263,-2.3363,-2.401,-2.4281,-2.4281,-2.355,-2.1508,-1.8059,0.0,0.0,0.0,0.0,0.0,0.0,0.0,0.0,0.0,0.0,0.0,0.0,0.0,0.0,0.0,0.0,0.0,0.0,0.0,0.0,0.0,0.0,0.0,0.0,0.0,0.0,0.0,0.0,0.0,0.0,0.0,0.0,0.0,0.0,0.0,0.0,0.0,0.0,-0.7736,-0.8819,0.0,0.0,0.0,0.0,0.0,0.0,0.0,0.0,-0.9375,0.0,0.0,0.0,0.0,0.0,0.0,0.0,0.0,0.0,0.0,0.0,0.0,0.0,0.0,0.0,0.0,0.0,0.0,0.0,0.0,0.0,0.0,0.0,0.0,0.0,0.0,0.0,0.0,0.0,0.0,0.0,0.0,0.0,0.0,0.0,0.0,0.0,0.0,0.0,0.0,0.0,0.0,0.0,0.0,0.0,0.0,0.0,0.0,0.0,0.0,0.0,0.0,0.0,0.0,0.0,0.0,-2.0284,-1.9941,-2.1124,-2.404,-2.4256,-2.4276,-2.4193,-2.3463,-2.1451,-1.8138,0.0,0.0,0.0,0.0,0.0,0.0,0.0,0.0,0.0,0.0,0.0,0.0,0.0,0.0,0.0,0.0,0.0,0.0,0.0,0.0,0.0,0.0,0.0,0.0,0.0,0.0,0.0,0.0,0.0,0.0,0.0,0.0,0.0,0.0,0.0,0.0,0.0,0.0,0.0,-1.201,-1.2537,0.0,0.0,0.0,0.0,0.0,0.0,0.0,0.0,-1.0213,0.0,0.0,0.0,0.0,0.0,0.0,0.0,0.0,0.0,0.0,0.0,0.0,0.0,0.0,0.0,0.0,0.0,0.0,0.0,0.0,0.0,0.0,0.0,0.0,0.0,0.0,0.0,0.0,0.0,0.0,0.0,0.0,0.0,0.0,0.0,0.0,0.0,0.0,0.0,0.0,0.0,0.0,0.0,0.0,0.0,0.0,0.0,0.0,0.0,0.0,0.0,0.0,0.0,0.0,0.0,-2.001,-2.1259,-2.2734,-2.4521,-2.439,-2.4276,-2.4156,-2.2841,-2.0813,0.0,0.0,0.0,0.0,0.0,0.0,0.0,0.0,0.0,0.0,0.0,0.0,0.0,0.0,0.0,0.0,0.0,0.0,0.0,0.0,0.0,0.0,0.0,0.0,0.0,0.0,0.0,0.0,0.0,0.0,0.0,0.0,0.0,0.0,0.0,0.0,0.0,0.0,0.0,0.0,-1.3078,-1.3907,-1.4421,0.0,0.0,0.0,0.0,0.0,0.0,-1.2113,-1.1313,0.0,0.0,0.0,0.0,0.0,0.0,0.0,0.0,0.0,0.0,0.0,0.0,0.0,0.0,0.0,0.0,0.0,0.0,0.0,0.0,0.0,0.0,0.0,0.0,0.0,0.0,0.0,0.0,0.0,0.0,0.0,0.0,0.0,0.0,0.0,0.0,0.0,0.0,0.0,0.0,0.0,0.0,0.0,0.0,0.0,0.0,0.0,0.0,0.0,0.0,0.0,0.0,0.0,0.0,0.0,-1.9389,-2.2229,-2.4074,-2.4839,-2.4578,-2.4364,-2.4198,-2.2448,-2.0382,0.0,0.0,0.0,0.0,0.0,0.0,0.0,0.0,0.0,0.0,0.0,0.0,0.0,0.0,0.0,0.0,0.0,0.0,0.0,0.0,0.0,0.0,0.0,0.0,0.0,0.0,0.0,0.0,0.0,0.0,0.0,0.0,0.0,0.0,0.0,0.0,0.0,0.0,0.0,0.0,0.0,-1.5324,-1.587,-1.5238,0.0,0.0,0.0,0.0,-1.4491,-1.3938,0.0,0.0,0.0,0.0,0.0,0.0,0.0,0.0,0.0,0.0,0.0,0.0,0.0,0.0,0.0,0.0,0.0,0.0,0.0,0.0,0.0,0.0,0.0,0.0,0.0,0.0,0.0,0.0,0.0,0.0,0.0,0.0,0.0,0.0,0.0,0.0,0.0,0.0,0.0,0.0,0.0,0.0,0.0,0.0,0.0,0.0,0.0,0.0,0.0,0.0,0.0,0.0,0.0,0.0,0.0,0.0,-1.9334,-2.1732,-2.3578,-2.4831,-2.4843,-2.4675,-2.4287,-2.2869,-2.0873,0.0,0.0,0.0,0.0,0.0,0.0,0.0,0.0,0.0,0.0,0.0,0.0,0.0,0.0,0.0,0.0,0.0,0.0,0.0,0.0,0.0,0.0,0.0,0.0,0.0,0.0,0.0,0.0,0.0,0.0,0.0,0.0,0.0,0.0,0.0,0.0,0.0,0.0,0.0,0.0,0.0,-1.7932,-1.6975,-1.6648,-1.6552,0.0,0.0,-1.7033,-1.9216,-1.8698,0.0,0.0,0.0,0.0,0.0,0.0,0.0,0.0,0.0,0.0,0.0,0.0,0.0,0.0,0.0,0.0,0.0,0.0,0.0,0.0,0.0,0.0,0.0,0.0,0.0,0.0,0.0,0.0,0.0,0.0,0.0,0.0,0.0,0.0,0.0,0.0,0.0,0.0,0.0,0.0,0.0,0.0,0.0,0.0,0.0,0.0,0.0,0.0,0.0,0.0,0.0,0.0,0.0,0.0,0.0,-1.7474,-1.977,-2.3004,-2.4953,-2.5547,-2.5351,-2.5137,-2.4922,-2.2687,-2.0564,0.0,0.0,0.0,0.0,0.0,0.0,0.0,0.0,0.0,0.0,0.0,0.0,0.0,0.0,0.0,0.0,0.0,0.0,0.0,0.0,0.0,0.0,0.0,0.0,0.0,0.0,0.0,0.0,0.0,0.0,0.0,0.0,0.0,0.0,0.0,0.0,0.0,0.0,0.0,0.0,0.0,0.0,-1.9682,-1.956,0.0,0.0,0.0,-1.8982,-1.9367,0.0,0.0,0.0,0.0,0.0,0.0,0.0,0.0,0.0,0.0,0.0,0.0,0.0,0.0,0.0,0.0,0.0,0.0,0.0,0.0,0.0,0.0,0.0,0.0,0.0,0.0,0.0,0.0,0.0,0.0,0.0,0.0,0.0,0.0,0.0,0.0,0.0,0.0,0.0,0.0,0.0,0.0,0.0,0.0,0.0,0.0,0.0,0.0,0.0,0.0,0.0,0.0,0.0,0.0,0.0,0.0,0.0,-2.0339,-2.4226,-2.6193,-2.6087,-2.5799,-2.5577,-2.5392,-2.3061,0.0,0.0,0.0,0.0,0.0,0.0,0.0,0.0,0.0,0.0,0.0,0.0,0.0,0.0,0.0,0.0,0.0,0.0,0.0,0.0,0.0,0.0,0.0,0.0,0.0,0.0,0.0,-0.5328,0.0,0.0,0.0,0.0,0.0,0.0,0.0,0.0,0.0,0.0,0.0,0.0,0.0,0.0,-2.027,-2.1561,-2.1756,-2.181,0.0,0.0,-2.0904,-2.0498,-2.1004,-2.0284,0.0,0.0,0.0,0.0,0.0,0.0,0.0,0.0,0.0,0.0,0.0,0.0,0.0,0.0,0.0,0.0,0.0,0.0,0.0,0.0,0.0,0.0,0.0,0.0,0.0,0.0,0.0,0.0,0.0,0.0,0.0,0.0,0.0,0.0,0.0,0.0,0.0,0.0,0.0,0.0,0.0,0.0,0.0,0.0,0.0,0.0,0.0,0.0,0.0,0.0,0.0,0.0,0.0,0.0,-1.8894,-2.1156,-2.4781,-2.6504,-2.6122,-2.607,-2.589,-2.5505,-2.4679,-2.2621,0.0,0.0,0.0,0.0,0.0,0.0,0.0,0.0,0.0,0.0,0.0,0.0,0.0,0.0,0.0,0.0,0.0,0.0,0.0,0.0,0.0,0.0,0.0,0.0,0.0,0.0,0.0,0.0,0.0,0.0,0.0,0.0,0.0,0.0,0.0,0.0,0.0,0.0,0.0,0.0,0.0,-2.1666,-2.1302,-2.2199,-2.3209,0.0,-2.3452,-2.3361,-2.4873,-2.5396,-2.4249,-2.0049,0.0,0.0,0.0,0.0,0.0,0.0,0.0,0.0,0.0,0.0,0.0,0.0,0.0,0.0,0.0,0.0,0.0,0.0,0.0,0.0,0.0,0.0,0.0,0.0,0.0,0.0,0.0,0.0,0.0,0.0,0.0,0.0,0.0,0.0,0.0,0.0,0.0,0.0,0.0,0.0,0.0,0.0,0.0,0.0,0.0,0.0,0.0,0.0,0.0,0.0,0.0,0.0,0.0,-1.9219,-2.187,-2.5491,-2.7281,-2.7159,-2.7141,-2.687,-2.6262,-2.534,-2.3472,0.0,0.0,0.0,0.0,0.0,0.0,0.0,0.0,0.0,0.0,0.0,0.0,0.0,0.0,0.0,0.0,0.0,0.0,0.0,0.0,0.0,0.0,0.0,0.0,0.0,0.0,0.0,0.0,-0.9435,-0.9912,-0.9507,0.0,0.0,0.0,0.0,0.0,0.0,0.0,0.0,0.0,0.0,-2.2654,-2.3748,-2.4314,0.0,0.0,-2.4853,-2.4574,-2.4561,-2.4314,-2.3057,-1.9832,-1.8033,0.0,0.0,0.0,0.0,0.0,0.0,0.0,0.0,0.0,0.0,0.0,0.0,0.0,0.0,0.0,0.0,0.0,0.0,0.0,0.0,0.0,0.0,0.0,0.0,0.0,0.0,0.0,0.0,0.0,0.0,0.0,0.0,0.0,0.0,0.0,0.0,0.0,0.0,0.0,0.0,0.0,0.0,0.0,0.0,0.0,0.0,0.0,0.0,0.0,0.0,0.0,0.0,-1.9731,-2.2697,-2.6065,-2.7908,-2.8145,-2.7925,-2.7553,-2.7029,-2.6084,-2.4407,0.0,0.0,0.0,0.0,0.0,0.0,0.0,0.0,0.0,0.0,0.0,0.0,0.0,0.0,0.0,0.0,0.0,0.0,0.0,0.0,0.0,0.0,0.0,0.0,0.0,0.0,0.0,0.0,-1.0326,-1.0535,-1.0081,0.0,0.0,0.0,0.0,0.0,0.0,0.0,0.0,0.0,0.0,-2.3745,-2.5113,-2.5269,-2.527,-2.527,-2.5084,-2.4752,-2.4162,-2.3695,-2.2632,-2.0412,0.0,0.0,0.0,0.0,0.0,0.0,0.0,0.0,0.0,0.0,0.0,0.0,0.0,0.0,0.0,0.0,0.0,0.0,0.0,0.0,0.0,0.0,0.0,0.0,0.0,0.0,0.0,-1.0402,0.0,0.0,-0.9269,0.0,0.0,0.0,0.0,0.0,0.0,0.0,0.0,0.0,0.0,0.0,0.0,0.0,0.0,0.0,0.0,0.0,0.0,0.0,0.0,0.0,0.0,-2.0463,-2.3627,-2.6435,-2.8213,-2.8925,-2.823,-2.7807,-2.7739,-2.7046,-2.5625,-2.3374,0.0,0.0,0.0,0.0,0.0,0.0,0.0,0.0,0.0,0.0,0.0,0.0,0.0,0.0,0.0,0.0,0.0,0.0,0.0,0.0,0.0,0.0,0.0,0.0,0.0,0.0,-1.0072,-1.0018,-1.0054,0.0,0.0,0.0,0.0,0.0,0.0,0.0,0.0,0.0,-2.0106,-2.3084,-2.5005,-2.4707,-2.4588,-2.4623,-2.4625,-2.4,-2.3731,-2.4441,-2.4458,-2.3951,0.0,0.0,0.0,0.0,0.0,0.0,0.0,0.0,0.0,0.0,0.0,0.0,0.0,0.0,0.0,0.0,0.0,0.0,0.0,0.0,0.0,0.0,0.0,0.0,0.0,0.0,0.0,-1.5044,-1.3826,0.0,0.0,0.0,0.0,0.0,0.0,0.0,0.0,0.0,0.0,0.0,-2.3839,-2.4574,0.0,0.0,0.0,0.0,0.0,0.0,0.0,0.0,0.0,0.0,0.0,0.0,-2.1071,-2.4854,-2.7351,-2.8958,-2.9685,-2.9463,-2.8821,-2.7841,-2.757,-2.5931,-2.2767,0.0,0.0,0.0,0.0,0.0,0.0,0.0,0.0,0.0,0.0,0.0,0.0,0.0,0.0,0.0,0.0,0.0,0.0,0.0,0.0,0.0,0.0,0.0,0.0,0.0,-1.0994,0.0,0.0,0.0,0.0,0.0,0.0,0.0,0.0,0.0,0.0,0.0,-2.1448,-2.213,-2.4144,-2.5627,-2.59,-2.5749,-2.596,0.0,0.0,0.0,0.0,0.0,0.0,0.0,0.0,0.0,0.0,0.0,0.0,0.0,0.0,-2.1426,-1.6959,-1.6229,-1.6414,-1.6744,0.0,0.0,0.0,0.0,0.0,0.0,0.0,0.0,0.0,0.0,0.0,0.0,0.0,0.0,-1.9123,0.0,-1.7522,0.0,0.0,0.0,0.0,0.0,0.0,0.0,0.0,-2.5787,-2.7544,-2.8304,-2.883,-2.8522,0.0,-2.6675,-2.3994,0.0,0.0,0.0,0.0,0.0,0.0,0.0,0.0,-2.2233,-2.5759,-2.8184,-2.9736,-3.0429,-3.0243,-2.9634,-2.8635,-2.8077,-2.6556,-2.3917,-2.211,-2.0048,0.0,0.0,0.0,0.0,0.0,0.0,0.0,0.0,0.0,0.0,0.0,0.0,0.0,0.0,0.0,0.0,0.0,0.0,0.0,0.0,0.0,0.0,0.0,-1.164,0.0,0.0,0.0,0.0,0.0,0.0,0.0,0.0,0.0,-1.803,-2.1355,-2.4114,-2.4847,-2.6157,-2.6965,-2.6733,0.0,0.0,0.0,0.0,0.0,0.0,0.0,-2.5096,-2.5351,-2.4807,-2.4569,-2.5249,-2.6149,-2.6708,-2.6404,0.0,0.0,-2.1079,-2.0187,-2.036,-2.0674,-2.1366,-2.2018,-2.2302,-2.3392,-2.4301,0.0,0.0,0.0,0.0,0.0,0.0,0.0,0.0,-2.335,-2.3368,0.0,-2.1586,0.0,0.0,0.0,0.0,0.0,-2.4447,0.0,0.0,-3.1437,-3.2995,-3.2306,-3.227,-3.2288,-3.2252,-3.1419,-2.9844,-2.7405,-2.298,0.0,0.0,0.0,0.0,0.0,0.0,-2.3936,-2.6449,-2.8887,-3.0484,-3.1181,-3.0554,-3.0163,-3.0059,-2.8653,-2.7486,-2.6691,-2.4661,-2.2832,-2.1258,-1.7788,0.0,0.0,0.0,0.0,0.0,0.0,0.0,0.0,0.0,0.0,0.0,0.0,0.0,0.0,0.0,0.0,0.0,0.0,0.0,0.0,-1.2346,0.0,0.0,0.0,0.0,0.0,0.0,0.0,0.0,0.0,0.0,-2.1441,-2.4223,-2.6813,-2.7973,0.0,0.0,0.0,0.0,-2.753,-2.6179,-2.6247,-2.6595,-2.6603,-2.7426,-2.8322,-2.9001,0.0,0.0,-2.929,-2.915,-2.8942,-2.8145,-2.9281,-2.9499,-2.73,-2.5658,-2.4995,-2.5653,-2.549,-2.5379,-2.6076,-2.7029,-2.7609,-3.0962,0.0,0.0,0.0,0.0,-2.7411,-2.8323,-2.9789,-2.959,-2.8618,-2.7188,-2.6518,0.0,0.0,0.0,0.0,0.0,0.0,-2.9531,-3.0894,-3.2614,-3.39,-3.4769,-3.4754,-3.4772,-3.4733,-3.3954,-3.323,-3.2455,-3.0604,-2.6421,-2.0246,0.0,0.0,0.0,0.0,-2.6235,-2.8897,-3.0259,-3.1237,-3.1985,-3.1777,-3.1288,-3.0485,-2.9523,-2.8528,-2.752,-2.6877,-2.5356,-2.2883,-2.1245,0.0,0.0,0.0,0.0,0.0,0.0,0.0,0.0,0.0,0.0,0.0,0.0,0.0,0.0,0.0,0.0,0.0,0.0,0.0,-1.2595,-1.3609,-1.4131,0.0,0.0,0.0,0.0,0.0,0.0,0.0,0.0,0.0,-2.7091,-2.782,-2.812,0.0,0.0,-2.8341,-2.8324,-2.8864,-2.9683,-3.0848,-3.0969,0.0,-3.12,-3.0628,-3.0283,-3.0675,-3.1274,-3.1661,-3.1536,-3.1958,-3.2247,-3.2068,-3.2429,-3.2497,-3.1886,-3.052,-2.9635,-2.9879,-3.0244,-3.0625,-3.0901,-3.1575,-3.2093,-3.6671,-3.3864,-3.1822,-3.1437,-3.2162,-3.218,-3.3103,-3.4567,-3.4241,-3.3628,-3.2799,-3.1858,-3.0374,-2.8522,-2.7592,0.0,0.0,0.0,-3.3227,-3.5059,-3.5548,-3.6453,-3.7614,-3.7668,-3.7522,-3.7196,-3.6417,-3.5874,-3.5548,-3.4425,-3.1292,-2.6367,0.0,0.0,-2.6033,-2.7406,-2.9108,-3.1101,-3.2102,-3.2651,-3.2774,-3.2475,-3.1969,-3.129,-3.0559,-2.985,-2.9179,-2.8544,-2.7361,-2.5451,-2.383,-2.1425,0.0,0.0,0.0,0.0,0.0,0.0,0.0,0.0,0.0,0.0,0.0,-1.2593,-1.1169,0.0,0.0,0.0,-1.3475,-1.4381,-1.5539,-1.6116,0.0,0.0,0.0,0.0,0.0,0.0,0.0,-2.4231,-2.6662,-2.8927,-3.0721,-3.0924,-3.084,-3.0619,-3.0626,-3.0711,-3.0839,0.0,-3.2252,-3.3288,-3.3467,-3.353,-3.3681,-3.3369,-3.3213,-3.3671,-3.4004,-3.4278,-3.4391,-3.4631,-3.4819,-3.4874,-3.4789,-3.4681,-3.4681,-3.3932,-3.3114,-3.2586,-3.2906,-3.3276,-3.3311,-3.3746,-3.4096,-4.0691,-4.0383,-3.6779,-3.562,-3.6166,-3.6166,-3.6997,-3.8299,-3.7593,-3.8065,-3.9206,-3.7069,-3.6039,-3.584,-3.3737,0.0,-3.6093,-3.613,-3.7341,-3.9478,-3.9478,-3.9858,-4.0492,-4.0474,-4.0166,-3.946,-3.8752,-3.8009,-3.7249,-3.5802,-3.4609,-3.3755,-3.2306,-3.1053,-3.0097,-3.1153,-3.213,-3.295,-3.4092,-3.4358,-3.3688,-3.2895,-3.2456,-3.2422,-3.1717,-3.1243,-3.1068,-2.9751,-2.8784,-2.8273,-2.5692,-2.3492,-2.1821,0.0,0.0,0.0,0.0,0.0,0.0,0.0,0.0,0.0,0.0,0.0,0.0,0.0,0.0,-1.6429,-1.724,0.0,-2.005,-1.9482,0.0,0.0,0.0,-2.142,-2.304,-2.6089,-2.8381,-2.9101,0.0,0.0,-3.2894,-3.355,-3.4339,-3.5169,-3.5059,-3.4674,-3.399,-3.4491,-3.4839,-3.4275,-3.4572,-3.4833,-3.4979,-3.5554,-3.622,-3.6805,-3.7248,-3.7049,-3.7052,-3.6837,-3.6646,-3.6576,-3.6354,-3.6101,-3.6114,-3.6107,-3.5841,-3.439,-3.4126,-3.4109,-3.4163,-3.4292,-3.4424,-4.2321,-4.2267,-4.1307,-4.0329,-3.937,-3.937,-3.9587,-3.9913,-3.9767,-3.9568,-3.9351,-3.8808,-3.8192,-3.7612,-3.7667,-3.7993,-3.8572,-3.9116,-3.9677,-4.0238,-4.0256,-4.0347,-4.0492,-4.0492,-4.0401,-4.022,-4.0057,-3.9858,-3.9659,-3.9279,-3.8391,-3.7122,-3.6669,-3.4857,-3.1781,-3.2524,-3.3364,-3.4158,-3.4474,-3.4823,-3.52,-3.4463,-3.392,-3.3588,-3.2825,-3.1753,-3.0349,-2.9929,-2.916,-2.7927,-2.7175,-2.582,-2.3751,-2.049,0.0,0.0,0.0,0.0,0.0,0.0,0.0,0.0,0.0,-1.7003,-1.3509,0.0,-1.7684,0.0,-1.9353,-2.0931,-2.1952,-2.2357,0.0,0.0,-2.5078,-2.6493,-2.816,-3.013,-3.1442,-3.1613,-3.274,-3.4009,-3.5257,-3.5587,-3.6229,-3.7569,-3.5679,-3.4229,-3.4637,-3.5426,-3.6156,-3.656,-3.7161,-3.7591,-3.7281,-3.7094,-3.7164,-3.7269,-3.7267,-3.7229,-3.7286,-3.7194,-3.7173,-3.7266,-3.7227,-3.7151,-3.715,-3.7152,-3.7099,-3.6673,-3.6158,-3.5745,-3.5725,-3.5749,-3.5766,-4.3951,-4.3969,-4.3969,-4.3244,-4.2103,-4.2103,-4.2103,-4.2122,-4.2103,-4.1669,-4.0963,-4.0963,-4.0908,-4.0836,-4.1307,-4.147,-4.1524,-4.1922,-4.1922,-4.1578,-4.156,-4.1578,-4.1578,-4.1578,-4.1397,-4.1035,-4.1035,-4.0854,-4.051,-4.0492,-4.0075,-3.9242,-3.9224,-3.7957,-3.5476,-3.4806,-3.4682,-3.5134,-3.515,-3.553,-3.6254,-3.5188,-3.4315,-3.373,-3.2942,-3.1718,-2.9967,-2.9579,-2.876,-2.7476,-2.7041,-2.6118,-2.4499,-2.2018,-1.9817,0.0,0.0,0.0,0.0,0.0,0.0,0.0,0.0,0.0,0.0,0.0,-2.0191,-2.0065,-2.2518,-2.4454,-2.5269,-2.6039,-2.701,-2.8246,-2.9514,-3.0792,-3.2059,-3.3666,-3.4696,-3.4682,-3.5449,-3.6321,-3.7239,-3.7349,-3.7826,-3.9056,-3.7679,-3.6541,-3.6619,-3.7074,-3.7533,-3.7988,-3.8707,-3.9305,-3.9387,-3.9186,-3.8976,-3.8958,-3.8652,-3.8418,-3.8435,-3.8007,-3.7775,-3.8187,-3.8169,-3.8148,-3.847,-3.8559,-3.8577,-3.8486,-3.7932,-3.7303,-3.6891,-3.6553,-3.6343,-4.5329,-4.5291,-4.5291,-4.4947,-4.4385,-4.4403,-4.4222,-4.3951,-4.3951,-4.3607,-4.3064,-4.3173,-4.3588,-4.424,-4.4258,-4.424,-4.4258,-4.4258,-4.3824,-4.3082,-4.3045,-4.2991,-4.2919,-4.2919,-4.2538,-4.1868,-4.185,-4.1488,-4.0818,-4.08,-4.0691,-4.0492,-4.0492,-4.0093,-3.9188,-3.7142,-3.6003,-3.5804,-3.591,-3.629,-3.6959,-3.5439,-3.4208,-3.3411,-3.2524,-3.1274,-2.9712,-2.898,-2.8119,-2.711,-2.6481,-2.5849,-2.5135,-2.3342,-2.1768,0.0,-1.9165,0.0,0.0,0.0,0.0,0.0,0.0,0.0,0.0,-2.3049,-2.3338,-2.3738,-2.6355,-2.8346,-2.9143,-3.0,-3.107,-3.2451,-3.3468,-3.4367,-3.5203,-3.672,-3.7754,-3.7863,-3.8548,-3.9001,-3.9019,-3.8985,-3.9294,-3.9918,-3.9918,-3.9533,-3.9148,-3.8982,-3.9019,-3.9038,-3.9606,-4.0251,-4.0769,-4.0989,-4.0971,-4.095,-4.0423,-4.0065,-3.9997,-3.9203,-3.8749,-3.9329,-3.9283,-3.9282,-3.9945,-4.0036,-4.0036,-3.9983,-3.9388,-3.8632,-3.7824,-3.7048,-3.6597,-4.5388,-4.5291,-4.5291,-4.558,-4.6051,-4.6051,-4.4928,-4.3137,-4.3137,-4.3426,-4.3934,-4.4566,-4.4928,-4.5073,-4.5073,-4.5073,-4.5073,-4.5073,-4.4621,-4.3879,-4.386,-4.3535,-4.2937,-4.2919,-4.281,-4.2683,-4.2683,-4.2592,-4.2466,-4.2448,-4.1778,-4.0528,-4.0492,-3.9804,-3.848,0.0,0.0,0.0,-3.6453,-3.6868,-3.6941,-3.5421,-3.4208,-3.3393,-3.1981,0.0,-2.8925,-2.869,-2.8213,-2.7416,-2.7801,0.0,0.0,0.0,0.0,0.0,0.0,0.0,0.0,0.0,0.0,0.0,-2.6905,-2.6001,-2.3976,-2.6549,-2.8665,-2.9391,-3.0568,-3.1618,-3.2433,-3.3212,-3.3854,-3.424,-3.556,-3.6802,-3.7729,-3.8713,-3.9621,-4.0327,-4.0545,-4.0636,-4.0581,-4.0636,-4.0673,-4.082,-4.0873,-4.0802,-4.0691,-4.0581,-4.06,-4.0689,-4.0781,-4.0928,-4.1093,-4.1168,-4.126,-4.1058,-4.1003,-4.0873,-4.0838,-4.0696,-4.0502,-4.074,-4.069,-4.0658,-4.0859,-4.0876,-4.0933,-4.0877,-4.0489,-3.9842,-3.8705,-3.7841,-3.7284,-4.6545,0.0,-4.6486,-4.6504,0.0,-4.6504,-4.558,-4.4114,-4.4494,-4.4675,-4.4711,-4.5128,-4.5526,-4.587,-4.549,-4.5291,-4.5273,-4.4892,-4.4494,-4.4115,-4.4095,-4.4077,-4.4059,-4.3679,-4.3499,-4.3462,-4.31,-4.2919,-4.2919,-4.2919,-4.2484,-4.1705,-4.1687,-4.1289,-4.0528,-4.013,-3.8952,-3.6997,-3.7393,-3.7593,-3.7557,-3.6399,-3.5403,-3.4573,-3.3031,0.0,0.0,0.0,0.0,0.0,0.0,0.0,0.0,0.0,0.0,-2.6813,-2.6783,-2.6982,-2.7381,-2.8105,-2.9264,-3.0844,-3.1333,-3.055,-2.8172,-3.0581,-3.2325,-3.2741,-3.3502,-3.448,-3.5654,-3.6159,-3.6751,-3.7598,-3.8462,-3.9179,-3.9628,-4.0115,-4.0604,-4.1003,-4.1113,-4.1113,-4.1113,-4.1113,-4.1279,-4.1625,-4.1699,-4.1846,-4.2121,-4.1589,-4.1205,-4.1607,-4.1682,-4.1864,-4.2194,-4.2286,-4.2268,-4.2249,-4.1956,-4.1701,-4.1699,-4.1352,-4.1205,-4.157,-4.168,-4.1774,-4.2213,-4.2286,-4.2286,-4.2214,-4.1803,-4.1265,-4.0509,-3.9211,-3.8025,-4.7741,-4.7738,-4.7699,-4.7319,-4.6721,-4.6721,-4.6341,-4.5761,0.0,0.0,0.0,-4.5653,-4.6106,-4.6667,-4.6015,-4.5725,-4.5689,-4.5037,-4.4657,-4.4512,-4.4512,-4.4784,-4.5254,-4.4639,-4.4313,-4.4277,-4.3625,-4.3226,-4.3137,-4.3118,-4.3046,-4.2919,-4.2919,-4.2919,-4.2865,-4.2248,-4.0872,-3.8898,-3.8553,-3.8391,-3.839,-3.7484,-3.6633,-3.5804,-3.4244,-3.2705,-3.1288,-3.0568,-2.9929,-2.9287,-2.9378,-2.945,-2.9468,-3.0079,-3.0437,-3.0473,-3.1197,-3.1926,-3.256,-3.2759,-3.3248,-3.419,-3.5113,-3.4914,-3.3194,-3.4389,-3.5294,-3.5439,-3.6182,-3.7212,-3.848,-3.8692,-3.9251,-4.0578,-4.0806,-4.0908,-4.1089,-4.1229,-4.1354,-4.148,-4.159,-4.1517,-4.1607,-4.1607,-4.1754,-4.2341,-4.2506,-4.2708,-4.3167,-4.2415,-4.1864,-4.2396,-4.2525,-4.2727,-4.3277,-4.3406,-4.3479,-4.3332,-4.2892,-4.2543,-4.2415,-4.1974,-4.1846,-4.2396,-4.2506,-4.2763,-4.3314,-4.3369,-4.3479,-4.3479,-4.2965,-4.2451,-4.2162,-4.0743,-3.9247,-4.7927,-4.7861,-4.7738,-4.7645,-4.7515,-4.7536,-4.7482,-4.7319,-4.6757,-4.645,-4.6377,-4.7065,-4.7428,-4.7515,-4.7428,-4.7373,-4.7373,-4.7265,-4.683,-4.6178,-4.616,-4.5852,-4.5291,-4.5182,-4.5128,-4.5128,-4.5001,-4.4584,-4.3987,-4.3932,-4.3588,-4.2991,-4.2919,-4.2919,-4.2901,-4.2792,-4.223,-4.1198,-3.9894,-3.9224,-3.9206,-3.7774,-3.6598,-3.5768,-3.4298,-3.2977,-3.2071,-3.1962,-3.1799,-3.1727,-3.2361,-3.2741,-3.2741,-3.2868,-3.2904,-3.294,-3.3665,-3.4154,-3.4298,-3.4881,-3.5946,-3.7431,-3.8862,-3.8735,-3.6596,-3.7176,-3.7975,-3.8662,-3.9365,-4.0036,-4.0202,-4.0305,-4.0483,-4.0722,-4.081,-4.1131,-4.1894,-4.2038,-4.231,-4.2965,-4.3167,-4.3094,-4.3002,-4.3057,-4.3039,-4.3259,-4.3185,-4.3351,-4.3387,-4.3331,-4.3204,-4.3296,-4.3349,-4.3386,-4.3461,-4.3479,-4.3479,-4.3479,-4.3369,-4.3222,-4.3222,-4.3075,-4.302,-4.3259,-4.324,-4.3314,-4.3479,-4.3479,-4.3479,-4.3479,-4.3313,-4.3075,-4.2525,-4.1911,-4.1237,-4.7824,-4.778,-4.7717,-4.7699,-4.7699,-4.7699,-4.7699,-4.7681,-4.7319,-4.7156,-4.7192,-4.7536,-4.7699,-4.7642,-4.7265,-4.7026,-4.7029,-4.6595,-4.645,-4.6504,-4.6504,-4.6558,-4.6576,-4.616,-4.5961,-4.5924,-4.549,-4.511,-4.4784,-4.4729,-4.4548,-4.4186,-4.3769,-4.3354,-4.2937,-4.2919,-4.2719,-4.2339,-4.1216,-4.0438,-4.0003,-3.9278,-3.8735,-3.8338,-3.7232,-3.649,-3.6109,-3.5675,-3.5473,-3.5455,-3.5783,-3.6017,-3.6001,-3.6417,-3.6671,-3.6671,-3.7377,-3.7795,-3.7795,-3.8139,-3.8664,-3.9405,-4.0076,-4.0076,-3.8989,-3.9242,-3.9604,-3.9967,-4.0382,-4.0745,-4.1107,-4.1234,-4.1451,-4.1851,-4.1978,-4.2231,-4.263,-4.281,-4.3026,-4.3424,-4.3479,-4.3479,-4.3479,-4.3479,-4.3479,-4.3479,-4.3479,-4.3479,-4.3479,-4.3479,-4.3479,-4.3479,-4.3479,-4.3479,-4.3479,-4.3479,-4.3479,-4.3479,-4.3479,-4.3479,-4.3479,-4.3479,-4.3479,-4.3479,-4.3479,-4.3479,-4.3479,-4.3479,-4.3479,-4.3479,-4.3479,-4.3277,-4.3002,-4.2635,-4.1797,-4.7738,-4.7738,-4.7717,-4.7699,-4.7699,-4.7699,-4.7699,-4.7699,-4.7699,-4.7699,-4.7699,-4.7699,-4.7699,-4.7645,-4.7047,-4.6776,-4.6685,-4.6124,-4.6178,-4.6739,-4.6776,-4.712,-4.7609,-4.7047,-4.6776,-4.6703,-4.6124,-4.5743,-4.558,-4.5562,-4.5472,-4.5254,-4.4675,-4.4059,-4.3444,-4.3445,-4.3354,-4.3136,-4.2556,-4.185,-4.1071,-4.0854,-4.0764,-4.0709,-4.0021,-3.9659,-3.9623,-3.9043,-3.8717,-3.8717,-3.8699,-3.8717,-3.8735,-3.9297,-3.9641,-3.9695,-4.0184,-4.0492,-4.0492,-4.0673,-4.0764,-4.0764,-4.0944,-4.1053,-4.1053,-4.1053,-4.0963,-4.0836,-4.0999,-4.1379,-4.1868,-4.2014,-4.2286,-4.2903,-4.3086,-4.3142,-4.3269,-4.334,-4.3446,-4.3497,-4.3479,-4.3479,-4.3479,-4.3479,-4.3479,-4.3479,-4.3479,-4.3479,-4.3479,-4.3479,-4.3479,-4.3479,-4.3479,-4.3479,-4.3479,-4.3479,-4.3479,-4.3479,-4.3479,-4.3479,-4.3479,-4.3479,-4.3479,-4.3479,-4.3479,-4.3479,-4.3479,-4.348,-4.3463,-4.3463,-4.3427,-4.3391,-4.3336,-4.2987,-4.2221,-4.7899,-4.7861,-4.7738,-4.7699,-4.7699,-4.7699,-4.7699,-4.7699,-4.7699,-4.7699,-4.7699,-4.7699,-4.7699,-4.7699,-4.7609,-4.7554,-4.7554,-4.7518,-4.7482,-4.7554,-4.7609,-4.7645,-4.7699,-4.7609,-4.7609,-4.7554,-4.7446,-4.7011,-4.6413,-4.6395,-4.6015,-4.5381,-4.5218,-4.5146,-4.5055,-4.5037,-4.4711,-4.4005,-4.3914,-4.348,-4.2683,-4.1977,-4.1578,-4.1578,-4.0836,-4.0383,-4.042,-4.0329,-4.0293,-4.0275,-4.0293,-4.0311,-4.0311,-4.0365,-4.0401,-4.0401,-4.0492,-4.0492,-4.0564,-4.118,-4.1614,-4.1632,-4.2303,-4.2684,-4.2665,-4.2665,-4.2357,-4.1959,-4.2395,-4.2758,-4.2811,-4.2977,-4.316,-4.3287,-4.3397,-4.3412,-4.3538,-4.3462,-4.3479,-4.3479,-4.3663,-4.3497,-4.3698,-4.3681,-4.3608,-4.3753,-4.3791,-4.3773,-4.3754,-4.3754,-4.3681,-4.3571,-4.3497,-4.3533,-4.3515,-4.3479,-4.3479,-4.3479,-4.3479,-4.3479,-4.3479,-4.3479,-4.3479,-4.3479,-4.3479,-4.3479,-4.348,-4.3445,-4.3411,-4.3429,-4.3358,-4.3251,-4.3232,-4.3212,-4.2828,-4.792,-4.7881,-4.784,-4.7759,-4.7699,-4.7699,-4.7699,-4.7699,-4.7699,-4.7699,-4.7699,-4.7699,-4.7699,-4.7699,-4.7699,-4.7699,-4.7699,-4.7699,-4.7699,-4.7699,-4.7699,-4.7699,-4.7699,-4.7699,-4.7699,-4.7699,-4.7699,-4.7536,-4.7244,-4.7228,-4.6812,-4.6087,-4.6015,-4.578,-4.5345,-4.5291,-4.511,-4.482,-4.4802,-4.4639,-4.4222,-4.3063,-4.2411,-4.2375,-4.2085,-4.1922,-4.1922,-4.1922,-4.1922,-4.1922,-4.1922,-4.1922,-4.1922,-4.1922,-4.1922,-4.1904,-4.1904,-4.1922,-4.1922,-4.2665,-4.3118,-4.3136,-4.386,-4.4313,-4.4331,-4.4313,-4.4168,-4.3914,-4.3754,-4.3826,-4.4224,-4.439,-4.4429,-4.4429,-4.4485,-4.4543,-4.4674,-4.4711,-4.4766,-4.4857,-4.4911,-4.4892,-4.4928,-4.4911,-4.4911,-4.4911,-4.4892,-4.4837,-4.4892,-4.4911,-4.4709,-4.4342,-4.4213,-4.3975,-4.3626,-4.3479,-4.3479,-4.3479,-4.3479,-4.3479,-4.3479,-4.3479,-4.3479,-4.3479,-4.3479,-4.3479,-4.3479,-4.348,-4.3445,-4.341,-4.3394,-4.3323,-4.3304,-4.3286,-4.3122,-4.792,-4.7881,-4.7842,-4.7798,-4.7699,-4.7699,-4.7699,-4.7699,-4.7699,-4.7699,-4.7699,-4.7699,-4.7699,-4.7699,-4.7699,-4.7699,-4.7699,-4.7699,-4.7699,-4.7699,-4.7699,-4.7699,-4.7699,-4.7699,-4.7699,-4.7699,-4.7699,-4.7699,-4.7699,-4.7699,-4.7409,-4.6902,-4.6848,-4.654,-4.6033,-4.5961,-4.5834,-4.5653,-4.5635,-4.5526,-4.5164,-4.4168,-4.3571,-4.3552,-4.3552,-4.3571,-4.3553,-4.3552,-4.3425,-4.3245,-4.3425,-4.3463,-4.3245,-4.3426,-4.3552,-4.3571,-4.3571,-4.3552,-4.3571,-4.4095,-4.4421,-4.4476,-4.5001,-4.5291,-4.5291,-4.5291,-4.5417,-4.5526,-4.5091,-4.5001,-4.5164,-4.5291,-4.5309,-4.5349,-4.5368,-4.5388,-4.5488,-4.5564,-4.5586,-4.5734,-4.5608,-4.5828,-4.5847,-4.581,-4.5755,-4.5792,-4.5828,-4.5902,-4.5902,-4.5828,-4.5626,-4.5131,-4.5039,-4.4599,-4.3736,-4.3479,-4.3479,-4.3479,-4.3479,-4.3479,-4.3479,-4.3497,-4.3463,-4.3445,-4.3445,-4.341,-4.3375,-4.3393,-4.3357,-4.3339,-4.3304,-4.3269,-4.3196,-4.3196,-4.3196,-4.792,-4.7899,-4.7759,-4.7699,-4.7699,-4.7699,-4.7699,-4.7699,-4.7699,-4.7699,-4.7699,-4.7699,-4.7699,-4.7699,-4.7699,-4.7699,-4.7699,-4.7699,-4.7699,-4.7699,-4.7699,-4.7699,-4.7699,-4.7699,-4.7699,-4.7699,-4.7699,-4.7699,-4.7699,-4.7699,-4.7699,-4.7627,-4.7591,-4.7591,-4.7464,-4.7428,-4.7192,-4.6522,-4.645,-4.6124,-4.5472,-4.5273,-4.52,-4.52,-4.5146,-4.5073,-4.511,-4.5164,-4.4802,-4.4079,-4.4693,-4.4784,-4.4204,-4.4729,-4.5091,-4.511,-4.5128,-4.5128,-4.5091,-4.5182,-4.5236,-4.5273,-4.5399,-4.5363,-4.5526,-4.5544,-4.5816,-4.6395,-4.6359,-4.6106,-4.558,-4.5599,-4.5566,-4.5645,-4.5556,-4.5632,-4.5673,-4.5837,-4.5619,-4.573,-4.584,-4.5971,-4.5919,-4.5809,-4.5993,-4.6067,-4.5975,-4.603,-4.614,-4.6049,-4.5975,-4.5902,-4.5755,-4.5314,-4.392,-4.3864,-4.3773,-4.3828,-4.4011,-4.3626,-4.3517,-4.3445,-4.3465,-4.3376,-4.3304,-4.3269,-4.3233,-4.3178,-4.3123,-4.3068,-4.305,-4.3013,-4.3105,-4.3086,-4.3068,-4.7945,-4.7899,-4.7759,-4.7699,-4.7699,-4.7699,-4.7699,-4.7699,-4.7699,-4.7699,-4.7699,-4.7699,-4.7699,-4.7699,-4.7699,-4.7699,-4.7699,-4.7699,-4.7699,-4.7699,-4.7699,-4.7699,-4.7699,-4.7699,-4.7699,-4.7699,-4.7699,-4.7699,-4.7699,-4.7699,-4.7699,-4.7699,-4.7699,-4.7699,-4.7699,-4.7699,-4.7554,-4.7319,-4.7283,-4.7138,-4.6848,-4.6848,-4.6809,-4.6755,-4.5816,-4.5291,-4.5291,-4.5291,-4.5164,-4.4892,-4.5164,-4.5182,-4.4928,-4.5128,-4.5291,-4.5291,-4.5291,-4.5291,-4.5345,-4.5798,-4.6069,-4.6106,-4.6576,-4.6794,-4.6848,-4.6848,-4.6975,-4.7171,-4.7244,-4.7063,-4.6936,-4.683,-4.683,-4.6889,-4.691,-4.6876,-4.6951,-4.703,-4.707,-4.707,-4.7112,-4.7154,-4.7083,-4.7212,-4.7232,-4.7252,-4.7234,-4.7236,-4.731,-4.7291,-4.7034,-4.6707,-4.6579,-4.6212,-4.5095,-4.5004,-4.5057,-4.5057,-4.5039,-4.4709,-4.4507,-4.4253,-4.4217,-4.3779,-4.3524,-4.3379,-4.3433,-4.3196,-4.3086,-4.305,-4.3013,-4.2957,-4.303,-4.303,-4.2994,-4.7907,-4.7822,-4.772,-4.7699,-4.7699,-4.7699,-4.7699,-4.7699,-4.7699,-4.7699,-4.7699,-4.7699,-4.7699,-4.7699,-4.7699,-4.7699,-4.7699,-4.7699,-4.7699,-4.7699,-4.7699,-4.7699,-4.7699,-4.7699,-4.7699,-4.7699,-4.7699,-4.7699,-4.7699,-4.7699,-4.7699,-4.7699,-4.7699,-4.7699,-4.7699,-4.7699,-4.7699,-4.7699,-4.7699,-4.7699,-4.7699,-4.7699,-4.7699,-4.7572,-4.6631,-4.6087,-4.6087,-4.6069,-4.5924,-4.5761,-4.5924,-4.6087,-4.6069,-4.6069,-4.6069,-4.6087,-4.6087,-4.6087,-4.6124,-4.6595,-4.6884,-4.6902,-4.7355,-4.7699,-4.7699,-4.7699,-4.7699,-4.7699,-4.7699,-4.7699,-4.7699,-4.7681,-4.7699,-4.7699,-4.7699,-4.7699,-4.7699,-4.7762,-4.7785,-4.7749,-4.7756,-4.7854,-4.7968,-4.7949,-4.7935,-4.801,-4.7992,-4.8032,-4.809,-4.8034,-4.7866,-4.7414,-4.7324,-4.7104,-4.6554,-4.6484,-4.592,-4.581,-4.5792,-4.5553,-4.5315,-4.5077,-4.4748,-4.4254,-4.3944,-4.3779,-4.356,-4.3305,-4.3196,-4.3196,-4.3031,-4.2957,-4.2975,-4.2938,-4.3029,-4.7819,-4.7717,-4.7699,-4.7699,-4.7699,-4.7699,-4.7699,-4.7699,-4.7699,-4.7699,-4.7699,-4.7699,-4.7699,-4.7699,-4.7699,-4.7699,-4.7699,-4.7699,-4.7699,-4.7699,-4.7699,-4.7699,-4.7699,-4.7699,-4.7699,-4.7699,-4.7699,-4.7699,-4.7699,-4.7699,-4.7699,-4.7699,-4.7699,-4.7699,-4.7699,-4.7699,-4.7699,-4.7699,-4.7699,-4.7699,-4.7699,-4.7699,-4.7699,-4.7699,-4.7572,-4.75,-4.7591,-4.7572,-4.7192,-4.6667,-4.7174,-4.7645,-4.75,-4.75,-4.7609,-4.75,-4.7591,-4.7627,-4.7591,-4.7572,-4.7572,-4.7591,-4.7681,-4.7699,-4.7699,-4.7699,-4.7699,-4.7699,-4.7699,-4.7699,-4.7699,-4.7699,-4.7699,-4.7699,-4.7699,-4.7699,-4.7699,-4.7699,-4.7699,-4.7717,-4.772,-4.7759,-4.7861,-4.7881,-4.7904,-4.7949,-4.7951,-4.799,-4.801,-4.799,-4.7953,-4.7937,-4.7809,-4.7589,-4.7753,-4.7884,-4.7012,-4.6339,-4.6286,-4.6158,-4.5937,-4.5735,-4.5476,-4.5037,-4.4759,-4.4573,-4.4246,-4.3992,-4.3647,-4.3556,-4.33,-4.3319,-4.3481,-4.3608,-4.3281,-4.7738,-4.7699,-4.7699,-4.7699,-4.7699,-4.7699,-4.7699,-4.7717,-4.7699,-4.7699,-4.7699,-4.7699,-4.7699,-4.7717,-4.7699,-4.7717,-4.7699,-4.7699,-4.7699,-4.7699,-4.7699,-4.7699,-4.7699,-4.7699,-4.7699,-4.7699,-4.7699,-4.7699,-4.7699,-4.7699,-4.7699,-4.7699,-4.7699,-4.7699,-4.7699,-4.7699,-4.7699,-4.7699,-4.7699,-4.7699,-4.7699,-4.7699,-4.7699,-4.7699,-4.7699,-4.7699,-4.7699,-4.7699,-4.7572,-4.7319,-4.7572,-4.7699,-4.7699,-4.7699,-4.7699,-4.7699,-4.7699,-4.7699,-4.7699,-4.7699,-4.7699,-4.7699,-4.7699,-4.7699,-4.7699,-4.7699,-4.7699,-4.7699,-4.7699,-4.7699,-4.7699,-4.7699,-4.7699,-4.7699,-4.7699,-4.7699,-4.7699,-4.7699,-4.7699,-4.7699,-4.7699,-4.7738,-4.7759,-4.7759,-4.778,-4.7785,-4.7806,-4.7824,-4.7904,-4.7866,-4.7845,-4.7886,-4.7904,-4.7886,-4.7868,-4.7888,-4.7494,-4.7044,-4.6976,-4.6815,-4.6631,-4.6444,-4.6184,-4.5886,-4.5624,-4.5311,-4.4983,-4.4639,-4.4313,-4.4367,-4.444,-4.4494,-4.453,-4.4349,-4.4023,-4.7699,-4.7714,-4.8004,-4.8131,-4.8185,-4.8442,-4.8586,-4.8586,-4.8586,-4.8605,-4.8605,-4.8605,-4.8605,-4.8532,-4.8297,-4.8131,-4.8113,-4.7859,-4.7699,-4.7699,-4.7699,-4.7699,-4.7699,-4.7699,-4.7699,-4.7699,-4.7699,-4.7699,-4.7699,-4.7699,-4.7699,-4.7699,-4.7699,-4.7699,-4.7699,-4.7699,-4.7699,-4.7699,-4.7699,-4.7699,-4.7699,-4.7699,-4.7699,-4.7699,-4.7699,-4.7699,-4.7699,-4.7699,-4.7699,-4.7699,-4.7699,-4.7699,-4.7699,-4.7699,-4.7699,-4.7699,-4.7699,-4.7699,-4.7699,-4.7699,-4.7699,-4.7699,-4.7699,-4.7699,-4.7699,-4.7699,-4.7699,-4.7699,-4.7699,-4.7699,-4.7699,-4.7699,-4.7699,-4.7699,-4.7699,-4.7699,-4.7699,-4.7699,-4.7699,-4.7699,-4.7699,-4.7699,-4.7699,-4.7699,-4.7699,-4.7699,-4.7699,-4.7717,-4.778,-4.7741,-4.778,-4.7801,-4.7801,-4.778,-4.772,-4.7783,-4.7845,-4.7761,-4.7713,-4.7538,-4.7338,-4.7221,-4.7032,-4.6662,-4.6361,-4.6015,-4.5689,-4.5291,-4.4965,-4.5273,-4.5436,-4.5146,-4.4965,-4.5037,-4.482,-4.7862,-4.7935,-4.8637,-4.8945,-4.9054,-4.9673,-4.9912,-5.0021,-5.0003,-4.993,-4.9985,-4.9876,-4.9967,-4.9854,-4.9238,-4.8985,-4.884,-4.8206,-4.7898,-4.7862,-4.779,-4.7699,-4.7699,-4.7699,-4.7699,-4.7699,-4.7699,-4.7699,-4.7699,-4.7699,-4.7699,-4.7699,-4.7699,-4.7699,-4.7699,-4.7699,-4.7699,-4.7699,-4.7699,-4.7699,-4.7699,-4.7699,-4.7699,-4.7699,-4.7699,-4.7699,-4.7699,-4.7699,-4.7699,-4.7699,-4.7699,-4.7699,-4.7699,-4.7699,-4.7699,-4.7699,-4.7699,-4.7699,-4.7699,-4.7699,-4.7699,-4.7699,-4.7699,-4.7699,-4.7699,-4.7699,-4.7699,-4.7699,-4.7699,-4.7699,-4.7699,-4.7699,-4.7699,-4.7699,-4.7699,-4.7699,-4.7699,-4.7699,-4.7699,-4.7699,-4.7699,-4.7699,-4.7699,-4.7699,-4.7699,-4.7699,-4.7699,-4.7717,-4.7717,-4.7699,-4.7699,-4.7717,-4.7738,-4.7738,-4.7699,-4.772,-4.7783,-4.7804,-4.7845,-4.7777,-4.7729,-4.7647,-4.7625,-4.727,-4.7014,-4.6685,-4.6468,-4.6124,-4.5906,-4.5997,-4.5888,-4.5508,-4.5562,-4.5834,-4.5707,-4.9456,-4.9492,-4.9691,-4.9782,-4.98,-5.0017,-5.0148,-5.0112,-5.0148,-5.0238,-5.0148,-5.0112,-5.0202,-5.0093,-4.9927,-4.98,-4.9582,-4.8949,-4.8565,-4.8475,-4.7932,-4.7735,-4.7699,-4.7699,-4.7699,-4.7699,-4.7699,-4.7699,-4.7699,-4.7699,-4.7699,-4.7699,-4.7699,-4.7699,-4.7699,-4.7699,-4.7699,-4.7699,-4.7699,-4.7699,-4.7699,-4.7699,-4.7699,-4.7699,-4.7699,-4.7699,-4.7699,-4.7699,-4.7699,-4.7699,-4.7699,-4.7699,-4.7699,-4.7699,-4.7699,-4.7699,-4.7699,-4.7699,-4.7699,-4.7699,-4.7699,-4.7699,-4.7699,-4.7699,-4.7699,-4.7699,-4.7699,-4.7699,-4.7699,-4.7699,-4.7699,-4.7699,-4.7699,-4.7699,-4.7699,-4.7699,-4.7699,-4.7699,-4.7699,-4.7699,-4.7699,-4.7699,-4.7699,-4.7699,-4.7699,-4.7699,-4.7699,-4.7699,-4.7699,-4.7699,-4.7699,-4.7699,-4.7717,-4.7717,-4.7699,-4.7699,-4.7699,-4.772,-4.7741,-4.7741,-4.771,-4.7689,-4.7666,-4.7572,-4.7428,-4.7156,-4.7283,-4.721,-4.7065,-4.6721,-4.6794,-4.6685,-4.692,-4.7138,-4.6721,-5.0112,-5.0148,-5.0474,-5.0619,-5.0651,-5.0959,-5.1104,-5.1086,-5.1104,-5.1126,-5.1126,-5.1086,-5.1126,-5.1086,-5.0782,-5.0597,-5.051,-4.9764,-4.9438,-4.9275,-4.8605,-4.8079,-4.7808,-4.7699,-4.7699,-4.7699,-4.7699,-4.7699,-4.7699,-4.7699,-4.7699,-4.7699,-4.7699,-4.7699,-4.7699,-4.7699,-4.7699,-4.7699,-4.7699,-4.7699,-4.7699,-4.7699,-4.7699,-4.7699,-4.7699,-4.7699,-4.7699,-4.7699,-4.7699,-4.7699,-4.7699,-4.7699,-4.7699,-4.7699,-4.7699,-4.7699,-4.7699,-4.7699,-4.7699,-4.7699,-4.7699,-4.7699,-4.7699,-4.7699,-4.7699,-4.7699,-4.7699,-4.7699,-4.7699,-4.7699,-4.7699,-4.7699,-4.7699,-4.7699,-4.7699,-4.7699,-4.7699,-4.7699,-4.7699,-4.7699,-4.7699,-4.7699,-4.7699,-4.7699,-4.7699,-4.7699,-4.7699,-4.7699,-4.7699,-4.7699,-4.7699,-4.7699,-4.7699,-4.7699,-4.7699,-4.7699,-4.7699,-4.7699,-4.7699,-4.7699,-4.7699,-4.7699,-4.7699,-4.7699,-4.7699,-4.7699,-4.7699,-4.7699,-4.7554,-4.7409,-4.7681,-4.7699,-4.7699,-4.7699,-4.7355,-5.0365,-5.042,-5.1122,-5.1411,-5.152,-5.2172,-5.2317,-5.2444,-5.2335,-5.2353,-5.2335,-5.2444,-5.2263,-5.2462,-5.1647,-5.1411,-5.1375,-5.0578,-5.018,-4.9854,-4.9311,-4.8749,-4.8242,-4.7826,-4.7735,-4.7699,-4.7699,-4.7699,-4.7699,-4.7699,-4.7699,-4.7699,-4.7699,-4.7699,-4.7699,-4.7699,-4.7699,-4.7699,-4.7699,-4.7699,-4.7699,-4.7699,-4.7699,-4.7699,-4.7699,-4.7699,-4.7699,-4.7699,-4.7699,-4.7699,-4.7699,-4.7699,-4.7699,-4.7699,-4.7699,-4.7699,-4.7699,-4.7699,-4.7699,-4.7699,-4.7699,-4.7699,-4.7699,-4.7699,-4.7699,-4.7699,-4.7699,-4.7699,-4.7699,-4.7699,-4.7699,-4.7699,-4.7699,-4.7699,-4.7699,-4.7699,-4.7699,-4.7699,-4.7699,-4.7699,-4.7699,-4.7699,-4.7699,-4.7699,-4.7699,-4.7699,-4.7699,-4.7699,-4.7699,-4.7699,-4.7699,-4.7699,-4.7699,-4.7699,-4.7699,-4.7699,-4.7699,-4.7699,-4.7699,-4.7699,-4.7699,-4.7699,-4.7699,-4.7699,-4.7699,-4.7699,-4.7699,-4.7699,-4.7699,-4.7699,-4.7699,-4.7699,-4.7699,-4.7699,-4.75,-5.1991,-5.1991,-5.2154,-5.2245,-5.2263,-5.2426,-5.2498,-5.2498,-5.2498,-5.2498,-5.2498,-5.2498,-5.2498,-5.248,-5.2263,-5.2245,-5.2082,-5.1375,-5.0723,-5.0071,-4.9985,-4.9782,-4.9275,-4.846,-4.779,-4.7772,-4.7717,-4.7717,-4.7717,-4.7699,-4.7699,-4.7699,-4.7699,-4.7699,-4.7699,-4.7699,-4.7699,-4.7699,-4.7699,-4.7699,-4.7699,-4.7699,-4.7699,-4.7699,-4.7699,-4.7699,-4.7699,-4.7699,-4.7699,-4.7699,-4.7699,-4.7699,-4.7699,-4.7699,-4.7699,-4.7699,-4.7699,-4.7699,-4.7699,-4.7699,-4.7699,-4.7699,-4.7699,-4.7699,-4.7699,-4.7699,-4.7699,-4.7699,-4.7699,-4.7699,-4.7699,-4.7699,-4.7699,-4.7699,-4.7699,-4.7699,-4.7699,-4.7699,-4.7699,-4.7699,-4.7699,-4.7699,-4.7699,-4.7699,-4.7699,-4.7699,-4.7699,-4.7699,-4.7699,-4.7699,-4.7699,-4.7699,-4.7699,-4.7699,-4.7699,-4.7699,-4.7699,-4.7699,-4.7699,-4.7699,-4.7699,-4.7699,-4.7699,-4.7699,-4.7699,-4.7699,-4.7699,-4.7699,-4.7699,-4.7699,-4.7699,-4.7699,-4.7699,-4.7699,-4.7699,-5.2498,-5.2498,-5.2498,-5.2498,-5.2498,-5.2498,-5.2498,-5.2498,-5.2498,-5.2498,-5.2498,-5.2498,-5.2498,-5.2498,-5.2498,-5.248,-5.2408,-5.2082,-5.1647,-5.1194,-5.0904,-5.0673,-5.0434,-4.9474,-4.8695,-4.8369,-4.8297,-4.8094,-4.7826,-4.7753,-4.7699,-4.7699,-4.7717,-4.7699,-4.7699,-4.7699,-4.7699,-4.7699,-4.7699,-4.7699,-4.7699,-4.7699,-4.7699,-4.7699,-4.7699,-4.7699,-4.7699,-4.7699,-4.7699,-4.7699,-4.7699,-4.7699,-4.7699,-4.7699,-4.7699,-4.7699,-4.7699,-4.7699,-4.7699,-4.7699,-4.7699,-4.7699,-4.7699,-4.7699,-4.7699,-4.7699,-4.7699,-4.7699,-4.7699,-4.7699,-4.7699,-4.7699,-4.7699,-4.7699,-4.7699,-4.7699,-4.7699,-4.7699,-4.7699,-4.7699,-4.7699,-4.7699,-4.7699,-4.7699,-4.7699,-4.7699,-4.7699,-4.7699,-4.7699,-4.7699,-4.7699,-4.7699,-4.7699,-4.7699,-4.7699,-4.7699,-4.7699,-4.7699,-4.7699,-4.7699,-4.7699,-4.7699,-4.7699,-4.7699,-4.7699,-4.7699,-4.7699,-4.7699,-4.7699,-4.7699,-4.7699,-4.7699,-4.7699,-4.7699,-4.7699,-5.2498,-5.2498,-5.2498,-5.2498,-5.2498,-5.2498,-5.2498,-5.2498,-5.2498,-5.2498,-5.2498,-5.2498,-5.2498,-5.2498,-5.2498,-5.2498,-5.248,-5.248,-5.2245,-5.2154,-5.1701,-5.1502,-5.1267,-5.076,-5.0071,-4.9347,-4.9148,-4.8749,-4.8369,-4.8079,-4.8387,-4.8134,-4.7935,-4.8025,-4.7953,-4.7735,-4.7699,-4.7699,-4.7699,-4.7699,-4.7699,-4.7699,-4.7699,-4.7699,-4.7699,-4.7699,-4.7699,-4.7699,-4.7699,-4.7699,-4.7699,-4.7699,-4.7699,-4.7699,-4.7699,-4.7699,-4.7699,-4.7699,-4.7699,-4.7699,-4.7699,-4.7699,-4.7699,-4.7699,-4.7699,-4.7699,-4.7699,-4.7699,-4.7699,-4.7699,-4.7699,-4.7699,-4.7699,-4.7699,-4.7699,-4.7699,-4.7699,-4.7699,-4.7699,-4.7699,-4.7699,-4.7699,-4.7699,-4.7699,-4.7699,-4.7699,-4.7699,-4.7699,-4.7699,-4.7699,-4.7699,-4.7699,-4.7699,-4.7699,-4.7699,-4.7699,-4.7699,-4.7699,-4.7699,-4.7699,-4.7699,-4.7699,-4.7699,-4.7699,-4.7699,-4.7699,-4.7699,-4.7699,-4.7699,-4.7699,-4.7699,-4.7699,-4.7699,-4.7699,-4.7678,-5.2498,-5.2498,-5.2498,-5.2498,-5.2498,-5.2498,-5.248,-5.2498,-5.2462,-5.2498,-5.2462,-5.2498,-5.2498,-5.2498,-5.2498,-5.2498,-5.2498,-5.2498,-5.2498,-5.2498,-5.2245,-5.219,-5.2082,-5.19,-5.1484,-5.0904,-5.0343,-4.9854,-4.9619,-4.9713,-4.942,-4.9456,-4.9003,-4.8692,-4.8532,-4.8134,-4.7935,-4.7989,-4.7898,-4.7844,-4.7826,-4.7826,-4.7826,-4.7862,-4.7935,-4.7898,-4.7772,-4.7735,-4.7699,-4.7699,-4.7699,-4.7735,-4.7844,-4.7844,-4.7772,-4.7699,-4.7699,-4.7699,-4.7699,-4.7699,-4.7699,-4.7699,-4.7772,-4.7772,-4.7753,-4.7808,-4.8007,-4.7862,-4.7808,-4.7696,-4.7699,-4.7735,-4.7699,-4.7699,-4.7699,-4.7699,-4.7699,-4.7699,-4.7699,-4.7699,-4.7699,-4.7699,-4.7699,-4.7699,-4.7699,-4.7699,-4.7699,-4.7699,-4.7699,-4.7699,-4.7699,-4.7699,-4.7699,-4.7699,-4.7699,-4.7699,-4.7699,-4.7699,-4.7699,-4.7699,-4.7699,-4.7699,-4.7699,-4.7699,-4.7699,-4.7699,-4.7699,-4.7699,-4.7699,-4.7699,-4.7699,-4.7699,-4.7699,-4.7678,-4.7636,-5.2498,-5.2498,-5.2498,-5.2498,-5.2498,-5.2498,-5.2245,-5.1973,-5.2281,-5.2245,-5.21,-5.2281,-5.2498,-5.2498,-5.2498,-5.2498,-5.2498,-5.2498,-5.2498,-5.2498,-5.2498,-5.2498,-5.2498,-5.2498,-5.2281,-5.1882,-5.1484,-5.0818,-5.0166,-5.0075,-5.0202,-5.0021,-4.9673,-4.9528,-4.9474,-4.9202,-4.8912,-4.8858,-4.855,-4.8312,-4.8312,-4.8312,-4.8333,-4.8405,-4.8677,-4.8713,-4.8369,-4.8312,-4.8568,-4.8713,-4.817,-4.8279,-4.855,-4.8514,-4.8131,-4.7862,-4.7772,-4.7735,-4.7717,-4.7699,-4.7699,-4.7753,-4.8061,-4.8294,-4.846,-4.8695,-4.884,-4.8731,-4.7953,-4.7877,-4.8297,-4.7989,-4.7735,-4.7699,-4.7753,-4.7772,-4.7717,-4.7735,-4.7735,-4.7735,-4.7699,-4.7699,-4.7699,-4.7699,-4.7699,-4.7699,-4.7699,-4.7699,-4.7699,-4.7699,-4.7699,-4.7699,-4.7699,-4.7699,-4.7699,-4.7699,-4.7699,-4.7699,-4.7699,-4.7699,-4.7699,-4.7699,-4.7699,-4.7699,-4.7699,-4.7699,-4.7699,-4.7699,-4.7699,-4.7699,-4.7699,-4.7699,-4.7699,-4.7678,-4.7572,-5.2498,-5.2498,-5.2498,-5.2498,-5.2498,-5.2498,-5.2045,-5.1556,-5.2172,-5.2063,-5.1466,-5.21,-5.2498,-5.2498,-5.2498,-5.2498,-5.2498,-5.2498,-5.2498,-5.2498,-5.2498,-5.2498,-5.2498,-5.2498,-5.2444,-5.2371,-5.2299,-5.1828,-5.1013,-5.08,-5.0673,-5.0691,-5.0542,-5.0347,-5.0311,-5.0003,-5.0184,-4.9908,-4.9546,-4.9144,-4.9126,-4.9148,-4.9148,-4.9166,-4.9764,-4.9709,-4.922,-4.9148,-4.9401,-4.9474,-4.9094,-4.8804,-4.9731,-4.9474,-4.8837,-4.8294,-4.8188,-4.8188,-4.8242,-4.8297,-4.8442,-4.8496,-4.884,-4.9075,-4.9238,-4.9546,-4.9967,-4.9858,-4.9166,-4.8532,-4.8985,-4.8605,-4.8333,-4.8297,-4.8315,-4.817,-4.8098,-4.8022,-4.7916,-4.7862,-4.7753,-4.7699,-4.7699,-4.7699,-4.7699,-4.7699,-4.7699,-4.7699,-4.7699,-4.7699,-4.7699,-4.7699,-4.7699,-4.7699,-4.7699,-4.7699,-4.7699,-4.7699,-4.7699,-4.7699,-4.7699,-4.7699,-4.7699,-4.7699,-4.7699,-4.7699,-4.7699,-4.7699,-4.7699,-4.7699,-4.7699,-4.7699,-4.7717,-4.7554,-4.7385,-5.2498,-5.2498,-5.2498,-5.2498,-5.2498,-5.2498,-5.2045,-5.1448,-5.2154,-5.2045,-5.1362,-5.2118,-5.2498,-5.2498,-5.2498,-5.2498,-5.2498,-5.2498,-5.2498,-5.2498,-5.2498,-5.2498,-5.2498,-5.2498,-5.2498,-5.2498,-5.2498,-5.2444,-5.1991,-5.1955,-5.2082,-5.1919,-5.1393,-5.1158,-5.1126,-5.0728,-5.013,-5.0148,-5.0035,-4.9945,-4.9967,-4.9945,-4.9945,-5.0021,-5.0166,-5.0184,-5.0017,-4.9945,-5.013,-5.0166,-5.0003,-4.9894,-5.0075,-5.0053,-4.9927,-4.984,-4.9822,-4.9804,-4.9695,-4.9568,-4.9528,-4.951,-4.9836,-4.9927,-5.0108,-5.009,-5.0275,-5.0112,-4.9782,-4.9745,-4.9854,-4.9822,-4.9785,-4.9637,-4.9456,-4.9184,-4.8949,-4.842,-4.8275,-4.8007,-4.7898,-4.7772,-4.7699,-4.7699,-4.7699,-4.7699,-4.7699,-4.7699,-4.7699,-4.7699,-4.7699,-4.7699,-4.7699,-4.7699,-4.7699,-4.7699,-4.7678,-4.7678,-4.7699,-4.7699,-4.7699,-4.7699,-4.7699,-4.7699,-4.7699,-4.7699,-4.7699,-4.7699,-4.7699,-4.7657,-4.7593,-4.7636,-4.7696,-4.749,-4.7191,-5.2498,-5.2498,-5.2498,-5.2498,-5.2498,-5.2498,-5.2045,-5.1574,-5.2136,-5.2045,-5.1556,-5.2136,-5.2498,-5.2498,-5.2498,-5.2498,-5.2498,-5.2498,-5.2498,-5.2498,-5.2498,-5.2498,-5.2498,-5.2498,-5.2498,-5.2498,-5.2498,-5.2498,-5.2498,-5.2498,-5.2498,-5.2426,-5.2172,-5.1973,-5.1882,-5.1611,-5.1543,-5.1398,-5.109,-5.0796,-5.08,-5.08,-5.0778,-5.0796,-5.1176,-5.1122,-5.0873,-5.08,-5.1072,-5.1126,-5.0782,-5.0615,-5.1049,-5.1104,-5.0927,-5.1488,-5.147,-5.1036,-5.0257,-5.0184,-5.022,-5.0311,-5.0546,-5.0977,-5.1194,-5.1031,-5.1013,-5.1448,-5.0578,-5.0383,-5.0565,-5.0347,-5.0184,-5.0148,-5.0365,-5.0075,-4.9619,-4.9072,-4.8674,-4.8348,-4.804,-4.7971,-4.7844,-4.7735,-4.7717,-4.7699,-4.7699,-4.7699,-4.7699,-4.7699,-4.7699,-4.7699,-4.7699,-4.7699,-4.7699,-4.7699,-4.7657,-4.7657,-4.7696,-4.7696,-4.7699,-4.7699,-4.7699,-4.7699,-4.7699,-4.7699,-4.7699,-4.7699,-4.7699,-4.7593,-4.7468,-4.7425,-4.7363,-4.7214,-4.6908,-5.2299,-5.2498,-5.2498,-5.2498,-5.2498,-5.2498,-5.2045,-5.143,-5.2136,-5.2045,-5.1665,-5.21,-5.2498,-5.2498,-5.2498,-5.2498,-5.2498,-5.2498,-5.2498,-5.2498,-5.2498,-5.2498,-5.2498,-5.2498,-5.2498,-5.2498,-5.2498,-5.2498,-5.2498,-5.2498,-5.2498,-5.2498,-5.2426,-5.2426,-5.2462,-5.2353,-5.2281,-5.2245,-5.1828,-5.1611,-5.1593,-5.1593,-5.1593,-5.1756,-5.2045,-5.2208,-5.1701,-5.1593,-5.1973,-5.1991,-5.1484,-5.1411,-5.2027,-5.1882,-5.1792,-5.2172,-5.2245,-5.1882,-5.1217,-5.0927,-5.0709,-5.0891,-5.1144,-5.1792,-5.2154,-5.19,-5.1719,-5.2263,-5.1556,-5.123,-5.1303,-5.1072,-5.1013,-5.0941,-5.0909,-5.0655,-5.0401,-5.0017,-4.9546,-4.9112,-4.8749,-4.8239,-4.8098,-4.7844,-4.7753,-4.7717,-4.7699,-4.7699,-4.7699,-4.7699,-4.7699,-4.7699,-4.7699,-4.7699,-4.7699,-4.7678,-4.7657,-4.7575,-4.7615,-4.7572,-4.749,-4.7615,-4.7699,-4.7699,-4.7699,-4.7699,-4.7699,-4.7699,-4.7678,-4.7575,-4.7407,-4.7107,-4.6972,-4.6817,-4.6566,-5.1828,-5.2498,-5.2498,-5.2498,-5.2498,-5.2498,-5.2027,-5.1466,-5.2172,-5.2063,-5.1574,-5.2082,-5.2498,-5.2498,-5.2498,-5.2498,-5.2498,-5.2498,-5.2498,-5.2498,-5.2498,-5.2498,-5.2498,-5.2498,-5.2498,-5.2498,-5.2498,-5.2498,-5.2498,-5.2498,-5.2498,-5.2498,-5.2498,-5.2498,-5.2498,-5.2498,-5.2498,-5.248,-5.2281,-5.2281,-5.2281,-5.2299,-5.2299,-5.2317,-5.2426,-5.2444,-5.2408,-5.2299,-5.2299,-5.248,-5.2154,-5.2009,-5.2353,-5.2317,-5.2371,-5.2426,-5.2498,-5.2245,-5.1991,-5.1937,-5.219,-5.2281,-5.2299,-5.2299,-5.2444,-5.248,-5.2462,-5.2462,-5.2009,-5.21,-5.2245,-5.2299,-5.1937,-5.1846,-5.1647,-5.1502,-5.1339,-5.1194,-5.0687,-5.0053,-4.9492,-4.8985,-4.8586,-4.8387,-4.7844,-4.7772,-4.7717,-4.7699,-4.7699,-4.7699,-4.7699,-4.7699,-4.7699,-4.7699,-4.7699,-4.7657,-4.7593,-4.7407,-4.7341,-4.7236,-4.7107,-4.728,-4.7511,-4.7699,-4.7699,-4.7699,-4.7699,-4.7699,-4.7657,-4.7575,-4.7323,-4.6817,-4.6424,-4.6165,-4.5918,-5.1774,-5.248,-5.2498,-5.2498,-5.2498,-5.2498,-5.2317,-5.2118,-5.2353,-5.2353,-5.2027,-5.2353,-5.2498,-5.2498,-5.2498,-5.2498,-5.2498,-5.2498,-5.2498,-5.2498,-5.2498,-5.2498,-5.2498,-5.2498,-5.2498,-5.2498,-5.2498,-5.2498,-5.2498,-5.2498,-5.2498,-5.2498,-5.2498,-5.2498,-5.2498,-5.2498,-5.2498,-5.2498,-5.2498,-5.2498,-5.2498,-5.2498,-5.2498,-5.2498,-5.2498,-5.2498,-5.248,-5.248,-5.2498,-5.2498,-5.2498,-5.2498,-5.2498,-5.2498,-5.2498,-5.2498,-5.2498,-5.2498,-5.2498,-5.2498,-5.2498,-5.2498,-5.248,-5.2498,-5.2498,-5.2498,-5.2498,-5.2498,-5.2498,-5.2498,-5.248,-5.2462,-5.2389,-5.2462,-5.2408,-5.2245,-5.21,-5.19,-5.1629,-5.0868,-5.0234,-4.9673,-4.9311,-4.8967,-4.8351,-4.7826,-4.7753,-4.7699,-4.7699,-4.7699,-4.7699,-4.7699,-4.7699,-4.7699,-4.7699,-4.7615,-4.749,-4.7258,-4.7062,-4.6908,-4.6794,-4.6931,-4.7151,-4.7428,-4.7636,-4.7554,-4.7554,-4.7657,-4.7575,-4.7323,-4.6863,-4.6286,-4.5918,-4.558,-4.5372,-5.1538,-5.2444,-5.2498,-5.2498,-5.2498,-5.2498,-5.2498,-5.2498,-5.248,-5.2498,-5.2498,-5.2498,-5.2498,-5.2498,-5.2498,-5.2498,-5.2498,-5.2498,-5.2498,-5.2498,-5.2498,-5.2498,-5.2498,-5.2498,-5.2498,-5.2498,-5.2498,-5.2498,-5.2498,-5.2498,-5.2498,-5.2498,-5.2498,-5.2498,-5.2498,-5.2498,-5.2498,-5.2498,-5.2498,-5.2498,-5.2498,-5.2498,-5.2498,-5.2498,-5.2498,-5.2498,-5.2498,-5.2498,-5.2498,-5.2498,-5.2498,-5.2498,-5.2498,-5.2498,-5.2498,-5.2498,-5.2498,-5.2498,-5.2498,-5.2498,-5.2498,-5.2498,-5.2498,-5.2498,-5.2498,-5.2498,-5.2498,-5.2498,-5.2498,-5.2498,-5.2498,-5.2498,-5.2498,-5.2498,-5.2498,-5.2371,-5.2389,-5.2245,-5.2045,-5.1665,-5.1049,-5.0416,-4.9945,-4.9488,-4.8529,-4.7968,-4.7753,-4.7699,-4.7699,-4.7699,-4.7699,-4.7699,-4.7699,-4.7699,-4.7678,-4.7615,-4.7446,-4.6863,-4.666,-4.6548,-4.6501,-4.6595,-4.6683,-4.6817,-4.7017,-4.7258,-4.7258,-4.7129,-4.7044,-4.6976,-4.6382,-4.5742,-4.5381,-4.5052,-4.5025,-5.1049,-5.2426,-5.248,-5.2498,-5.2498,-5.2498,-5.2498,-5.2498,-5.2498,-5.2498,-5.2498,-5.2498,-5.2498,-5.2498,-5.2498,-5.2498,-5.2498,-5.2498,-5.2498,-5.2498,-5.2498,-5.2498,-5.2498,-5.2498,-5.2498,-5.2498,-5.2498,-5.2498,-5.2498,-5.2498,-5.2498,-5.2498,-5.2498,-5.2498,-5.2498,-5.2498,-5.2498,-5.2498,-5.2498,-5.2498,-5.2498,-5.2498,-5.2498,-5.2498,-5.2498,-5.2498,-5.2498,-5.2498,-5.2498,-5.2498,-5.2498,-5.2498,-5.2498,-5.2498,-5.2498,-5.2498,-5.2498,-5.2498,-5.2498,-5.2498,-5.2498,-5.2498,-5.2498,-5.2498,-5.2498,-5.2498,-5.2498,-5.2498,-5.2498,-5.2498,-5.2498,-5.2498,-5.2498,-5.2498,-5.2498,-5.2498,-5.2498,-5.248,-5.2263,-5.2136,-5.1701,-5.1176,-5.0669,-4.9995,-4.8833,-4.8146,-4.7823,-4.7699,-4.7717,-4.7699,-4.7717,-4.7699,-4.7699,-4.7699,-4.7678,-4.7636,-4.7363,-4.6707,-4.6244,-4.6098,-4.6,-4.6017,-4.6091,-4.6213,-4.6448,-4.6707,-4.6637,-4.6484,-4.643,-4.6286,-4.5767,-4.5232,-4.4841,-4.4654,-4.4692,-5.0705,-5.1737,-5.2263,-5.2498,-5.2498,-5.2498,-5.2498,-5.2498,-5.2498,-5.2498,-5.2498,-5.2498,-5.2498,-5.2498,-5.2498,-5.2498,-5.2498,-5.2498,-5.2498,-5.2498,-5.2498,-5.2498,-5.2498,-5.2498,-5.2498,-5.2498,-5.2498,-5.2498,-5.2498,-5.2498,-5.2498,-5.2498,-5.2498,-5.2498,-5.2498,-5.2498,-5.2498,-5.2498,-5.2498,-5.2498,-5.2498,-5.2498,-5.2498,-5.2498,-5.2498,-5.2498,-5.2498,-5.2498,-5.2498,-5.2498,-5.2498,-5.2498,-5.2498,-5.2498,-5.2498,-5.2498,-5.2498,-5.2498,-5.2498,-5.2498,-5.2498,-5.2498,-5.2498,-5.2498,-5.2498,-5.2498,-5.2498,-5.2498,-5.2498,-5.2498,-5.2498,-5.2498,-5.2498,-5.2498,-5.2498,-5.2498,-5.2498,-5.2498,-5.2408,-5.2389,-5.2118,-5.166,-5.1149,-5.0433,-4.9379,-4.8519,-4.8141,-4.7795,-4.7732,-4.7696,-4.7696,-4.7699,-4.7699,-4.7699,-4.7657,-4.7385,-4.7062,-4.6454,-4.5925,-4.5571,-4.5494,-4.5477,-4.5665,-4.5885,-4.6017,-4.614,-4.6067,-4.5943,-4.5792,-4.5537,-4.5152,-4.4944,-4.4748,-4.4598,-4.4553,-5.056,-5.1357,-5.2154,-5.2498,-5.2498,-5.2498,-5.2498,-5.2498,-5.2498,-5.2498,-5.2498,-5.2498,-5.2498,-5.2498,-5.2498,-5.2498,-5.2498,-5.2498,-5.2498,-5.2498,-5.2498,-5.2498,-5.2498,-5.2498,-5.2498,-5.2498,-5.2498,-5.2498,-5.2498,-5.2498,-5.2498,-5.2498,-5.2498,-5.2498,-5.2498,-5.2498,-5.2498,-5.2498,-5.2498,-5.2498,-5.2498,-5.2498,-5.2498,-5.2498,-5.2498,-5.2498,-5.2498,-5.2498,-5.2498,-5.2498,-5.2498,-5.2498,-5.2498,-5.2498,-5.2498,-5.2498,-5.2498,-5.2498,-5.2498,-5.2498,-5.2498,-5.2498,-5.2498,-5.2498,-5.2498,-5.2498,-5.2498,-5.2498,-5.2498,-5.2498,-5.2498,-5.2498,-5.2498,-5.2498,-5.2498,-5.2498,-5.2498,-5.2498,-5.2498,-5.2498,-5.2379,-5.1935,-5.147,-5.0767,-4.9907,-4.9144,-4.8476,-4.8106,-4.7749,-4.7698,-4.7562,-4.7407,-4.7407,-4.7341,-4.7151,-4.6886,-4.6525,-4.6147,-4.5699,-4.5224,-4.5045,-4.5052,-4.5302,-4.5494,-4.5442,-4.5416,-4.5477,-4.5399,-4.532,-4.5098,-4.4752,-4.462,-4.4598,-4.4525,-4.4468,-5.0546,-5.1321,-5.2154,-5.2498,-5.2498,-5.2498,-5.2498,-5.2498,-5.2498,-5.2498,-5.2498,-5.2498,-5.2498,-5.2498,-5.2498,-5.2498,-5.2498,-5.2498,-5.2498,-5.2498,-5.2498,-5.2498,-5.2498,-5.2498,-5.2498,-5.2498,-5.2498,-5.2498,-5.2498,-5.2498,-5.2498,-5.2498,-5.2498,-5.2498,-5.2498,-5.2498,-5.2498,-5.2498,-5.2498,-5.2498,-5.2498,-5.2498,-5.2498,-5.2498,-5.2498,-5.2498,-5.2498,-5.2498,-5.2498,-5.2498,-5.2498,-5.2498,-5.2498,-5.2498,-5.2498,-5.2498,-5.2498,-5.2498,-5.2498,-5.2498,-5.2498,-5.2498,-5.2498,-5.2498,-5.2498,-5.2498,-5.2498,-5.2498,-5.2498,-5.2498,-5.2498,-5.2498,-5.2498,-5.2498,-5.2498,-5.2498,-5.2498,-5.2498,-5.2498,-5.2457,-5.2364,-5.2029,-5.1549,-5.0884,-5.0026,-4.946,-4.8767,-4.8311,-4.7961,-4.7608,-4.7393,-4.6886,-4.6886,-4.6886,-4.666,-4.6382,-4.6123,-4.58,-4.5381,-4.4964,-4.4797,-4.4637,-4.4824,-4.4889,-4.4703,-4.4703,-4.4835,-4.4899,-4.491,-4.4642,-4.4423,-4.4412,-4.44,-4.444,-4.4412,-5.0257,-5.0578,-5.1919,-5.2498,-5.2498,-5.2498,-5.2498,-5.2498,-5.2498,-5.2498,-5.2498,-5.2498,-5.2498,-5.2498,-5.2498,-5.2498,-5.2498,-5.2498,-5.2498,-5.2498,-5.2498,-5.2498,-5.2498,-5.2498,-5.2498,-5.2498,-5.2498,-5.2498,-5.2498,-5.2498,-5.2498,-5.2498,-5.2498,-5.2498,-5.2498,-5.2498,-5.2498,-5.2498,-5.2498,-5.2498,-5.2498,-5.2498,-5.2498,-5.2498,-5.2498,-5.2498,-5.2498,-5.2498,-5.2498,-5.2498,-5.2498,-5.2498,-5.2498,-5.2498,-5.2498,-5.2498,-5.2498,-5.2498,-5.2498,-5.2498,-5.2498,-5.2498,-5.2498,-5.2498,-5.2498,-5.2498,-5.2498,-5.2498,-5.2498,-5.2498,-5.2498,-5.2498,-5.2498,-5.2498,-5.2498,-5.2498,-5.2498,-5.2498,-5.2475,-5.2275,-5.2186,-5.1793,-5.1335,-5.0673,-4.9883,-4.9491,-4.9056,-4.8548,-4.8091,-4.7689,-4.724,-4.6724,-4.6334,-4.6334,-4.6165,-4.5893,-4.5673,-4.5433,-4.5028,-4.4708,-4.4519,-4.444,-4.4412,-4.4412,-4.4412,-4.4327,-4.427,-4.4378,-4.453,-4.4406,-4.4184,-4.4212,-4.4212,-4.427,-4.4241,-4.9818,-5.0257,-5.1466,-5.219,-5.248,-5.2498,-5.2498,-5.2498,-5.2498,-5.2498,-5.2498,-5.2498,-5.2498,-5.2498,-5.2498,-5.2498,-5.2498,-5.2498,-5.2498,-5.2498,-5.2498,-5.2498,-5.2498,-5.2498,-5.2498,-5.2498,-5.2498,-5.2498,-5.2498,-5.2498,-5.2498,-5.2498,-5.2498,-5.2498,-5.2498,-5.2498,-5.2498,-5.2498,-5.2498,-5.2498,-5.2498,-5.2498,-5.2498,-5.2498,-5.2498,-5.2498,-5.2498,-5.2498,-5.2498,-5.2498,-5.2498,-5.2498,-5.2498,-5.2498,-5.2498,-5.2498,-5.2498,-5.2498,-5.2498,-5.2498,-5.2498,-5.2498,-5.2498,-5.2498,-5.2498,-5.2498,-5.2498,-5.2498,-5.2498,-5.2498,-5.2498,-5.2498,-5.2498,-5.2498,-5.2498,-5.2498,-5.2498,-5.2498,-5.234,-5.2114,-5.1786,-5.1373,-5.084,-5.0226,-4.9734,-4.9332,-4.8993,-4.8627,-4.8085,-4.7594,-4.7103,-4.6593,-4.6114,-4.5775,-4.5588,-4.5425,-4.5267,-4.5072,-4.4773,-4.4474,-4.4281,-4.4241,-4.4241,-4.4241,-4.4224,-4.4155,-4.4097,-4.4097,-4.4184,-4.4085,-4.3998,-4.3981,-4.401,-4.4114,-4.4056,-4.9383,-5.0202,-5.1036,-5.19,-5.2444,-5.2498,-5.2498,-5.2498,-5.2498,-5.2498,-5.2498,-5.2498,-5.2498,-5.2498,-5.2498,-5.2498,-5.2498,-5.2498,-5.2498,-5.2498,-5.2498,-5.2498,-5.2498,-5.2498,-5.2498,-5.2498,-5.2498,-5.2498,-5.2498,-5.2498,-5.2498,-5.2498,-5.2498,-5.2498,-5.2498,-5.2498,-5.2498,-5.2498,-5.2498,-5.2498,-5.2498,-5.2498,-5.2498,-5.2498,-5.2498,-5.2498,-5.2498,-5.2498,-5.2498,-5.2498,-5.2498,-5.2498,-5.2498,-5.2498,-5.2498,-5.2498,-5.2498,-5.2498,-5.2498,-5.2498,-5.2498,-5.2498,-5.2498,-5.2498,-5.2498,-5.2498,-5.2498,-5.2498,-5.2498,-5.2498,-5.2498,-5.2498,-5.2498,-5.2498,-5.2498,-5.2498,-5.2498,-5.2364,-5.2066,-5.1761,-5.127,-5.0858,-5.0422,-4.9803,-4.9496,-4.9144,-4.8934,-4.8646,-4.8272,-4.7703,-4.7067,-4.6535,-4.6008,-4.5551,-4.5108,-4.4964,-4.4862,-4.4686,-4.4435,-4.4281,-4.4126,-4.4068,-4.4068,-4.4068,-4.4068,-4.4039,-4.401,-4.3981,-4.3939,-4.3881,-4.3822,-4.3776,-4.3805,-4.391,-4.391,-4.9383,-5.0238,-5.1611,-5.2335,-5.248,-5.2498,-5.2498,-5.2498,-5.2498,-5.2498,-5.2498,-5.2498,-5.2498,-5.2498,-5.2498,-5.2498,-5.2498,-5.2498,-5.2498,-5.2498,-5.2498,-5.2498,-5.2498,-5.2498,-5.2498,-5.2498,-5.2498,-5.2498,-5.2498,-5.2498,-5.2498,-5.2498,-5.2498,-5.2498,-5.2498,-5.2498,-5.2498,-5.2498,-5.2498,-5.2498,-5.2498,-5.2498,-5.2498,-5.2498,-5.2498,-5.2498,-5.2498,-5.2498,-5.2498,-5.2498,-5.2498,-5.2498,-5.2498,-5.2498,-5.2498,-5.2498,-5.2498,-5.2498,-5.2498,-5.2498,-5.2498,-5.2498,-5.2498,-5.2498,-5.2498,-5.2498,-5.2498,-5.2498,-5.2498,-5.2498,-5.2498,-5.2498,-5.2498,-5.2498,-5.2434,-5.2434,-5.241,-5.209,-5.1761,-5.127,-5.0768,-5.0328,-4.9873,-4.9526,-4.9229,-4.9077,-4.9046,-4.8846,-4.8582,-4.8082,-4.7176,-4.6595,-4.5977,-4.5478,-4.4959,-4.4558,-4.4508,-4.4367,-4.4184,-4.4056,-4.3956,-4.3939,-4.3923,-4.3939,-4.3956,-4.391,-4.3835,-4.3717,-4.3704,-4.3704,-4.3704,-4.3704,-4.3658,-4.3734,-4.3704,-4.884,-4.9745,-5.1285,-5.2172,-5.2462,-5.2498,-5.2498,-5.2498,-5.2498,-5.2498,-5.2498,-5.2498,-5.2498,-5.2498,-5.2498,-5.2498,-5.2498,-5.2498,-5.2498,-5.2498,-5.2498,-5.2498,-5.2498,-5.2498,-5.2498,-5.2498,-5.2498,-5.2498,-5.2498,-5.2498,-5.2498,-5.2498,-5.2498,-5.2498,-5.2498,-5.2498,-5.2498,-5.2498,-5.2498,-5.2498,-5.2498,-5.2498,-5.2498,-5.2498,-5.2498,-5.2498,-5.2498,-5.2498,-5.2498,-5.2498,-5.2498,-5.2498,-5.2498,-5.2498,-5.2498,-5.2498,-5.2498,-5.2498,-5.2498,-5.2498,-5.2498,-5.2498,-5.2498,-5.2498,-5.2498,-5.2498,-5.2498,-5.2498,-5.2498,-5.2498,-5.2498,-5.2498,-5.2498,-5.2498,-5.2138,-5.1884,-5.1676,-5.1337,-5.0973,-5.056,-5.0159,-4.9815,-4.9389,-4.906,-4.8846,-4.8925,-4.8925,-4.8877,-4.8647,-4.8481,-4.7568,-4.6759,-4.622,-4.5601,-4.5084,-4.4589,-4.4212,-4.4056,-4.391,-4.3852,-4.3822,-4.3793,-4.3747,-4.3793,-4.378,-4.3734,-4.3658,-4.3615,-4.3615,-4.3645,-4.3645,-4.3615,-4.3615,-4.3615,-4.3615,-4.8279,-4.9238,-5.0687,-5.1756,-5.2444,-5.2498,-5.2498,-5.2498,-5.2498,-5.2498,-5.2498,-5.2498,-5.2498,-5.2498,-5.2498,-5.2498,-5.2498,-5.2498,-5.2498,-5.2498,-5.2498,-5.2498,-5.2498,-5.2498,-5.2498,-5.2498,-5.2498,-5.2498,-5.2498,-5.2498,-5.2498,-5.2498,-5.2498,-5.2498,-5.2498,-5.2498,-5.2498,-5.2498,-5.2498,-5.2498,-5.2498,-5.2498,-5.2498,-5.2498,-5.2498,-5.2498,-5.2498,-5.2498,-5.2498,-5.2498,-5.2498,-5.2498,-5.2498,-5.2498,-5.2498,-5.2498,-5.2498,-5.2498,-5.2498,-5.2498,-5.2498,-5.2498,-5.2498,-5.2457,-5.2434,-5.2434,-5.2434,-5.2345,-5.2345,-5.2434,-5.2434,-5.2322,-5.2322,-5.2209,-5.1743,-5.1355,-5.1008,-5.067,-5.0293,-4.9902,-4.9598,-4.9269,-4.8981,-4.861,-4.8627,-4.8707,-4.8738,-4.8738,-4.8656,-4.8509,-4.8023,-4.7304,-4.6689,-4.6039,-4.5243,-4.4624,-4.4094,-4.3894,-4.3776,-4.3717,-4.3658,-4.3687,-4.3658,-4.3645,-4.3645,-4.3628,-4.3628,-4.3615,-4.3615,-4.3615,-4.3615,-4.3615,-4.3615,-4.3615,-4.3615,-4.8568,-4.9945,-5.0904,-5.1737,-5.2408,-5.248,-5.2498,-5.2498,-5.2498,-5.2498,-5.2498,-5.2498,-5.2498,-5.2498,-5.2498,-5.2498,-5.2498,-5.2498,-5.2498,-5.2498,-5.2498,-5.2498,-5.2498,-5.2498,-5.2498,-5.2498,-5.2498,-5.2498,-5.2498,-5.2498,-5.2498,-5.2498,-5.2498,-5.2498,-5.2498,-5.2498,-5.2498,-5.2498,-5.2498,-5.2498,-5.2498,-5.2498,-5.2498,-5.2498,-5.2498,-5.2498,-5.2498,-5.2498,-5.2498,-5.2498,-5.2498,-5.2498,-5.2498,-5.2498,-5.2498,-5.2498,-5.2498,-5.2498,-5.2498,-5.2498,-5.2498,-5.2304,-5.228,-5.2257,-5.2233,-5.2209,-5.2072,-5.1793,-5.1866,-5.2186,-5.2186,-5.186,-5.1743,-5.1525,-5.1183,-5.0876,-5.0562,-5.022,-4.9855,-4.9509,-4.9195,-4.892,-4.8656,-4.8483,-4.8483,-4.8564,-4.8564,-4.8515,-4.8436,-4.8403,-4.8401,-4.7771,-4.7108,-4.6143,-4.5243,-4.456,-4.4064,-4.383,-4.3658,-4.3658,-4.3628,-4.3645,-4.3615,-4.3615,-4.3615,-4.3615,-4.3615,-4.3615,-4.3615,-4.3615,-4.3615,-4.3615,-4.3615,-4.3615,-4.3615]},{"header":{"parameterUnit":"m.s-1","parameterCategory":1,"la1":31.0,"la2":29.5877,"lo1":-88.7671,"lo2":-86.6584,"dy":0.0162,"dx":0.0185,"nx":115,"ny":88,"refTime":"2025-11-04T00:00:00:Z","depth":0,"parameterNumber":3,"parameterNumberName":"V-component_of_WINDS"},"data":[0.0,0.0,0.0,0.0,0.0,0.0,0.0,0.0,0.0,0.0,0.0,0.0,0.0,0.0,0.0,0.0,0.0,0.0,0.0,0.0,0.0,0.0,0.0,0.0,0.0,0.0,0.0,0.0,0.0,0.0,0.0,0.0,0.0,0.0,0.0,0.0,0.0,0.0,0.0,0.0,0.0,0.0,0.0,0.0,0.0,0.0,0.0,0.0,0.0,0.0,0.0,0.0,0.0,0.0,0.0,0.0,0.0,0.0,0.0,0.0,0.0,0.0,0.0,0.0,0.0,0.0,0.0,0.0,0.0,0.0,0.0,0.0,0.0,0.0,0.0,0.0,0.0,0.0,0.0,0.0,0.0,0.0,0.0,0.0,0.0,0.0,0.0,0.0,0.0,0.0,0.0,0.0,0.0,0.0,0.0,0.0,0.0,0.0,0.0,0.0,0.0,0.0,0.0,0.0,0.0,0.0,0.0,0.0,0.0,0.0,0.0,0.0,0.0,0.0,0.0,0.0,0.0,0.0,0.0,0.0,0.0,0.0,0.0,0.0,0.0,0.0,0.0,0.0,0.0,0.0,0.0,0.0,0.0,0.0,0.0,0.0,0.0,0.0,0.0,0.0,0.0,0.0,0.0,0.0,0.0,0.0,0.0,0.0,0.0,0.0,0.0,0.0,0.0,0.0,0.0,0.0,0.0,0.0,0.0,0.0,0.0,0.0,0.0,0.0,0.0,0.0,0.0,0.0,0.0,0.0,0.0,0.0,0.0,0.0,0.0,0.0,0.0,0.0,0.0,0.0,0.0,0.0,0.0,0.0,0.0,0.0,0.0,0.0,0.0,0.0,0.0,0.0,0.0,0.0,0.0,0.0,0.0,0.0,0.0,0.0,0.0,0.0,0.0,0.0,0.0,0.0,0.0,0.0,0.0,0.0,0.0,0.0,0.0,0.0,0.0,0.0,0.0,0.0,0.0,0.0,0.0,0.0,0.0,0.0,0.0,0.0,0.0,0.0,0.0,0.0,0.0,0.0,0.0,0.0,0.0,0.0,0.0,0.0,0.0,0.0,0.0,0.0,0.0,0.0,0.0,0.0,0.0,0.0,0.0,0.0,0.0,0.0,0.0,0.0,0.0,0.0,0.0,0.0,0.0,0.0,0.0,0.0,0.0,0.0,0.0,0.0,0.0,0.0,0.0,0.0,0.0,0.0,0.0,0.0,0.0,0.0,0.0,0.0,0.0,0.0,0.0,0.0,0.0,0.0,0.0,0.0,0.0,0.0,0.0,0.0,0.0,0.0,0.0,0.0,0.0,0.0,0.0,0.0,0.0,0.0,0.0,0.0,0.0,0.0,0.0,0.0,0.0,0.0,0.0,0.0,0.0,0.0,0.0,0.0,0.0,0.0,0.0,0.0,0.0,0.0,0.0,0.0,0.0,0.0,0.0,0.0,0.0,0.0,0.0,0.0,0.0,0.0,0.0,0.0,0.0,0.0,0.0,0.0,0.0,0.0,0.0,0.0,0.0,0.0,0.0,0.0,0.0,0.0,0.0,0.0,0.0,0.0,0.0,0.0,0.0,0.0,0.0,0.0,0.0,0.0,0.0,0.0,0.0,0.0,0.0,0.0,0.0,0.0,0.0,0.0,0.0,0.0,0.0,0.0,0.0,0.0,0.0,0.0,0.0,0.0,0.0,0.0,0.0,0.0,0.0,0.0,0.0,0.0,0.0,0.0,0.0,0.0,0.0,0.0,0.0,0.0,0.0,0.0,0.0,0.0,0.0,0.0,0.0,0.0,0.0,0.0,0.0,0.0,0.0,0.0,0.0,0.0,0.0,0.0,0.0,0.0,0.0,0.0,0.0,0.0,0.0,0.0,0.0,0.0,0.0,0.0,0.0,0.0,0.0,0.0,0.0,0.0,0.0,0.0,0.0,0.0,0.0,0.0,0.0,0.0,0.0,0.0,0.0,0.0,0.0,0.0,0.0,0.0,0.0,0.0,0.0,0.0,0.0,0.0,0.0,0.0,0.0,0.0,0.0,0.0,0.0,0.0,0.0,0.0,0.0,0.0,0.0,0.0,0.0,0.0,0.0,0.0,0.0,0.0,0.0,0.0,0.0,0.0,0.0,0.0,0.0,0.0,0.0,0.0,0.0,0.0,0.0,0.0,0.0,0.0,0.0,0.0,0.0,0.0,0.0,0.0,0.0,0.0,0.0,0.0,0.0,0.0,0.0,0.0,0.0,0.0,0.0,0.0,0.0,0.0,0.0,0.0,0.0,0.0,0.0,0.0,0.0,0.0,0.0,0.0,0.0,0.0,0.0,0.0,0.0,0.0,0.0,0.0,0.0,0.0,0.0,0.0,0.0,0.0,0.0,0.0,0.0,0.0,0.0,0.0,0.0,0.0,0.0,0.0,0.0,0.0,0.0,0.0,0.0,0.0,0.0,0.0,0.0,0.0,0.0,0.0,0.0,0.0,0.0,0.0,0.0,0.0,0.0,0.0,0.0,0.0,0.0,0.0,0.0,0.0,0.0,0.0,0.0,0.0,0.0,0.0,0.0,0.0,0.0,0.0,0.0,0.0,0.0,0.0,0.0,0.0,0.0,0.0,0.0,0.0,0.0,0.0,0.0,0.0,0.0,0.0,0.0,0.0,0.0,0.0,0.0,0.0,0.0,0.0,0.0,0.0,0.0,0.0,0.0,0.0,0.0,0.0,0.0,0.0,0.0,0.0,0.0,0.0,0.0,0.0,0.0,0.0,0.0,0.0,0.0,0.0,0.0,0.0,0.0,0.0,0.0,0.0,0.0,0.0,0.0,0.0,0.0,0.0,0.0,0.0,0.0,0.0,0.0,0.0,0.0,0.0,0.0,0.0,0.0,0.0,0.0,0.0,0.0,0.0,0.0,0.0,0.0,0.0,0.0,0.0,0.0,0.0,0.0,0.0,0.0,0.0,0.0,0.0,0.0,0.0,0.0,0.0,0.0,0.0,0.0,0.0,0.0,0.0,0.0,0.0,0.0,0.0,0.0,0.0,0.0,0.0,0.0,0.0,0.0,0.0,0.0,0.0,0.0,0.0,0.0,0.0,0.0,0.0,0.0,0.0,0.0,0.0,0.0,0.0,0.0,0.0,0.0,0.0,0.0,0.0,0.0,0.0,0.0,0.0,0.0,0.0,0.0,0.0,0.0,0.0,0.0,0.0,0.0,0.0,0.0,0.0,0.0,0.0,0.0,0.0,0.0,0.0,0.0,0.0,0.0,0.0,0.0,0.0,0.0,0.0,0.0,0.0,0.0,0.0,0.0,0.0,0.0,0.0,0.0,0.0,0.0,0.0,0.0,0.0,0.0,0.0,0.0,0.0,0.0,0.0,0.0,0.0,0.0,0.0,0.0,0.0,0.0,0.0,0.0,0.0,0.0,0.0,0.0,0.0,0.0,0.0,0.0,0.0,0.0,0.0,0.0,0.0,0.0,0.0,0.0,0.0,0.0,0.0,0.0,0.0,0.0,0.0,0.0,0.0,0.0,0.0,0.0,0.0,0.0,0.0,0.0,0.0,0.0,0.0,0.0,0.0,0.0,0.0,0.0,0.0,0.0,0.0,0.0,0.0,0.0,0.0,0.0,0.0,0.0,0.0,0.0,0.0,0.0,0.0,0.0,0.0,0.0,0.0,0.0,0.0,0.0,0.0,0.0,0.0,0.0,0.0,0.0,0.0,0.0,0.0,0.0,0.0,0.0,0.0,0.0,0.0,0.0,0.0,0.0,0.0,0.0,0.0,0.0,0.0,0.0,0.0,0.0,0.0,0.0,0.0,0.0,0.0,0.0,0.0,0.0,0.0,0.0,0.0,0.0,0.0,0.0,0.0,0.0,0.0,0.0,0.0,0.0,0.0,0.0,0.0,0.0,0.0,0.0,0.0,0.0,0.0,0.0,0.0,0.0,0.0,0.0,0.0,0.0,0.0,0.0,0.0,0.0,0.0,0.0,0.0,0.0,0.0,0.0,0.0,0.0,0.0,0.0,0.0,0.0,0.0,0.0,0.0,0.0,0.0,0.0,0.0,0.0,0.0,0.0,0.0,0.0,0.0,0.0,0.0,0.0,0.0,0.0,0.0,0.0,0.0,0.0,0.0,0.0,0.0,0.0,0.0,0.0,0.0,0.0,0.0,0.0,0.0,0.0,0.0,0.0,0.0,0.0,0.0,0.0,0.0,0.0,0.0,0.0,0.0,0.0,0.0,0.0,0.0,0.0,0.0,0.0,0.0,0.0,0.0,0.0,0.0,0.6283,0.0,0.0,0.0,0.0,0.0,0.0,0.0,0.0,0.0,0.0,0.0,0.0,0.0,0.0,0.0,0.0,0.0,0.0,0.0,0.0,0.0,0.0,0.0,0.0,0.0,0.0,0.0,0.0,0.0,0.0,0.0,0.0,0.0,0.0,0.0,0.0,0.0,0.0,0.0,0.0,0.0,0.0,0.0,0.0,0.0,0.0,0.0,0.0,0.0,0.0,0.0,0.0,0.0,0.0,0.0,0.0,0.0,0.0,0.0,0.0,0.0,0.0,0.0,0.0,0.0,0.0,0.0,0.0,0.0,0.0,0.0,0.0,0.0,0.0,0.0,0.0,0.0,0.0,0.0,0.0,0.0,0.0,0.0,0.0,0.0,0.0,0.0,0.0,0.0,0.0,0.0,0.0,0.0,0.0,0.0,0.0,0.0,0.0,0.0,0.0,0.0,0.0,0.0,0.0,0.0,0.0,0.0,0.0,0.0,0.0,0.6201,0.629,0.6283,0.6283,0.6283,0.0,0.0,0.0,0.0,0.0,0.0,0.0,0.0,0.0,0.0,0.0,0.0,0.0,0.0,0.0,0.0,0.0,0.0,0.0,0.0,0.0,0.0,0.0,0.0,0.0,0.0,0.0,0.0,0.0,0.0,0.0,0.0,0.0,0.0,0.0,0.0,0.0,0.0,0.0,0.0,0.0,0.0,0.0,0.0,0.0,0.0,0.0,0.0,0.0,0.0,0.0,0.0,0.0,0.0,0.0,0.0,0.0,0.0,0.0,0.0,0.0,0.0,0.0,0.0,0.0,0.0,0.0,0.0,0.0,0.0,0.0,0.0,0.0,0.0,0.0,0.0,0.0,0.0,0.0,0.0,0.0,0.0,0.0,0.0,0.0,0.0,0.0,0.0,0.0,0.0,0.0,0.0,0.0,0.0,0.0,0.0,0.0,0.0,0.0,0.0,0.0,0.0,0.0,0.0,0.0,0.0,0.0,0.0,0.0,0.0,0.0,0.0,0.6664,0.6643,0.6655,0.0,0.0,0.0,0.0,0.0,0.0,0.0,0.0,0.0,0.0,0.0,0.0,0.0,0.0,0.0,0.0,0.0,0.0,0.0,0.0,0.0,0.0,0.0,0.0,0.0,0.0,0.0,0.0,0.0,0.0,0.0,0.0,0.0,0.0,0.0,0.0,0.0,0.0,0.0,0.0,0.0,0.0,0.0,0.0,0.0,0.0,0.0,0.0,0.0,0.0,0.0,0.0,0.0,0.0,0.0,0.0,0.0,0.0,0.0,0.0,0.0,0.0,0.0,0.0,0.0,0.0,0.0,0.0,0.0,0.0,0.0,0.0,0.0,0.0,0.0,0.0,0.0,0.0,0.0,0.0,0.0,0.0,0.0,0.0,0.0,0.0,0.0,0.0,0.0,0.0,0.0,0.0,0.0,0.0,0.0,0.0,0.0,0.0,0.0,0.0,0.0,0.0,0.0,0.0,0.0,0.0,0.0,0.0,0.0,0.0,0.6763,0.7731,0.7744,0.0,0.7767,0.0,0.0,0.0,0.0,0.0,0.0,0.0,0.0,0.0,0.0,0.0,0.0,0.0,0.0,0.0,0.0,0.0,0.0,0.0,0.0,0.0,0.0,0.0,0.0,0.0,0.0,0.0,0.0,0.0,0.0,0.0,0.0,0.0,0.0,0.0,0.0,0.0,0.0,0.0,0.0,0.0,0.0,0.0,0.0,0.0,0.0,0.0,0.0,0.0,0.0,0.0,0.0,0.0,0.0,0.0,0.0,0.0,0.0,0.0,0.0,0.0,0.0,0.0,0.0,0.0,0.0,0.0,0.0,0.0,0.0,0.0,0.0,0.0,0.0,0.0,0.0,0.0,0.0,0.0,0.0,0.0,0.0,0.0,0.0,0.0,0.0,0.0,0.0,0.0,0.0,0.0,0.0,0.0,0.0,0.0,0.0,0.0,0.0,0.0,0.0,0.0,0.0,0.0,0.0,0.0,0.0,0.0,0.0,0.0,0.0,0.7457,0.7899,0.7911,0.7911,0.0,0.0,0.0,0.0,0.0,0.0,0.0,0.0,0.0,0.0,0.0,0.0,0.0,0.0,0.0,0.0,0.0,0.0,0.0,0.0,0.0,0.0,0.0,0.0,0.0,0.0,0.0,0.0,0.0,0.0,0.0,0.0,0.0,0.0,0.0,0.0,0.0,0.0,0.0,0.0,0.0,0.0,0.0,0.0,0.0,0.0,0.0,0.0,0.0,0.0,0.0,0.0,0.0,0.0,0.0,0.0,0.0,0.0,0.0,0.0,0.0,0.0,0.0,0.0,0.0,0.0,0.0,0.0,0.0,0.0,0.0,0.0,0.0,0.0,0.0,0.0,0.0,0.0,0.0,0.0,0.0,0.0,0.0,0.0,0.0,0.0,0.0,0.0,0.0,0.0,0.0,0.0,0.0,0.0,0.0,0.0,0.0,0.0,0.0,0.0,0.0,0.0,0.0,0.0,0.0,0.0,0.0,0.0,0.0,0.0,0.7648,0.8032,0.8309,0.8345,0.8201,0.7923,0.0,0.0,0.0,0.0,0.0,0.0,0.0,0.0,0.0,0.0,0.0,0.0,0.0,0.0,0.0,0.0,0.0,0.0,0.0,0.0,0.0,0.0,0.0,0.0,0.0,0.0,0.0,0.0,0.0,0.0,0.0,0.0,0.0,0.0,0.0,0.0,0.0,0.0,0.0,0.0,0.0,0.0,0.0,0.0,0.0,0.0,0.0,0.0,0.0,0.0,0.0,0.0,0.0,0.0,0.0,0.0,0.0,0.0,0.0,0.0,0.0,0.0,0.0,0.0,0.0,0.0,0.0,0.0,0.0,0.0,0.0,0.0,0.0,0.0,0.0,0.0,0.0,0.0,0.0,0.0,0.0,0.0,0.0,0.0,0.0,0.0,0.0,0.0,0.0,0.0,0.0,0.0,0.0,0.0,0.0,0.0,0.0,0.0,0.0,0.0,0.0,0.0,0.0,0.0,0.0,0.0,0.0,0.0,0.9174,0.8381,0.8381,0.939,0.9426,0.8958,0.0,0.0,0.0,0.0,0.0,0.0,0.0,0.0,0.0,0.0,0.0,0.0,0.0,0.0,0.0,0.0,0.0,0.0,0.0,0.0,0.0,0.0,0.0,0.0,0.0,0.0,0.0,0.0,0.0,0.0,0.0,0.0,0.0,0.0,0.0,0.0,0.0,0.0,0.0,0.0,0.0,0.0,0.0,0.0,0.0,0.0,0.0,0.0,0.0,0.0,0.0,0.0,0.0,0.0,0.0,0.0,0.0,0.0,0.0,0.0,0.0,0.0,0.0,0.0,0.0,0.0,0.0,0.0,0.0,0.0,0.0,0.0,0.0,0.0,0.0,0.0,0.0,0.0,0.0,0.0,0.0,0.0,0.0,0.0,0.0,0.0,0.0,0.0,0.0,0.0,0.0,0.0,0.0,0.0,0.0,0.0,0.0,0.0,0.0,0.0,0.0,0.0,0.0,0.0,0.0,0.0,0.0,0.0,0.0,0.7433,0.7721,0.8742,1.0401,0.9199,0.8598,0.0,0.0,0.0,0.0,0.0,0.0,0.0,0.0,0.0,0.0,0.0,0.0,0.0,0.0,0.0,0.0,0.0,0.0,0.0,0.0,0.0,0.0,0.0,0.0,0.0,0.0,0.0,0.0,0.0,0.0,0.0,0.0,0.0,0.0,0.0,0.0,0.0,0.0,0.0,0.0,0.0,0.0,0.0,0.0,0.0,0.0,0.0,0.0,0.0,0.0,0.0,0.0,0.0,0.0,0.0,0.0,0.0,0.0,0.0,0.0,0.0,0.0,0.0,0.0,0.0,0.0,0.0,0.0,0.0,0.0,0.0,0.0,0.0,0.0,0.0,0.0,0.0,0.0,0.0,0.0,0.0,0.0,0.0,0.0,0.0,0.0,0.0,0.0,0.0,0.0,0.0,0.0,0.0,0.0,0.0,0.0,0.0,0.0,0.0,0.0,0.0,0.0,0.0,0.0,0.0,0.0,0.0,0.0,0.0,0.7327,0.0,0.9475,1.0461,0.9174,0.8429,0.0,0.0,0.0,0.0,0.0,0.0,0.0,0.0,0.0,0.0,0.0,0.0,0.0,0.0,0.0,0.0,0.0,0.0,0.0,0.0,0.0,0.0,0.0,0.0,0.0,0.0,0.0,0.0,0.0,0.0,0.0,0.0,0.0,0.0,0.0,0.0,0.0,0.0,0.0,0.0,0.0,0.0,0.0,0.0,0.0,0.0,0.0,0.0,0.0,0.0,0.0,0.0,0.0,0.0,0.0,0.0,0.0,0.0,0.0,0.0,0.0,0.0,0.0,0.0,0.0,0.0,0.0,0.0,0.0,0.0,0.0,0.0,0.0,0.0,0.0,0.0,0.0,0.0,0.0,0.0,0.0,0.0,0.0,0.0,0.0,0.0,0.0,0.0,0.0,0.0,0.0,0.0,0.0,0.0,0.0,0.0,0.0,0.0,0.0,0.0,0.0,0.0,0.0,0.0,0.0,0.0,0.0,0.0,0.735,0.9366,1.0411,1.0459,0.9594,0.9462,0.8466,0.0,0.0,0.0,0.0,0.0,0.0,0.0,0.0,0.0,0.0,0.0,0.0,0.0,0.0,0.0,0.0,0.0,0.0,0.0,0.0,0.0,0.0,0.0,0.0,0.0,0.0,0.0,0.0,0.0,0.0,0.0,0.0,0.0,0.0,0.0,0.0,0.0,0.0,0.0,0.0,0.0,0.0,0.0,0.0,0.0,0.0,0.0,0.0,0.0,0.0,0.0,0.0,0.0,0.0,0.0,0.0,0.0,0.0,0.0,0.0,0.0,0.0,0.0,0.0,0.0,0.0,0.0,0.0,0.0,0.0,0.0,0.0,0.0,0.0,0.0,0.0,0.0,0.0,0.0,0.0,0.0,0.0,0.0,0.0,0.0,0.0,0.0,0.0,0.0,0.0,0.0,0.0,0.0,0.0,0.0,0.0,0.0,0.0,0.0,0.0,0.0,0.0,0.0,0.0,0.0,0.0,0.0,0.0,0.0,0.8417,0.9079,0.9994,1.1015,0.9006,0.8237,0.0,0.0,0.0,0.0,0.0,0.0,0.0,0.0,0.0,0.0,0.0,0.0,0.0,0.0,0.0,0.0,0.0,0.0,0.0,0.0,0.0,0.0,0.0,0.0,0.0,0.0,0.0,0.0,0.0,0.0,0.0,0.0,0.0,0.0,0.0,0.0,0.0,0.0,0.0,0.0,0.0,0.0,0.0,0.0,0.0,0.0,0.0,0.0,0.0,0.0,0.0,0.0,0.0,0.0,0.0,0.0,0.0,0.0,0.0,0.0,0.0,0.0,0.0,0.0,0.0,0.0,0.0,0.0,0.0,0.0,0.0,0.0,0.0,0.0,0.0,0.0,0.0,0.0,0.0,0.0,0.0,0.0,0.0,0.0,0.0,0.0,0.0,0.0,0.0,0.0,0.0,0.0,0.0,0.0,0.0,0.0,0.0,0.0,0.0,0.0,0.0,0.0,0.0,0.0,0.0,0.0,0.0,0.0,0.0,0.9729,1.0418,1.1238,1.2225,1.0057,0.9055,0.942,0.0,0.0,0.0,0.0,0.0,0.0,0.0,0.0,0.0,0.0,0.0,0.0,0.0,0.0,0.0,0.0,0.0,0.0,0.0,0.0,0.0,0.0,0.0,0.0,0.0,0.0,0.0,0.0,0.0,0.0,0.0,0.0,0.0,0.0,0.0,0.0,0.0,0.0,0.0,0.0,0.0,0.0,0.0,0.0,0.0,0.0,0.0,0.0,0.0,0.0,0.0,0.0,0.0,0.0,0.0,0.0,0.0,0.0,0.0,0.0,0.0,0.0,0.0,0.0,0.0,0.0,0.0,0.0,0.0,0.0,0.0,0.0,0.0,0.0,0.0,0.0,0.0,0.0,0.0,0.0,0.0,0.0,0.0,0.0,0.0,0.0,0.0,0.0,0.0,0.0,0.0,0.0,0.0,0.0,0.0,0.0,0.0,0.0,0.0,0.0,0.0,0.0,0.0,0.0,0.0,0.0,0.0,0.0,1.28,1.3903,1.4002,1.3065,1.222,1.0725,0.0,0.0,0.0,0.0,0.0,0.0,0.0,0.0,0.0,0.0,0.0,0.0,0.0,0.0,0.0,0.0,0.0,0.0,0.0,0.0,0.0,0.0,0.0,0.0,0.0,0.0,0.0,0.0,0.0,0.0,0.0,0.0,0.0,0.0,0.0,0.0,0.0,0.0,0.0,0.0,0.0,0.0,0.0,0.0,0.0,0.0,0.0,0.0,0.0,0.0,0.0,0.0,0.0,0.0,0.0,0.0,0.0,0.0,0.0,0.0,0.0,0.0,0.0,0.0,0.0,0.0,0.0,0.0,0.0,0.0,0.0,0.0,0.0,0.0,0.0,0.0,0.0,0.0,0.0,0.0,0.0,0.0,0.0,0.0,0.0,0.0,0.0,0.0,0.0,0.0,0.0,0.0,0.0,0.0,0.0,0.0,0.0,0.0,0.0,0.0,0.0,0.0,0.0,0.0,0.0,0.0,0.0,0.0,0.0,1.4373,1.5836,1.6269,1.557,1.2878,1.1224,0.0,0.0,0.0,0.0,0.0,0.0,0.0,0.0,0.0,0.0,0.0,0.0,0.0,0.0,0.0,0.0,0.0,0.0,0.0,0.0,0.0,0.0,0.0,0.0,0.0,0.0,0.0,0.0,0.0,0.0,0.0,0.0,0.0,0.0,0.0,0.0,0.0,0.0,0.0,0.0,0.0,0.0,0.0,0.0,0.0,0.0,0.0,0.0,0.0,0.0,0.0,0.0,0.0,0.0,0.0,0.0,0.0,0.0,0.0,0.0,0.0,0.0,0.0,0.0,0.0,0.0,0.0,0.0,0.0,0.0,0.0,0.0,0.0,0.0,0.0,0.0,0.0,0.0,0.0,0.0,0.0,0.0,0.0,0.0,0.0,0.0,0.0,0.0,0.0,0.0,0.0,0.0,0.0,0.0,0.0,0.0,0.0,0.0,0.0,0.0,0.0,0.0,0.0,0.0,0.0,0.0,0.0,0.0,1.3576,1.5636,1.7243,1.7929,1.764,1.4703,1.2774,0.0,0.0,0.0,0.0,0.0,0.0,0.0,0.0,0.0,0.0,0.0,0.0,0.0,0.0,0.0,0.0,0.0,0.0,0.0,0.0,0.0,0.0,0.0,0.0,0.0,0.0,0.0,0.0,0.0,0.0,0.0,0.0,0.0,0.0,0.0,0.0,0.0,0.0,0.0,0.0,0.0,0.0,0.0,0.0,0.0,0.0,0.0,0.0,0.0,0.0,0.0,0.0,0.0,0.0,0.0,0.0,0.0,0.0,0.0,0.0,0.0,0.0,0.0,0.0,0.0,0.0,0.0,0.0,0.0,0.0,0.0,0.0,0.0,0.0,0.0,0.0,0.0,0.0,0.0,0.0,0.0,0.0,0.0,0.0,0.0,0.0,0.0,0.0,0.0,0.0,0.0,0.0,0.0,0.0,0.0,0.0,0.0,0.0,0.0,0.0,0.0,0.0,0.0,0.0,0.0,0.0,0.0,0.0,1.4642,1.6643,1.8193,1.9013,1.8965,1.6931,1.4707,0.0,0.0,0.0,0.0,0.0,0.0,0.0,0.0,0.0,0.0,0.0,0.0,0.0,0.0,0.0,0.0,0.0,0.0,0.0,0.0,0.0,0.0,0.0,0.0,0.0,0.0,0.0,0.0,0.0,0.0,0.0,0.0,0.0,0.0,0.0,0.0,0.0,0.0,0.0,0.0,0.0,0.0,0.0,0.0,0.0,0.0,0.0,0.0,0.0,0.0,0.0,0.0,0.0,0.0,0.0,0.0,0.0,0.0,0.0,0.0,0.0,0.0,0.0,0.0,0.0,0.0,0.0,0.0,0.0,0.0,0.0,0.0,0.0,0.0,0.0,0.0,0.0,0.0,0.0,0.0,0.0,0.0,0.0,0.0,0.0,0.0,0.0,0.0,0.0,0.0,0.0,0.0,0.0,0.0,0.0,0.0,0.0,0.0,0.0,0.0,0.0,0.0,0.0,0.0,0.0,0.0,0.0,0.0,1.5502,1.7183,1.8398,1.9052,1.917,1.7143,1.5179,0.0,0.0,0.0,0.0,0.0,0.0,0.0,0.0,0.0,0.0,0.0,0.0,0.0,0.0,0.0,0.0,0.0,0.0,0.0,0.0,0.0,0.0,0.0,0.0,0.0,0.0,0.0,0.0,0.0,0.0,0.0,0.0,0.0,0.0,0.0,0.0,0.0,0.0,0.0,0.0,0.0,0.0,0.0,0.0,0.0,0.0,0.0,0.0,0.8282,0.0,0.0,0.0,0.0,0.0,0.0,0.0,0.0,0.0,0.0,0.0,0.0,0.0,0.0,0.0,0.0,0.0,0.0,0.0,0.0,0.0,0.0,0.0,0.0,0.0,0.0,0.0,0.0,0.0,0.0,0.0,0.0,0.0,0.0,0.0,0.0,0.0,0.0,0.0,0.0,0.0,0.0,0.0,0.0,0.0,0.0,0.0,0.0,0.0,0.0,0.0,0.0,0.0,0.0,0.0,0.0,0.0,0.0,0.0,1.6163,1.7748,1.8578,1.9025,1.9069,1.7861,1.6213,0.0,0.0,0.0,0.0,0.0,0.0,0.0,0.0,0.0,0.0,0.0,0.0,0.0,0.0,0.0,0.0,0.0,0.0,0.0,0.0,0.0,0.0,0.0,0.0,0.0,0.0,0.0,0.0,0.0,0.0,0.0,0.0,0.0,0.0,0.0,0.0,0.0,0.0,0.0,0.0,0.0,0.0,0.0,0.0,0.0,0.0,0.0,0.0,0.0,0.0,0.0,0.0,0.0,0.0,0.0,0.0,0.0,0.0,0.0,0.0,0.0,0.0,0.0,0.0,0.0,0.0,0.0,0.0,0.0,0.0,0.0,0.0,0.0,0.0,0.0,0.0,0.0,0.0,0.0,0.0,0.0,0.0,0.0,0.0,0.0,0.0,0.0,0.0,0.0,0.0,0.0,0.0,0.0,0.0,0.0,0.0,0.0,0.0,0.0,0.0,0.0,0.0,0.0,0.0,0.0,0.0,0.0,1.4493,1.65,1.8253,1.8758,1.9013,1.9013,1.8648,1.7262,1.4755,0.0,0.0,0.0,0.0,0.0,0.0,0.0,0.0,0.0,0.0,0.0,0.0,0.0,0.0,0.0,0.0,0.0,0.0,0.0,0.0,0.0,0.0,0.0,0.0,0.0,0.0,0.0,0.0,0.0,0.0,0.0,0.0,0.0,0.0,0.0,0.0,0.0,0.0,0.6181,0.711,0.0,0.0,0.0,0.0,0.0,0.0,0.0,0.0,0.8386,0.0,0.0,0.0,0.0,0.0,0.0,0.0,0.0,0.0,0.0,0.0,0.0,0.0,0.0,0.0,0.0,0.0,0.0,0.0,0.0,0.0,0.0,0.0,0.0,0.0,0.0,0.0,0.0,0.0,0.0,0.0,0.0,0.0,0.0,0.0,0.0,0.0,0.0,0.0,0.0,0.0,0.0,0.0,0.0,0.0,0.0,0.0,0.0,0.0,0.0,0.0,0.0,0.0,0.0,0.0,0.0,1.4072,1.4588,1.6136,1.8782,1.8951,1.9052,1.9158,1.8789,1.7332,1.472,0.0,0.0,0.0,0.0,0.0,0.0,0.0,0.0,0.0,0.0,0.0,0.0,0.0,0.0,0.0,0.0,0.0,0.0,0.0,0.0,0.0,0.0,0.0,0.0,0.0,0.0,0.0,0.0,0.0,0.0,0.0,0.0,0.0,0.0,0.0,0.0,0.0,0.0,0.0,0.9404,0.9839,0.0,0.0,0.0,0.0,0.0,0.0,0.0,0.0,0.8703,0.0,0.0,0.0,0.0,0.0,0.0,0.0,0.0,0.0,0.0,0.0,0.0,0.0,0.0,0.0,0.0,0.0,0.0,0.0,0.0,0.0,0.0,0.0,0.0,0.0,0.0,0.0,0.0,0.0,0.0,0.0,0.0,0.0,0.0,0.0,0.0,0.0,0.0,0.0,0.0,0.0,0.0,0.0,0.0,0.0,0.0,0.0,0.0,0.0,0.0,0.0,0.0,0.0,0.0,0.0,1.3434,1.5164,1.6822,1.8478,1.8842,1.9052,1.9172,1.8128,1.663,0.0,0.0,0.0,0.0,0.0,0.0,0.0,0.0,0.0,0.0,0.0,0.0,0.0,0.0,0.0,0.0,0.0,0.0,0.0,0.0,0.0,0.0,0.0,0.0,0.0,0.0,0.0,0.0,0.0,0.0,0.0,0.0,0.0,0.0,0.0,0.0,0.0,0.0,0.0,0.0,1.0195,1.0719,1.072,0.0,0.0,0.0,0.0,0.0,0.0,0.9809,0.9243,0.0,0.0,0.0,0.0,0.0,0.0,0.0,0.0,0.0,0.0,0.0,0.0,0.0,0.0,0.0,0.0,0.0,0.0,0.0,0.0,0.0,0.0,0.0,0.0,0.0,0.0,0.0,0.0,0.0,0.0,0.0,0.0,0.0,0.0,0.0,0.0,0.0,0.0,0.0,0.0,0.0,0.0,0.0,0.0,0.0,0.0,0.0,0.0,0.0,0.0,0.0,0.0,0.0,0.0,0.0,1.2531,1.5277,1.7172,1.8047,1.8563,1.8907,1.9119,1.7617,1.6104,0.0,0.0,0.0,0.0,0.0,0.0,0.0,0.0,0.0,0.0,0.0,0.0,0.0,0.0,0.0,0.0,0.0,0.0,0.0,0.0,0.0,0.0,0.0,0.0,0.0,0.0,0.0,0.0,0.0,0.0,0.0,0.0,0.0,0.0,0.0,0.0,0.0,0.0,0.0,0.0,0.0,1.1469,1.1216,1.1224,0.0,0.0,0.0,0.0,1.0821,1.0647,0.0,0.0,0.0,0.0,0.0,0.0,0.0,0.0,0.0,0.0,0.0,0.0,0.0,0.0,0.0,0.0,0.0,0.0,0.0,0.0,0.0,0.0,0.0,0.0,0.0,0.0,0.0,0.0,0.0,0.0,0.0,0.0,0.0,0.0,0.0,0.0,0.0,0.0,0.0,0.0,0.0,0.0,0.0,0.0,0.0,0.0,0.0,0.0,0.0,0.0,0.0,0.0,0.0,0.0,0.0,0.0,1.2436,1.3979,1.5829,1.7958,1.8174,1.8467,1.8975,1.8029,1.6492,0.0,0.0,0.0,0.0,0.0,0.0,0.0,0.0,0.0,0.0,0.0,0.0,0.0,0.0,0.0,0.0,0.0,0.0,0.0,0.0,0.0,0.0,0.0,0.0,0.0,0.0,0.0,0.0,0.0,0.0,0.0,0.0,0.0,0.0,0.0,0.0,0.0,0.0,0.0,0.0,0.0,1.2732,1.1612,1.1603,1.1536,0.0,0.0,1.1871,1.29,1.3001,0.0,0.0,0.0,0.0,0.0,0.0,0.0,0.0,0.0,0.0,0.0,0.0,0.0,0.0,0.0,0.0,0.0,0.0,0.0,0.0,0.0,0.0,0.0,0.0,0.0,0.0,0.0,0.0,0.0,0.0,0.0,0.0,0.0,0.0,0.0,0.0,0.0,0.0,0.0,0.0,0.0,0.0,0.0,0.0,0.0,0.0,0.0,0.0,0.0,0.0,0.0,0.0,0.0,0.0,0.0,1.0319,1.1997,1.427,1.6012,1.703,1.7424,1.7765,1.8066,1.6787,1.5321,0.0,0.0,0.0,0.0,0.0,0.0,0.0,0.0,0.0,0.0,0.0,0.0,0.0,0.0,0.0,0.0,0.0,0.0,0.0,0.0,0.0,0.0,0.0,0.0,0.0,0.0,0.0,0.0,0.0,0.0,0.0,0.0,0.0,0.0,0.0,0.0,0.0,0.0,0.0,0.0,0.0,0.0,1.269,1.2947,0.0,0.0,0.0,1.2864,1.3373,0.0,0.0,0.0,0.0,0.0,0.0,0.0,0.0,0.0,0.0,0.0,0.0,0.0,0.0,0.0,0.0,0.0,0.0,0.0,0.0,0.0,0.0,0.0,0.0,0.0,0.0,0.0,0.0,0.0,0.0,0.0,0.0,0.0,0.0,0.0,0.0,0.0,0.0,0.0,0.0,0.0,0.0,0.0,0.0,0.0,0.0,0.0,0.0,0.0,0.0,0.0,0.0,0.0,0.0,0.0,0.0,0.0,1.1802,1.4592,1.613,1.6301,1.6754,1.709,1.733,1.5998,0.0,0.0,0.0,0.0,0.0,0.0,0.0,0.0,0.0,0.0,0.0,0.0,0.0,0.0,0.0,0.0,0.0,0.0,0.0,0.0,0.0,0.0,0.0,0.0,0.0,0.0,0.0,0.3898,0.0,0.0,0.0,0.0,0.0,0.0,0.0,0.0,0.0,0.0,0.0,0.0,0.0,0.0,1.3038,1.3148,1.376,1.3894,0.0,0.0,1.364,1.3794,1.4335,1.4072,0.0,0.0,0.0,0.0,0.0,0.0,0.0,0.0,0.0,0.0,0.0,0.0,0.0,0.0,0.0,0.0,0.0,0.0,0.0,0.0,0.0,0.0,0.0,0.0,0.0,0.0,0.0,0.0,0.0,0.0,0.0,0.0,0.0,0.0,0.0,0.0,0.0,0.0,0.0,0.0,0.0,0.0,0.0,0.0,0.0,0.0,0.0,0.0,0.0,0.0,0.0,0.0,0.0,0.0,1.0908,1.2184,1.4343,1.5729,1.6283,1.633,1.6613,1.7163,1.6607,1.5222,0.0,0.0,0.0,0.0,0.0,0.0,0.0,0.0,0.0,0.0,0.0,0.0,0.0,0.0,0.0,0.0,0.0,0.0,0.0,0.0,0.0,0.0,0.0,0.0,0.0,0.0,0.0,0.0,0.0,0.0,0.0,0.0,0.0,0.0,0.0,0.0,0.0,0.0,0.0,0.0,0.0,1.305,1.2361,1.3339,1.4084,0.0,1.4022,1.4211,1.4651,1.5525,1.5226,1.2437,0.0,0.0,0.0,0.0,0.0,0.0,0.0,0.0,0.0,0.0,0.0,0.0,0.0,0.0,0.0,0.0,0.0,0.0,0.0,0.0,0.0,0.0,0.0,0.0,0.0,0.0,0.0,0.0,0.0,0.0,0.0,0.0,0.0,0.0,0.0,0.0,0.0,0.0,0.0,0.0,0.0,0.0,0.0,0.0,0.0,0.0,0.0,0.0,0.0,0.0,0.0,0.0,0.0,1.0929,1.2627,1.4754,1.595,1.6158,1.6187,1.6145,1.6093,1.595,1.4774,0.0,0.0,0.0,0.0,0.0,0.0,0.0,0.0,0.0,0.0,0.0,0.0,0.0,0.0,0.0,0.0,0.0,0.0,0.0,0.0,0.0,0.0,0.0,0.0,0.0,0.0,0.0,0.0,0.591,0.6104,0.5755,0.0,0.0,0.0,0.0,0.0,0.0,0.0,0.0,0.0,0.0,1.3145,1.3711,1.4215,0.0,0.0,1.453,1.462,1.4868,1.4973,1.4443,1.2817,1.1964,0.0,0.0,0.0,0.0,0.0,0.0,0.0,0.0,0.0,0.0,0.0,0.0,0.0,0.0,0.0,0.0,0.0,0.0,0.0,0.0,0.0,0.0,0.0,0.0,0.0,0.0,0.0,0.0,0.0,0.0,0.0,0.0,0.0,0.0,0.0,0.0,0.0,0.0,0.0,0.0,0.0,0.0,0.0,0.0,0.0,0.0,0.0,0.0,0.0,0.0,0.0,0.0,1.1135,1.2874,1.5011,1.6153,1.629,1.6163,1.5948,1.5605,1.5519,1.4557,0.0,0.0,0.0,0.0,0.0,0.0,0.0,0.0,0.0,0.0,0.0,0.0,0.0,0.0,0.0,0.0,0.0,0.0,0.0,0.0,0.0,0.0,0.0,0.0,0.0,0.0,0.0,0.0,0.625,0.6205,0.582,0.0,0.0,0.0,0.0,0.0,0.0,0.0,0.0,0.0,0.0,1.3162,1.4353,1.4552,1.459,1.459,1.4482,1.4471,1.4698,1.4414,1.3869,1.3035,0.0,0.0,0.0,0.0,0.0,0.0,0.0,0.0,0.0,0.0,0.0,0.0,0.0,0.0,0.0,0.0,0.0,0.0,0.0,0.0,0.0,0.0,0.0,0.0,0.0,0.0,0.0,0.5003,0.0,0.0,0.4521,0.0,0.0,0.0,0.0,0.0,0.0,0.0,0.0,0.0,0.0,0.0,0.0,0.0,0.0,0.0,0.0,0.0,0.0,0.0,0.0,0.0,0.0,1.1548,1.2929,1.5032,1.6289,1.6658,1.6299,1.6095,1.6056,1.5654,1.4795,1.3461,0.0,0.0,0.0,0.0,0.0,0.0,0.0,0.0,0.0,0.0,0.0,0.0,0.0,0.0,0.0,0.0,0.0,0.0,0.0,0.0,0.0,0.0,0.0,0.0,0.0,0.0,0.5874,0.5813,0.579,0.0,0.0,0.0,0.0,0.0,0.0,0.0,0.0,0.0,1.086,1.2081,1.3086,1.3801,1.4053,1.4109,1.4145,1.3821,1.3701,1.4111,1.4121,1.3828,0.0,0.0,0.0,0.0,0.0,0.0,0.0,0.0,0.0,0.0,0.0,0.0,0.0,0.0,0.0,0.0,0.0,0.0,0.0,0.0,0.0,0.0,0.0,0.0,0.0,0.0,0.0,0.6347,0.5869,0.0,0.0,0.0,0.0,0.0,0.0,0.0,0.0,0.0,0.0,0.0,0.9662,1.0085,0.0,0.0,0.0,0.0,0.0,0.0,0.0,0.0,0.0,0.0,0.0,0.0,1.162,1.4098,1.5712,1.6719,1.7139,1.7054,1.6682,1.6114,1.5958,1.5009,1.3145,0.0,0.0,0.0,0.0,0.0,0.0,0.0,0.0,0.0,0.0,0.0,0.0,0.0,0.0,0.0,0.0,0.0,0.0,0.0,0.0,0.0,0.0,0.0,0.0,0.0,0.6348,0.0,0.0,0.0,0.0,0.0,0.0,0.0,0.0,0.0,0.0,0.0,0.969,1.0764,1.1581,1.2327,1.3055,1.3476,1.3912,0.0,0.0,0.0,0.0,0.0,0.0,0.0,0.0,0.0,0.0,0.0,0.0,0.0,0.0,1.2652,1.0115,0.9584,0.95,0.9473,0.0,0.0,0.0,0.0,0.0,0.0,0.0,0.0,0.0,0.0,0.0,0.0,0.0,0.0,0.7726,0.0,0.7102,0.0,0.0,0.0,0.0,0.0,0.0,0.0,0.0,1.0419,1.1128,1.1436,1.1648,1.1524,0.0,1.0777,0.9694,0.0,0.0,0.0,0.0,0.0,0.0,0.0,0.0,1.1977,1.4242,1.6027,1.7168,1.7568,1.7461,1.7109,1.6574,1.6251,1.5371,1.3809,1.2798,1.1604,0.0,0.0,0.0,0.0,0.0,0.0,0.0,0.0,0.0,0.0,0.0,0.0,0.0,0.0,0.0,0.0,0.0,0.0,0.0,0.0,0.0,0.0,0.0,0.6636,0.0,0.0,0.0,0.0,0.0,0.0,0.0,0.0,0.0,0.8288,0.9175,1.0174,1.1226,1.1646,1.2041,1.2501,0.0,0.0,0.0,0.0,0.0,0.0,0.0,1.4344,1.4489,1.4142,1.4007,1.4431,1.5021,1.542,1.5283,0.0,0.0,1.2201,1.1597,1.149,1.1489,1.1691,1.1924,1.2014,1.2503,1.2955,0.0,0.0,0.0,0.0,0.0,0.0,0.0,0.0,0.9464,0.9471,0.0,0.8721,0.0,0.0,0.0,0.0,0.0,0.9877,0.0,0.0,1.2701,1.3331,1.3053,1.3038,1.3045,1.3031,1.2694,1.2058,1.1107,0.9285,0.0,0.0,0.0,0.0,0.0,0.0,1.256,1.344,1.593,1.7512,1.7867,1.7507,1.7327,1.7311,1.6543,1.5869,1.541,1.4238,1.3149,1.2242,1.0244,0.0,0.0,0.0,0.0,0.0,0.0,0.0,0.0,0.0,0.0,0.0,0.0,0.0,0.0,0.0,0.0,0.0,0.0,0.0,0.0,0.7092,0.0,0.0,0.0,0.0,0.0,0.0,0.0,0.0,0.0,0.0,0.9658,1.0064,1.0799,1.2127,0.0,0.0,0.0,0.0,1.2546,1.1931,1.266,1.3368,1.3482,1.4775,1.5902,1.6366,0.0,0.0,1.653,1.6619,1.6668,1.629,1.6863,1.7031,1.5722,1.4739,1.4286,1.4551,1.4202,1.3959,1.4232,1.4523,1.468,1.247,0.0,0.0,0.0,0.0,1.104,1.1443,1.2036,1.1955,1.1599,1.1019,1.0748,0.0,0.0,0.0,0.0,0.0,0.0,1.1894,1.2482,1.3177,1.3697,1.4048,1.4086,1.4093,1.4033,1.3718,1.3426,1.3154,1.2365,1.0675,0.818,0.0,0.0,0.0,0.0,1.2549,1.4133,1.5211,1.5959,1.6341,1.6235,1.6287,1.6509,1.603,1.5773,1.5889,1.5557,1.4676,1.3178,1.2266,0.0,0.0,0.0,0.0,0.0,0.0,0.0,0.0,0.0,0.0,0.0,0.0,0.0,0.0,0.0,0.0,0.0,0.0,0.0,0.6211,0.6804,0.7026,0.0,0.0,0.0,0.0,0.0,0.0,0.0,0.0,0.0,1.0946,1.0749,1.0619,0.0,0.0,1.0808,1.1122,1.1772,1.2447,1.3054,1.3707,0.0,1.5556,1.5606,1.5933,1.7135,1.7784,1.805,1.7797,1.8081,1.8245,1.8005,1.8161,1.8199,1.7811,1.7092,1.6554,1.6477,1.6421,1.6413,1.656,1.6833,1.7064,1.4816,1.3682,1.2897,1.2701,1.2994,1.3001,1.3375,1.3922,1.3791,1.3587,1.3293,1.2912,1.231,1.1524,1.1113,0.0,0.0,0.0,1.3382,1.4165,1.4362,1.4728,1.5245,1.5267,1.516,1.5028,1.4714,1.4494,1.4362,1.3909,1.2643,1.0653,0.0,0.0,1.105,1.2059,1.3227,1.4503,1.5312,1.5793,1.5897,1.5752,1.5809,1.5986,1.5613,1.5497,1.5679,1.5417,1.4894,1.4071,1.3209,1.1907,0.0,0.0,0.0,0.0,0.0,0.0,0.0,0.0,0.0,0.0,0.0,0.6891,0.5569,0.0,0.0,0.0,0.6319,0.6687,0.702,0.7494,0.0,0.0,0.0,0.0,0.0,0.0,0.0,0.9575,1.0002,1.0636,1.1639,1.1485,1.1263,1.1296,1.1223,1.1216,1.1377,0.0,1.2501,1.307,1.3777,1.4579,1.5438,1.5693,1.6154,1.7249,1.7796,1.7987,1.7855,1.8365,1.8758,1.8739,1.8938,1.9175,1.9175,1.8712,1.8214,1.7877,1.782,1.7833,1.7852,1.799,1.8081,1.6492,1.6316,1.486,1.4392,1.4658,1.4658,1.4948,1.5425,1.5141,1.5379,1.584,1.4977,1.4607,1.4526,1.3631,0.0,1.4629,1.4643,1.5087,1.595,1.595,1.6104,1.6411,1.6404,1.6228,1.5943,1.5608,1.5309,1.5002,1.4465,1.4027,1.3638,1.3053,1.2507,1.216,1.3384,1.4221,1.4541,1.5807,1.6342,1.6068,1.5734,1.5568,1.5638,1.5256,1.507,1.5027,1.443,1.4273,1.4718,1.3374,1.2229,1.142,0.0,0.0,0.0,0.0,0.0,0.0,0.0,0.0,0.0,0.0,0.0,0.0,0.0,0.0,0.7422,0.7902,0.0,0.8796,0.8776,0.0,0.0,0.0,0.8818,0.9397,1.008,1.0647,1.0953,0.0,0.0,1.2013,1.2211,1.2498,1.2844,1.2804,1.2663,1.2371,1.2596,1.2723,1.256,1.3271,1.3941,1.431,1.5459,1.6554,1.6967,1.7172,1.7276,1.713,1.7768,1.8421,1.8386,1.9076,1.955,1.9608,1.9249,1.9208,1.8527,1.8481,1.8471,1.8453,1.8378,1.8255,1.7099,1.7023,1.6689,1.6294,1.5956,1.5956,1.6044,1.6176,1.6067,1.5987,1.5899,1.5679,1.5431,1.5196,1.5218,1.535,1.5584,1.5854,1.6081,1.6257,1.6265,1.6301,1.6411,1.6411,1.6375,1.6301,1.6184,1.6104,1.6023,1.592,1.5511,1.4951,1.4769,1.4039,1.284,1.3347,1.382,1.4149,1.4456,1.4737,1.4896,1.4584,1.4661,1.5219,1.4916,1.4722,1.472,1.4557,1.4262,1.3848,1.3475,1.2733,1.1584,1.016,0.0,0.0,0.0,0.0,0.0,0.0,0.0,0.0,0.0,0.8087,0.5962,0.0,0.8059,0.0,0.8041,0.8723,0.9065,0.9261,0.0,0.0,0.9878,1.0336,1.0845,1.1378,1.1717,1.1819,1.2038,1.2378,1.2832,1.2953,1.3186,1.3674,1.2986,1.2458,1.265,1.2938,1.316,1.3307,1.3709,1.4289,1.4921,1.6033,1.6839,1.6985,1.7131,1.7212,1.7041,1.7196,1.7334,1.718,1.731,1.7472,1.7521,1.7423,1.7398,1.7296,1.8175,1.9056,1.9095,1.9008,1.9017,1.7757,1.7765,1.7765,1.7472,1.7011,1.7011,1.7011,1.7018,1.7011,1.6835,1.6498,1.655,1.6528,1.6499,1.6637,1.6755,1.6777,1.6938,1.6938,1.6799,1.6791,1.6799,1.6799,1.6799,1.6726,1.6631,1.6631,1.6558,1.6419,1.6411,1.6191,1.5855,1.5848,1.5335,1.4333,1.4062,1.4056,1.424,1.4201,1.4355,1.4648,1.4262,1.4126,1.4361,1.4068,1.375,1.346,1.3324,1.3144,1.2849,1.2718,1.2249,1.1424,1.0502,0.9399,0.0,0.0,0.0,0.0,0.0,0.0,0.0,0.0,0.0,0.0,0.0,0.8911,0.8158,0.9126,0.9911,1.0241,1.0421,1.0674,1.1055,1.1403,1.1781,1.2186,1.2629,1.2886,1.2924,1.299,1.322,1.3554,1.3594,1.3768,1.4215,1.3714,1.33,1.3373,1.3494,1.3661,1.378,1.4088,1.45,1.5169,1.5733,1.6094,1.6087,1.606,1.6012,1.592,1.6133,1.6278,1.6308,1.6596,1.6935,1.7077,1.7117,1.7075,1.7185,1.7738,1.8194,1.8193,1.8776,1.9222,1.8256,1.8299,1.8299,1.816,1.7933,1.794,1.7867,1.7757,1.7757,1.7618,1.7344,1.7388,1.7611,1.7874,1.7882,1.7874,1.7882,1.7882,1.7706,1.7352,1.7391,1.7369,1.7286,1.7286,1.7186,1.6969,1.6961,1.6815,1.6543,1.6536,1.6492,1.6411,1.6411,1.6199,1.5833,1.5006,1.4592,1.4511,1.4509,1.4662,1.4885,1.4318,1.3821,1.3499,1.314,1.2636,1.1967,1.1745,1.1683,1.1858,1.1686,1.1475,1.1158,1.0761,0.9977,0.0,0.8185,0.0,0.0,0.0,0.0,0.0,0.0,0.0,0.0,0.9932,1.0148,0.9651,1.0682,1.1489,1.1811,1.1931,1.2199,1.2742,1.2931,1.3149,1.3425,1.3775,1.4022,1.4062,1.4126,1.4195,1.4202,1.4238,1.4302,1.4529,1.4529,1.4389,1.4249,1.4188,1.4202,1.4208,1.4416,1.47,1.499,1.5071,1.5064,1.5006,1.4913,1.4583,1.4657,1.5049,1.5459,1.5691,1.6221,1.6826,1.7213,1.7201,1.7201,1.7075,1.7075,1.7049,1.7038,1.787,1.8647,1.8108,1.8299,1.8299,1.8416,1.8606,1.8606,1.8152,1.7374,1.7374,1.749,1.7695,1.8006,1.8152,1.8211,1.8211,1.8211,1.8211,1.8211,1.8028,1.7673,1.7721,1.7534,1.7293,1.7286,1.7296,1.7245,1.7245,1.7208,1.7104,1.715,1.6879,1.6426,1.6411,1.6082,1.5498,0.0,0.0,0.0,1.4728,1.4849,1.4878,1.4311,1.3821,1.3492,1.2921,0.0,1.1723,1.1628,1.1506,1.1286,1.148,0.0,0.0,0.0,0.0,0.0,0.0,0.0,0.0,0.0,0.0,0.0,1.1041,1.067,0.9687,1.0828,1.1691,1.1875,1.235,1.2775,1.3104,1.3418,1.3549,1.3531,1.3963,1.4219,1.42,1.4522,1.4715,1.4777,1.4807,1.4841,1.4821,1.4841,1.4854,1.4908,1.4877,1.4901,1.4861,1.4821,1.4827,1.481,1.4843,1.4897,1.4957,1.5035,1.5068,1.4995,1.4975,1.4877,1.4914,1.4963,1.5093,1.5181,1.5315,1.5455,1.5531,1.5486,1.561,1.5538,1.6051,1.6554,1.693,1.7096,1.7139,1.8687,0.0,1.8782,1.8789,0.0,1.8789,1.8416,1.7823,1.7977,1.805,1.8064,1.8233,1.8394,1.8533,1.8379,1.8299,1.8291,1.8138,1.7977,1.7768,1.7816,1.7808,1.7801,1.7647,1.752,1.756,1.7359,1.7286,1.7286,1.7286,1.7165,1.685,1.6843,1.6682,1.6374,1.6213,1.5738,1.4948,1.5061,1.5141,1.5126,1.4706,1.4304,1.4012,1.3345,0.0,0.0,0.0,0.0,0.0,0.0,0.0,0.0,0.0,0.0,1.0799,1.0821,1.0902,1.1063,1.1355,1.1823,1.2501,1.2699,1.2343,1.1346,1.2317,1.306,1.3228,1.3536,1.3931,1.436,1.4518,1.4616,1.481,1.4909,1.4892,1.4865,1.4899,1.4929,1.4975,1.5015,1.5015,1.5015,1.5015,1.5075,1.515,1.5177,1.5231,1.5331,1.5137,1.5048,1.5144,1.5223,1.5237,1.5357,1.5391,1.5384,1.5378,1.5271,1.5229,1.5177,1.5102,1.5048,1.513,1.517,1.5256,1.5364,1.5391,1.5391,1.5417,1.5629,1.5944,1.6264,1.6594,1.6682,1.9168,1.9227,1.9272,1.9118,1.8877,1.8877,1.8723,1.8489,0.0,0.0,0.0,1.8445,1.8628,1.8855,1.8591,1.8474,1.846,1.8196,1.8043,1.7984,1.7984,1.8094,1.8284,1.8035,1.7904,1.7889,1.7625,1.7465,1.7374,1.7366,1.7337,1.7286,1.7286,1.7286,1.7264,1.7069,1.6565,1.5716,1.5528,1.5511,1.5462,1.5097,1.4754,1.4511,1.3836,1.3214,1.2602,1.235,1.2054,1.187,1.1907,1.1936,1.1943,1.2153,1.2259,1.2273,1.2565,1.2899,1.3155,1.3236,1.3433,1.3814,1.4187,1.4106,1.3411,1.3894,1.426,1.4318,1.4618,1.4988,1.5498,1.5339,1.5412,1.5933,1.5613,1.5346,1.5363,1.521,1.5154,1.5149,1.5189,1.5162,1.5144,1.5144,1.5197,1.5411,1.5471,1.5545,1.5712,1.5438,1.5237,1.5431,1.5478,1.5551,1.5752,1.5798,1.5825,1.5772,1.5611,1.5484,1.5438,1.5277,1.5231,1.5431,1.5471,1.5565,1.5765,1.5785,1.5825,1.5825,1.5638,1.5451,1.5502,1.61,1.6407,1.8698,1.8974,1.9227,1.925,1.9258,1.9206,1.9184,1.9118,1.8891,1.8767,1.8738,1.9016,1.9162,1.9258,1.9162,1.914,1.914,1.9096,1.8921,1.8657,1.865,1.8525,1.8299,1.8255,1.8233,1.8233,1.8182,1.8013,1.7772,1.775,1.7611,1.7369,1.7286,1.7286,1.7279,1.7235,1.7062,1.6697,1.6118,1.5848,1.584,1.5214,1.4787,1.4496,1.3857,1.3323,1.2958,1.2914,1.2848,1.2819,1.3075,1.3228,1.3228,1.3279,1.3294,1.3309,1.3601,1.3799,1.3857,1.4137,1.4523,1.5123,1.5701,1.565,1.4739,1.4973,1.5343,1.5571,1.5705,1.5922,1.6192,1.5826,1.5692,1.5938,1.5768,1.5583,1.5664,1.5613,1.5609,1.5638,1.5712,1.5685,1.5651,1.5671,1.5665,1.5745,1.5718,1.5778,1.5792,1.5718,1.5725,1.5758,1.5724,1.5738,1.5818,1.5825,1.5825,1.5825,1.5785,1.5732,1.5732,1.5678,1.5658,1.5745,1.5738,1.5765,1.5825,1.5825,1.5825,1.5825,1.5711,1.5678,1.5478,1.5618,1.5469,1.8959,1.9123,1.9279,1.9272,1.9272,1.9272,1.9272,1.9264,1.9118,1.9052,1.9067,1.9206,1.9272,1.9309,1.9096,1.906,1.9001,1.8825,1.8767,1.8789,1.8789,1.8811,1.8818,1.865,1.8569,1.8555,1.8379,1.8225,1.8094,1.8072,1.7999,1.7852,1.7684,1.7461,1.7293,1.7286,1.726,1.7106,1.6652,1.6389,1.6162,1.587,1.565,1.5538,1.5043,1.4743,1.4589,1.4414,1.4287,1.428,1.4457,1.4506,1.4545,1.4714,1.4816,1.4816,1.5101,1.5318,1.5318,1.5458,1.567,1.5921,1.6242,1.6242,1.5752,1.5855,1.6001,1.6148,1.6213,1.6359,1.6608,1.6451,1.6433,1.6697,1.6483,1.6317,1.6204,1.6059,1.5926,1.5805,1.5825,1.5825,1.5825,1.5825,1.5825,1.5825,1.5825,1.5825,1.5825,1.5825,1.5825,1.5825,1.5825,1.5825,1.5825,1.5825,1.5825,1.5825,1.5825,1.5825,1.5825,1.5825,1.5825,1.5825,1.5825,1.5825,1.5825,1.5825,1.5825,1.5825,1.5825,1.5752,1.5651,1.5518,1.542,1.9227,1.9227,1.9279,1.9272,1.9272,1.9272,1.9272,1.9272,1.9272,1.9272,1.9272,1.9272,1.9272,1.925,1.9008,1.8899,1.8862,1.8635,1.8657,1.8884,1.8899,1.9038,1.9235,1.9008,1.8899,1.8869,1.8635,1.8482,1.8416,1.8408,1.8372,1.8284,1.805,1.7801,1.7552,1.7498,1.7461,1.7428,1.7194,1.6961,1.6594,1.6558,1.6521,1.6499,1.617,1.6023,1.6009,1.5774,1.5643,1.5643,1.5635,1.5643,1.565,1.5877,1.6016,1.6038,1.6235,1.6411,1.6411,1.6485,1.6521,1.6521,1.6543,1.6587,1.6587,1.6587,1.655,1.6499,1.6513,1.6666,1.6916,1.6868,1.6924,1.7117,1.6972,1.6615,1.6447,1.6258,1.6028,1.5832,1.5825,1.5825,1.5825,1.5825,1.5825,1.5825,1.5825,1.5825,1.5825,1.5825,1.5825,1.5825,1.5825,1.5825,1.5825,1.5825,1.5825,1.5825,1.5825,1.5825,1.5825,1.5825,1.5825,1.5825,1.5825,1.5825,1.5825,1.5879,1.5927,1.5927,1.5967,1.6008,1.5988,1.5806,1.5681,1.8928,1.8974,1.9227,1.9272,1.9272,1.9272,1.9272,1.9272,1.9272,1.9272,1.9272,1.9272,1.9272,1.9272,1.9235,1.9213,1.9213,1.9199,1.9184,1.9213,1.9235,1.925,1.9272,1.9235,1.9235,1.9213,1.9169,1.8994,1.8752,1.8745,1.8591,1.8335,1.8269,1.824,1.8203,1.8196,1.8064,1.7779,1.7743,1.7567,1.7245,1.696,1.6851,1.6851,1.6551,1.6367,1.6382,1.6345,1.6331,1.6323,1.6331,1.6287,1.6338,1.636,1.6375,1.6375,1.6411,1.6411,1.6441,1.669,1.6866,1.6873,1.7091,1.7191,1.7238,1.7238,1.7113,1.6952,1.6914,1.7059,1.7188,1.6929,1.6784,1.6888,1.6604,1.6177,1.6062,1.5872,1.5825,1.5825,1.5892,1.5832,1.5851,1.5899,1.5872,1.5871,1.5939,1.5932,1.5925,1.5925,1.5899,1.5858,1.5832,1.5791,1.5784,1.5825,1.5825,1.5825,1.5825,1.5825,1.5825,1.5825,1.5825,1.5825,1.5825,1.5825,1.5879,1.5974,1.6123,1.6076,1.6211,1.6494,1.6487,1.6264,1.6066,1.8876,1.8921,1.9026,1.9175,1.9272,1.9272,1.9272,1.9272,1.9272,1.9272,1.9272,1.9272,1.9272,1.9272,1.9272,1.9272,1.9272,1.9272,1.9272,1.9272,1.9272,1.9272,1.9272,1.9272,1.9272,1.9272,1.9272,1.9206,1.9148,1.9081,1.8913,1.8621,1.8591,1.8496,1.8321,1.8299,1.8225,1.8108,1.8101,1.8035,1.7867,1.7399,1.7135,1.7121,1.7004,1.6938,1.6938,1.6938,1.6938,1.6938,1.6938,1.6938,1.6938,1.6938,1.6938,1.693,1.693,1.6938,1.6938,1.7238,1.7421,1.7428,1.7721,1.7904,1.7911,1.7904,1.7845,1.7743,1.7567,1.7596,1.7811,1.771,1.7613,1.7613,1.7523,1.7322,1.7093,1.6884,1.6737,1.6604,1.6402,1.6339,1.6297,1.6346,1.6346,1.6346,1.6339,1.6319,1.6339,1.6346,1.6273,1.6139,1.6092,1.6005,1.5879,1.5825,1.5825,1.5825,1.5825,1.5825,1.5825,1.5825,1.5825,1.5825,1.5825,1.5825,1.5825,1.5879,1.5974,1.6069,1.617,1.6359,1.6353,1.64,1.6284,1.8876,1.8921,1.8966,1.913,1.9272,1.9272,1.9272,1.9272,1.9272,1.9272,1.9272,1.9272,1.9272,1.9272,1.9272,1.9272,1.9272,1.9272,1.9272,1.9272,1.9272,1.9272,1.9272,1.9272,1.9272,1.9272,1.9272,1.9272,1.9272,1.9272,1.9155,1.895,1.8928,1.8803,1.8599,1.8569,1.8518,1.8445,1.8438,1.8394,1.8247,1.7845,1.7549,1.7596,1.7596,1.7549,1.7541,1.7596,1.7545,1.7417,1.7545,1.7505,1.7417,1.749,1.7596,1.7549,1.7549,1.7596,1.7549,1.7816,1.7947,1.7969,1.8182,1.8299,1.8299,1.8299,1.835,1.8394,1.8218,1.8182,1.8247,1.8299,1.8306,1.8207,1.8158,1.8108,1.7803,1.7662,1.7442,1.727,1.7052,1.6907,1.6857,1.6787,1.6767,1.6667,1.668,1.6707,1.6707,1.668,1.6607,1.6426,1.6393,1.6233,1.5919,1.5825,1.5825,1.5825,1.5825,1.5825,1.5825,1.5832,1.5927,1.5974,1.5974,1.6069,1.6163,1.6116,1.6157,1.6204,1.6353,1.6501,1.6636,1.669,1.669,1.8876,1.8928,1.9175,1.9272,1.9272,1.9272,1.9272,1.9272,1.9272,1.9272,1.9272,1.9272,1.9272,1.9272,1.9272,1.9272,1.9272,1.9272,1.9272,1.9272,1.9272,1.9272,1.9272,1.9272,1.9272,1.9272,1.9272,1.9272,1.9272,1.9272,1.9272,1.9242,1.9228,1.9228,1.9177,1.9162,1.9067,1.8796,1.8767,1.8635,1.8372,1.8291,1.8262,1.8262,1.824,1.8211,1.8225,1.8247,1.8101,1.7753,1.8057,1.8094,1.786,1.8072,1.8218,1.8225,1.8233,1.8233,1.8218,1.8255,1.8277,1.8291,1.8343,1.8328,1.8394,1.8401,1.8511,1.8745,1.873,1.8628,1.8416,1.8423,1.8294,1.8095,1.8002,1.7917,1.7704,1.7767,1.7626,1.7611,1.7596,1.7474,1.7168,1.707,1.7025,1.6881,1.679,1.6811,1.6851,1.676,1.679,1.6764,1.6653,1.6493,1.5985,1.5965,1.5932,1.5952,1.6019,1.5879,1.5893,1.5974,1.6089,1.6218,1.6353,1.6447,1.6595,1.6683,1.6824,1.6911,1.6958,1.7052,1.6871,1.6972,1.7019,1.8705,1.8928,1.9175,1.9272,1.9272,1.9272,1.9272,1.9272,1.9272,1.9272,1.9272,1.9272,1.9272,1.9272,1.9272,1.9272,1.9272,1.9272,1.9272,1.9272,1.9272,1.9272,1.9272,1.9272,1.9272,1.9272,1.9272,1.9272,1.9272,1.9272,1.9272,1.9272,1.9272,1.9272,1.9272,1.9272,1.9213,1.9118,1.9103,1.9045,1.8928,1.8928,1.8972,1.895,1.8511,1.8299,1.8299,1.8299,1.8247,1.8138,1.8247,1.8255,1.8152,1.8233,1.8299,1.8299,1.8299,1.8299,1.8321,1.8503,1.8613,1.8628,1.8818,1.8906,1.8928,1.8928,1.8979,1.9118,1.9148,1.9074,1.9023,1.8921,1.8921,1.8826,1.8774,1.8702,1.8672,1.8525,1.8423,1.8423,1.8262,1.8042,1.7956,1.7946,1.7894,1.7784,1.7778,1.7661,1.763,1.7681,1.7644,1.7347,1.7242,1.7221,1.7029,1.6603,1.64,1.64,1.6393,1.6273,1.6254,1.6381,1.6532,1.6423,1.6599,1.676,1.6836,1.6744,1.6972,1.6958,1.7052,1.7192,1.7113,1.7113,1.7153,1.875,1.9018,1.922,1.9272,1.9272,1.9272,1.9272,1.9272,1.9272,1.9272,1.9272,1.9272,1.9272,1.9272,1.9272,1.9272,1.9272,1.9272,1.9272,1.9272,1.9272,1.9272,1.9272,1.9272,1.9272,1.9272,1.9272,1.9272,1.9272,1.9272,1.9272,1.9272,1.9272,1.9272,1.9272,1.9272,1.9272,1.9272,1.9272,1.9272,1.9272,1.9272,1.9272,1.922,1.884,1.8621,1.8621,1.8613,1.8555,1.8489,1.8555,1.8621,1.8613,1.8613,1.8613,1.8621,1.8621,1.8621,1.8635,1.8825,1.8942,1.895,1.9133,1.9272,1.9272,1.9272,1.9272,1.9272,1.9272,1.9272,1.9272,1.9264,1.9272,1.9272,1.9272,1.9272,1.9272,1.9116,1.9004,1.899,1.8812,1.867,1.8593,1.8586,1.8461,1.8429,1.8422,1.8318,1.822,1.8258,1.8314,1.7964,1.787,1.7846,1.7754,1.7496,1.6998,1.69,1.6723,1.6636,1.6662,1.6798,1.6898,1.6767,1.6814,1.697,1.6994,1.6895,1.6852,1.6852,1.7005,1.7192,1.72,1.7239,1.7276,1.9078,1.9279,1.9272,1.9272,1.9272,1.9272,1.9272,1.9272,1.9272,1.9272,1.9272,1.9272,1.9272,1.9272,1.9272,1.9272,1.9272,1.9272,1.9272,1.9272,1.9272,1.9272,1.9272,1.9272,1.9272,1.9272,1.9272,1.9272,1.9272,1.9272,1.9272,1.9272,1.9272,1.9272,1.9272,1.9272,1.9272,1.9272,1.9272,1.9272,1.9272,1.9272,1.9272,1.9272,1.922,1.9191,1.9228,1.922,1.9067,1.8855,1.906,1.925,1.9191,1.9191,1.9235,1.9191,1.9228,1.9242,1.9228,1.922,1.922,1.9228,1.9264,1.9272,1.9272,1.9272,1.9272,1.9272,1.9272,1.9272,1.9272,1.9272,1.9272,1.9272,1.9272,1.9272,1.9272,1.9272,1.9272,1.9279,1.922,1.9175,1.8974,1.8921,1.881,1.8586,1.8527,1.8482,1.8429,1.8482,1.8468,1.8401,1.8352,1.8327,1.839,1.8321,1.7811,1.7383,1.7133,1.6972,1.7118,1.7213,1.74,1.7345,1.7575,1.7727,1.7597,1.7496,1.7413,1.7377,1.7385,1.7392,1.7512,1.7563,1.7432,1.9227,1.9272,1.9272,1.9272,1.9272,1.9272,1.9272,1.9279,1.9272,1.9272,1.9272,1.9272,1.9272,1.9279,1.9272,1.9279,1.9272,1.9272,1.9272,1.9272,1.9272,1.9272,1.9272,1.9272,1.9272,1.9272,1.9272,1.9272,1.9272,1.9272,1.9272,1.9272,1.9272,1.9272,1.9272,1.9272,1.9272,1.9272,1.9272,1.9272,1.9272,1.9272,1.9272,1.9272,1.9272,1.9272,1.9272,1.9272,1.922,1.9118,1.922,1.9272,1.9272,1.9272,1.9272,1.9272,1.9272,1.9272,1.9272,1.9272,1.9272,1.9272,1.9272,1.9272,1.9272,1.9272,1.9272,1.9272,1.9272,1.9272,1.9272,1.9272,1.9272,1.9272,1.9272,1.9272,1.9272,1.9272,1.9272,1.9272,1.9272,1.9227,1.9175,1.9175,1.9123,1.9004,1.8952,1.8959,1.881,1.8855,1.8907,1.8803,1.881,1.8803,1.8795,1.8743,1.841,1.8058,1.7798,1.7503,1.7551,1.7712,1.7844,1.8017,1.8202,1.8249,1.8174,1.8035,1.7904,1.7925,1.7955,1.7977,1.7991,1.7918,1.7786,1.9272,1.9338,1.9456,1.9507,1.9529,1.9572,1.963,1.963,1.963,1.9638,1.9638,1.9638,1.9638,1.9608,1.9513,1.9507,1.95,1.9397,1.9272,1.9272,1.9272,1.9272,1.9272,1.9272,1.9272,1.9272,1.9272,1.9272,1.9272,1.9272,1.9272,1.9272,1.9272,1.9272,1.9272,1.9272,1.9272,1.9272,1.9272,1.9272,1.9272,1.9272,1.9272,1.9272,1.9272,1.9272,1.9272,1.9272,1.9272,1.9272,1.9272,1.9272,1.9272,1.9272,1.9272,1.9272,1.9272,1.9272,1.9272,1.9272,1.9272,1.9272,1.9272,1.9272,1.9272,1.9272,1.9272,1.9272,1.9272,1.9272,1.9272,1.9272,1.9272,1.9272,1.9272,1.9272,1.9272,1.9272,1.9272,1.9272,1.9272,1.9272,1.9272,1.9272,1.9272,1.9272,1.9272,1.9279,1.9123,1.9168,1.9123,1.9071,1.9071,1.9123,1.922,1.9063,1.8907,1.8693,1.8495,1.8188,1.8053,1.8304,1.8467,1.8498,1.8672,1.8591,1.846,1.8299,1.8167,1.8291,1.8357,1.824,1.8167,1.8196,1.8108,1.9338,1.9367,1.9713,1.9837,1.9881,2.0069,2.0103,2.0146,2.0139,2.011,2.0132,2.0088,2.0124,2.0142,1.9894,1.9791,1.9733,1.9477,1.9352,1.9338,1.9308,1.9272,1.9272,1.9272,1.9272,1.9272,1.9272,1.9272,1.9272,1.9272,1.9272,1.9272,1.9272,1.9272,1.9272,1.9272,1.9272,1.9272,1.9272,1.9272,1.9272,1.9272,1.9272,1.9272,1.9272,1.9272,1.9272,1.9272,1.9272,1.9272,1.9272,1.9272,1.9272,1.9272,1.9272,1.9272,1.9272,1.9272,1.9272,1.9272,1.9272,1.9272,1.9272,1.9272,1.9272,1.9272,1.9272,1.9272,1.9272,1.9272,1.9272,1.9272,1.9272,1.9272,1.9272,1.9272,1.9272,1.9272,1.9272,1.9272,1.9272,1.9272,1.9272,1.9272,1.9272,1.9272,1.9272,1.9279,1.9279,1.9272,1.9272,1.9279,1.9227,1.9227,1.9272,1.922,1.9063,1.9011,1.8907,1.876,1.8561,1.8769,1.888,1.8978,1.8935,1.8862,1.8774,1.8635,1.8547,1.8584,1.854,1.8386,1.8408,1.8518,1.8467,1.9981,1.9996,2.0077,2.0113,2.012,2.0208,2.0197,2.0183,2.0197,2.0234,2.0197,2.0183,2.0219,2.0176,2.0172,2.012,2.0033,1.9777,1.9683,1.9647,1.9426,1.9286,1.9272,1.9272,1.9272,1.9272,1.9272,1.9272,1.9272,1.9272,1.9272,1.9272,1.9272,1.9272,1.9272,1.9272,1.9272,1.9272,1.9272,1.9272,1.9272,1.9272,1.9272,1.9272,1.9272,1.9272,1.9272,1.9272,1.9272,1.9272,1.9272,1.9272,1.9272,1.9272,1.9272,1.9272,1.9272,1.9272,1.9272,1.9272,1.9272,1.9272,1.9272,1.9272,1.9272,1.9272,1.9272,1.9272,1.9272,1.9272,1.9272,1.9272,1.9272,1.9272,1.9272,1.9272,1.9272,1.9272,1.9272,1.9272,1.9272,1.9272,1.9272,1.9272,1.9272,1.9272,1.9272,1.9272,1.9272,1.9272,1.9272,1.9272,1.9279,1.9279,1.9272,1.9272,1.9272,1.922,1.9168,1.9168,1.9034,1.9086,1.9198,1.922,1.9162,1.9052,1.9103,1.9074,1.9016,1.8877,1.8906,1.8862,1.8957,1.9045,1.8877,2.0183,2.0197,2.0329,2.0387,2.0464,2.0589,2.0647,2.064,2.0647,2.0591,2.0591,2.064,2.0591,2.064,2.0453,2.0442,2.0343,2.0106,1.9974,1.9908,1.9638,1.9425,1.9316,1.9272,1.9272,1.9272,1.9272,1.9272,1.9272,1.9272,1.9272,1.9272,1.9272,1.9272,1.9272,1.9272,1.9272,1.9272,1.9272,1.9272,1.9272,1.9272,1.9272,1.9272,1.9272,1.9272,1.9272,1.9272,1.9272,1.9272,1.9272,1.9272,1.9272,1.9272,1.9272,1.9272,1.9272,1.9272,1.9272,1.9272,1.9272,1.9272,1.9272,1.9272,1.9272,1.9272,1.9272,1.9272,1.9272,1.9272,1.9272,1.9272,1.9272,1.9272,1.9272,1.9272,1.9272,1.9272,1.9272,1.9272,1.9272,1.9272,1.9272,1.9272,1.9272,1.9272,1.9272,1.9272,1.9272,1.9272,1.9272,1.9272,1.9272,1.9272,1.9272,1.9272,1.9272,1.9272,1.9272,1.9272,1.9272,1.9272,1.9272,1.9272,1.9272,1.9272,1.9272,1.9272,1.9213,1.9155,1.9264,1.9272,1.9272,1.9272,1.9133,2.0285,2.0307,2.0655,2.0772,2.0815,2.1079,2.1137,2.1189,2.1145,2.1152,2.1145,2.1189,2.1115,2.1196,2.0867,2.0772,2.0757,2.0435,2.0274,2.0142,1.9923,1.9696,1.9491,1.9323,1.9286,1.9272,1.9272,1.9272,1.9272,1.9272,1.9272,1.9272,1.9272,1.9272,1.9272,1.9272,1.9272,1.9272,1.9272,1.9272,1.9272,1.9272,1.9272,1.9272,1.9272,1.9272,1.9272,1.9272,1.9272,1.9272,1.9272,1.9272,1.9272,1.9272,1.9272,1.9272,1.9272,1.9272,1.9272,1.9272,1.9272,1.9272,1.9272,1.9272,1.9272,1.9272,1.9272,1.9272,1.9272,1.9272,1.9272,1.9272,1.9272,1.9272,1.9272,1.9272,1.9272,1.9272,1.9272,1.9272,1.9272,1.9272,1.9272,1.9272,1.9272,1.9272,1.9272,1.9272,1.9272,1.9272,1.9272,1.9272,1.9272,1.9272,1.9272,1.9272,1.9272,1.9272,1.9272,1.9272,1.9272,1.9272,1.9272,1.9272,1.9272,1.9272,1.9272,1.9272,1.9272,1.9272,1.9272,1.9272,1.9272,1.9272,1.9191,2.1006,2.1006,2.1072,2.1108,2.1115,2.1181,2.1211,2.1211,2.1211,2.1211,2.1211,2.1211,2.1211,2.1203,2.1115,2.1108,2.1042,2.0757,2.0494,2.023,2.0132,2.0113,1.9908,1.9579,1.9308,1.9301,1.9279,1.9279,1.9279,1.9272,1.9272,1.9272,1.9272,1.9272,1.9272,1.9272,1.9272,1.9272,1.9272,1.9272,1.9272,1.9272,1.9272,1.9272,1.9272,1.9272,1.9272,1.9272,1.9272,1.9272,1.9272,1.9272,1.9272,1.9272,1.9272,1.9272,1.9272,1.9272,1.9272,1.9272,1.9272,1.9272,1.9272,1.9272,1.9272,1.9272,1.9272,1.9272,1.9272,1.9272,1.9272,1.9272,1.9272,1.9272,1.9272,1.9272,1.9272,1.9272,1.9272,1.9272,1.9272,1.9272,1.9272,1.9272,1.9272,1.9272,1.9272,1.9272,1.9272,1.9272,1.9272,1.9272,1.9272,1.9272,1.9272,1.9272,1.9272,1.9272,1.9272,1.9272,1.9272,1.9272,1.9272,1.9272,1.9272,1.9272,1.9272,1.9272,1.9272,1.9272,1.9272,1.9272,1.9272,1.9272,1.9272,2.1211,2.1211,2.1211,2.1211,2.1211,2.1211,2.1211,2.1211,2.1211,2.1211,2.1211,2.1211,2.1211,2.1211,2.1211,2.1203,2.1174,2.1042,2.0867,2.0684,2.0567,2.0409,2.0377,1.9989,1.9674,1.9542,1.9513,1.9492,1.9323,1.9294,1.9272,1.9272,1.9279,1.9272,1.9272,1.9272,1.9272,1.9272,1.9272,1.9272,1.9272,1.9272,1.9272,1.9272,1.9272,1.9272,1.9272,1.9272,1.9272,1.9272,1.9272,1.9272,1.9272,1.9272,1.9272,1.9272,1.9272,1.9272,1.9272,1.9272,1.9272,1.9272,1.9272,1.9272,1.9272,1.9272,1.9272,1.9272,1.9272,1.9272,1.9272,1.9272,1.9272,1.9272,1.9272,1.9272,1.9272,1.9272,1.9272,1.9272,1.9272,1.9272,1.9272,1.9272,1.9272,1.9272,1.9272,1.9272,1.9272,1.9272,1.9272,1.9272,1.9272,1.9272,1.9272,1.9272,1.9272,1.9272,1.9272,1.9272,1.9272,1.9272,1.9272,1.9272,1.9272,1.9272,1.9272,1.9272,1.9272,1.9272,1.9272,1.9272,1.9272,1.9272,1.9272,2.1211,2.1211,2.1211,2.1211,2.1211,2.1211,2.1211,2.1211,2.1211,2.1211,2.1211,2.1211,2.1211,2.1211,2.1211,2.1211,2.1203,2.1203,2.1108,2.1072,2.0889,2.0808,2.0713,2.0508,2.023,1.9938,1.9857,1.9696,1.9542,1.9425,1.955,1.9447,1.9367,1.9403,1.9374,1.9286,1.9272,1.9272,1.9272,1.9272,1.9272,1.9272,1.9272,1.9272,1.9272,1.9272,1.9272,1.9272,1.9272,1.9272,1.9272,1.9272,1.9272,1.9272,1.9272,1.9272,1.9272,1.9272,1.9272,1.9272,1.9272,1.9272,1.9272,1.9272,1.9272,1.9272,1.9272,1.9272,1.9272,1.9272,1.9272,1.9272,1.9272,1.9272,1.9272,1.9272,1.9272,1.9272,1.9272,1.9272,1.9272,1.9272,1.9272,1.9272,1.9272,1.9272,1.9272,1.9272,1.9272,1.9272,1.9272,1.9272,1.9272,1.9272,1.9272,1.9272,1.9272,1.9272,1.9272,1.9272,1.9272,1.9272,1.9272,1.9272,1.9272,1.9272,1.9272,1.9272,1.9272,1.9272,1.9272,1.9272,1.9272,1.9272,1.9324,2.1211,2.1211,2.1211,2.1211,2.1211,2.1211,2.1203,2.1211,2.1196,2.1211,2.1196,2.1211,2.1211,2.1211,2.1211,2.1211,2.1211,2.1211,2.1211,2.1211,2.1108,2.1086,2.1042,2.0969,2.0801,2.0567,2.034,2.0142,2.0047,2.0022,1.9967,1.9981,1.9798,1.9735,1.9608,1.9447,1.9367,1.9389,1.9352,1.933,1.9323,1.9323,1.9323,1.9338,1.9367,1.9352,1.9301,1.9286,1.9272,1.9272,1.9272,1.9286,1.933,1.933,1.9301,1.9272,1.9272,1.9272,1.9272,1.9272,1.9272,1.9272,1.9301,1.9301,1.9294,1.9316,1.9396,1.9338,1.9316,1.9331,1.9272,1.9286,1.9272,1.9272,1.9272,1.9272,1.9272,1.9272,1.9272,1.9272,1.9272,1.9272,1.9272,1.9272,1.9272,1.9272,1.9272,1.9272,1.9272,1.9272,1.9272,1.9272,1.9272,1.9272,1.9272,1.9272,1.9272,1.9272,1.9272,1.9272,1.9272,1.9272,1.9272,1.9272,1.9272,1.9272,1.9272,1.9272,1.9272,1.9272,1.9272,1.9272,1.9272,1.9324,1.9428,2.1211,2.1211,2.1211,2.1211,2.1211,2.1211,2.1108,2.0998,2.1123,2.1108,2.105,2.1123,2.1211,2.1211,2.1211,2.1211,2.1211,2.1211,2.1211,2.1211,2.1211,2.1211,2.1211,2.1211,2.1123,2.0962,2.0801,2.0467,2.0205,2.0168,2.0219,2.0146,2.0069,2.0011,1.9989,1.9879,1.9762,1.974,1.9616,1.958,1.958,1.958,1.9528,1.9557,1.9667,1.9681,1.9542,1.958,1.9623,1.9681,1.9462,1.9506,1.9616,1.9601,1.9507,1.9338,1.9301,1.9286,1.9279,1.9272,1.9272,1.9294,1.9418,1.9573,1.9579,1.9674,1.9733,1.9689,1.9374,1.9404,1.9513,1.9389,1.9286,1.9272,1.9294,1.9301,1.9279,1.9286,1.9286,1.9286,1.9272,1.9272,1.9272,1.9272,1.9272,1.9272,1.9272,1.9272,1.9272,1.9272,1.9272,1.9272,1.9272,1.9272,1.9272,1.9272,1.9272,1.9272,1.9272,1.9272,1.9272,1.9272,1.9272,1.9272,1.9272,1.9272,1.9272,1.9272,1.9272,1.9272,1.9272,1.9272,1.9272,1.9324,1.9583,2.1211,2.1211,2.1211,2.1211,2.1211,2.1211,2.1028,2.083,2.1079,2.1035,2.0794,2.105,2.1211,2.1211,2.1211,2.1211,2.1211,2.1211,2.1211,2.1211,2.1211,2.1211,2.1211,2.1211,2.1189,2.1159,2.113,2.094,2.0611,2.046,2.0409,2.0416,2.042,2.0278,2.0263,2.0139,2.0212,2.0164,2.0018,1.9918,1.9911,1.9857,1.9857,1.9864,2.0106,2.0084,1.9886,1.9857,1.9959,1.9989,1.9835,1.9718,2.003,1.9989,1.9793,1.9573,1.9469,1.9469,1.9491,1.9513,1.9572,1.9594,1.9733,1.9828,1.9894,2.0018,2.0124,2.0081,1.9864,1.9608,1.9791,1.9638,1.9528,1.9513,1.952,1.9462,1.9433,1.9463,1.936,1.9338,1.9294,1.9272,1.9272,1.9272,1.9272,1.9272,1.9272,1.9272,1.9272,1.9272,1.9272,1.9272,1.9272,1.9272,1.9272,1.9272,1.9272,1.9272,1.9272,1.9272,1.9272,1.9272,1.9272,1.9272,1.9272,1.9272,1.9272,1.9272,1.9272,1.9272,1.9272,1.9272,1.9279,1.9576,1.9931,2.1211,2.1211,2.1211,2.1211,2.1211,2.1211,2.1028,2.0786,2.1072,2.1028,2.0686,2.1057,2.1211,2.1211,2.1211,2.1211,2.1211,2.1211,2.1211,2.1211,2.1211,2.1211,2.1211,2.1211,2.1211,2.1211,2.1211,2.1189,2.1006,2.0991,2.1042,2.0976,2.0764,2.0669,2.0591,2.0431,2.019,2.0197,2.0216,2.0179,2.0124,2.0179,2.0179,2.0146,2.0205,2.0212,2.0208,2.0179,2.019,2.0205,2.0139,2.0095,2.0168,2.0223,2.0172,2.0073,2.0066,2.0059,2.0015,1.9964,2.0011,2.0003,2.0135,2.0172,2.0245,2.0237,2.0249,2.0183,2.0113,2.0098,2.0142,2.0066,2.0051,2.0055,1.9981,1.9872,1.9777,1.9625,1.9566,1.9396,1.9352,1.9301,1.9272,1.9272,1.9272,1.9272,1.9272,1.9272,1.9272,1.9272,1.9272,1.9272,1.9272,1.9272,1.9272,1.9272,1.9324,1.9324,1.9272,1.9272,1.9272,1.9272,1.9272,1.9272,1.9272,1.9272,1.9272,1.9272,1.9272,1.9376,1.9532,1.9428,1.9331,1.9732,2.0336,2.1211,2.1211,2.1211,2.1211,2.1211,2.1211,2.1028,2.0837,2.1064,2.1028,2.083,2.1064,2.1211,2.1211,2.1211,2.1211,2.1211,2.1211,2.1211,2.1211,2.1211,2.1211,2.1211,2.1211,2.1211,2.1211,2.1211,2.1211,2.1211,2.1211,2.1211,2.1181,2.1079,2.0998,2.0962,2.0852,2.0759,2.0701,2.0577,2.0523,2.046,2.046,2.0516,2.0523,2.0676,2.0655,2.0489,2.046,2.057,2.0591,2.0453,2.045,2.0625,2.0647,2.0511,2.0737,2.073,2.0555,2.0241,2.0212,2.0227,2.0263,2.0358,2.0596,2.0684,2.0618,2.0611,2.0786,2.0435,2.0292,2.0365,2.0278,2.0212,2.0197,2.0285,2.0168,2.0047,1.9889,1.9727,1.9595,1.947,1.9381,1.933,1.9286,1.9279,1.9272,1.9272,1.9272,1.9272,1.9272,1.9272,1.9272,1.9272,1.9272,1.9272,1.9272,1.9376,1.9376,1.9331,1.9331,1.9272,1.9272,1.9272,1.9272,1.9272,1.9272,1.9272,1.9272,1.9272,1.9532,1.9783,1.9887,1.9983,2.0285,2.0885,2.113,2.1211,2.1211,2.1211,2.1211,2.1211,2.1028,2.0779,2.1064,2.1028,2.0874,2.105,2.1211,2.1211,2.1211,2.1211,2.1211,2.1211,2.1211,2.1211,2.1211,2.1211,2.1211,2.1211,2.1211,2.1211,2.1211,2.1211,2.1211,2.1211,2.1211,2.1211,2.1181,2.1181,2.1196,2.1152,2.1123,2.1108,2.094,2.0852,2.0845,2.0845,2.0845,2.0911,2.1028,2.1094,2.0889,2.0845,2.0998,2.1006,2.0801,2.0772,2.102,2.0962,2.0925,2.1079,2.1108,2.0962,2.0628,2.0511,2.0424,2.0497,2.0599,2.0925,2.1072,2.0969,2.0896,2.1115,2.083,2.0698,2.0728,2.057,2.0611,2.0581,2.0504,2.0402,2.03,2.0208,2.0018,1.9842,1.9696,1.9551,1.9433,1.933,1.9294,1.9279,1.9272,1.9272,1.9272,1.9272,1.9272,1.9272,1.9272,1.9272,1.9272,1.9324,1.9376,1.9524,1.948,1.9583,1.9732,1.948,1.9272,1.9272,1.9272,1.9272,1.9272,1.9272,1.9324,1.9524,1.9879,2.0483,2.079,2.1089,2.1591,2.094,2.1211,2.1211,2.1211,2.1211,2.1211,2.102,2.0794,2.1079,2.1035,2.0837,2.1042,2.1211,2.1211,2.1211,2.1211,2.1211,2.1211,2.1211,2.1211,2.1211,2.1211,2.1211,2.1211,2.1211,2.1211,2.1211,2.1211,2.1211,2.1211,2.1211,2.1211,2.1211,2.1211,2.1211,2.1211,2.1211,2.1203,2.1123,2.1123,2.1123,2.113,2.113,2.1137,2.1181,2.1189,2.1174,2.113,2.113,2.1203,2.1072,2.1013,2.1152,2.1137,2.1159,2.1181,2.1211,2.1108,2.1006,2.0984,2.1086,2.1123,2.113,2.113,2.1189,2.1203,2.1196,2.1196,2.1013,2.105,2.1108,2.113,2.0984,2.0947,2.0867,2.0808,2.0742,2.0684,2.0479,2.0223,1.9996,1.9791,1.963,1.955,1.933,1.9301,1.9279,1.9272,1.9272,1.9272,1.9272,1.9272,1.9272,1.9272,1.9272,1.9376,1.9532,1.9879,2.0034,2.0233,2.0483,2.013,1.968,1.9272,1.9272,1.9272,1.9272,1.9272,1.9376,1.9524,2.0027,2.1089,2.1895,2.2391,2.2894,2.0918,2.1203,2.1211,2.1211,2.1211,2.1211,2.1137,2.1057,2.1152,2.1152,2.102,2.1152,2.1211,2.1211,2.1211,2.1211,2.1211,2.1211,2.1211,2.1211,2.1211,2.1211,2.1211,2.1211,2.1211,2.1211,2.1211,2.1211,2.1211,2.1211,2.1211,2.1211,2.1211,2.1211,2.1211,2.1211,2.1211,2.1211,2.1211,2.1211,2.1211,2.1211,2.1211,2.1211,2.1211,2.1211,2.1203,2.1203,2.1211,2.1211,2.1211,2.1211,2.1211,2.1211,2.1211,2.1211,2.1211,2.1211,2.1211,2.1211,2.1211,2.1211,2.1203,2.1211,2.1211,2.1211,2.1211,2.1211,2.1211,2.1211,2.1203,2.1196,2.1167,2.1196,2.1174,2.1108,2.105,2.0969,2.0859,2.0552,2.0296,2.0069,1.9923,1.9784,1.9535,1.9323,1.9294,1.9272,1.9272,1.9272,1.9272,1.9272,1.9272,1.9272,1.9272,1.948,1.9732,2.0181,2.0585,2.0885,2.114,2.0834,2.038,1.9828,1.9428,1.9576,1.9576,1.9376,1.9524,2.0027,2.0987,2.2139,2.2894,2.3601,2.3998,2.0823,2.1189,2.1211,2.1211,2.1211,2.1211,2.1211,2.1211,2.1203,2.1211,2.1211,2.1211,2.1211,2.1211,2.1211,2.1211,2.1211,2.1211,2.1211,2.1211,2.1211,2.1211,2.1211,2.1211,2.1211,2.1211,2.1211,2.1211,2.1211,2.1211,2.1211,2.1211,2.1211,2.1211,2.1211,2.1211,2.1211,2.1211,2.1211,2.1211,2.1211,2.1211,2.1211,2.1211,2.1211,2.1211,2.1211,2.1211,2.1211,2.1211,2.1211,2.1211,2.1211,2.1211,2.1211,2.1211,2.1211,2.1211,2.1211,2.1211,2.1211,2.1211,2.1211,2.1211,2.1211,2.1211,2.1211,2.1211,2.1211,2.1211,2.1211,2.1211,2.1211,2.1211,2.1211,2.1159,2.1167,2.1108,2.1028,2.0874,2.0625,2.0369,2.0179,2.0057,1.9669,1.9441,1.9294,1.9272,1.9272,1.9272,1.9272,1.9272,1.9272,1.9272,1.9324,1.948,1.9835,2.0987,2.1387,2.1582,2.1684,2.1481,2.1336,2.1089,2.0688,2.0181,2.0181,2.0431,2.0577,2.0731,2.1937,2.3244,2.4066,2.4716,2.4766,2.0625,2.1181,2.1203,2.1211,2.1211,2.1211,2.1211,2.1211,2.1211,2.1211,2.1211,2.1211,2.1211,2.1211,2.1211,2.1211,2.1211,2.1211,2.1211,2.1211,2.1211,2.1211,2.1211,2.1211,2.1211,2.1211,2.1211,2.1211,2.1211,2.1211,2.1211,2.1211,2.1211,2.1211,2.1211,2.1211,2.1211,2.1211,2.1211,2.1211,2.1211,2.1211,2.1211,2.1211,2.1211,2.1211,2.1211,2.1211,2.1211,2.1211,2.1211,2.1211,2.1211,2.1211,2.1211,2.1211,2.1211,2.1211,2.1211,2.1211,2.1211,2.1211,2.1211,2.1211,2.1211,2.1211,2.1211,2.1211,2.1211,2.1211,2.1211,2.1211,2.1211,2.1211,2.1211,2.1211,2.1211,2.1203,2.1115,2.1064,2.0889,2.0676,2.0472,2.0263,1.9854,1.9574,1.9382,1.9272,1.9279,1.9272,1.9279,1.9272,1.9272,1.9272,1.9324,1.9428,1.9983,2.1285,2.2181,2.2484,2.2685,2.2693,2.2542,2.2291,2.1844,2.1285,2.1438,2.1676,2.1836,2.2139,2.3194,2.4304,2.5177,2.5586,2.5479,2.0486,2.0903,2.1115,2.1211,2.1211,2.1211,2.1211,2.1211,2.1211,2.1211,2.1211,2.1211,2.1211,2.1211,2.1211,2.1211,2.1211,2.1211,2.1211,2.1211,2.1211,2.1211,2.1211,2.1211,2.1211,2.1211,2.1211,2.1211,2.1211,2.1211,2.1211,2.1211,2.1211,2.1211,2.1211,2.1211,2.1211,2.1211,2.1211,2.1211,2.1211,2.1211,2.1211,2.1211,2.1211,2.1211,2.1211,2.1211,2.1211,2.1211,2.1211,2.1211,2.1211,2.1211,2.1211,2.1211,2.1211,2.1211,2.1211,2.1211,2.1211,2.1211,2.1211,2.1211,2.1211,2.1211,2.1211,2.1211,2.1211,2.1211,2.1211,2.1211,2.1211,2.1211,2.1211,2.1211,2.1211,2.1211,2.1174,2.1167,2.1057,2.0938,2.0795,2.1148,2.0833,2.0408,2.0249,1.9554,1.9346,1.9331,1.9331,1.9272,1.9272,1.9272,1.9376,1.9931,2.0585,2.1785,2.2835,2.3534,2.3683,2.38,2.3393,2.3003,2.2693,2.2442,2.2593,2.2844,2.3144,2.3642,2.4452,2.4913,2.5382,2.5684,2.5723,2.0428,2.075,2.1072,2.1211,2.1211,2.1211,2.1211,2.1211,2.1211,2.1211,2.1211,2.1211,2.1211,2.1211,2.1211,2.1211,2.1211,2.1211,2.1211,2.1211,2.1211,2.1211,2.1211,2.1211,2.1211,2.1211,2.1211,2.1211,2.1211,2.1211,2.1211,2.1211,2.1211,2.1211,2.1211,2.1211,2.1211,2.1211,2.1211,2.1211,2.1211,2.1211,2.1211,2.1211,2.1211,2.1211,2.1211,2.1211,2.1211,2.1211,2.1211,2.1211,2.1211,2.1211,2.1211,2.1211,2.1211,2.1211,2.1211,2.1211,2.1211,2.1211,2.1211,2.1211,2.1211,2.1211,2.1211,2.1211,2.1211,2.1211,2.1211,2.1211,2.1211,2.1211,2.1211,2.1211,2.1211,2.1211,2.1211,2.1211,2.1296,2.1247,2.1451,2.1811,2.2025,2.1624,2.1204,2.0482,1.9717,1.9636,1.9762,1.9879,1.9879,2.0034,2.038,2.0936,2.1633,2.2383,2.3285,2.4236,2.4648,2.4716,2.4214,2.3809,2.3908,2.3958,2.38,2.3949,2.4097,2.455,2.5255,2.5567,2.5684,2.5771,2.5868,2.0358,2.0735,2.1072,2.1211,2.1211,2.1211,2.1211,2.1211,2.1211,2.1211,2.1211,2.1211,2.1211,2.1211,2.1211,2.1211,2.1211,2.1211,2.1211,2.1211,2.1211,2.1211,2.1211,2.1211,2.1211,2.1211,2.1211,2.1211,2.1211,2.1211,2.1211,2.1211,2.1211,2.1211,2.1211,2.1211,2.1211,2.1211,2.1211,2.1211,2.1211,2.1211,2.1211,2.1211,2.1211,2.1211,2.1211,2.1211,2.1211,2.1211,2.1211,2.1211,2.1211,2.1211,2.1211,2.1211,2.1211,2.1211,2.1211,2.1211,2.1211,2.1211,2.1211,2.1211,2.1211,2.1211,2.1211,2.1211,2.1211,2.1211,2.1211,2.1211,2.1211,2.1211,2.1211,2.1211,2.1211,2.1211,2.1211,2.1261,2.1489,2.1684,2.2414,2.2855,2.346,2.3195,2.274,2.2144,2.1354,2.0454,2.0607,2.0936,2.0936,2.0936,2.1387,2.1937,2.2433,2.3085,2.3939,2.4796,2.5216,2.5577,2.5167,2.5011,2.5421,2.5421,2.5109,2.4952,2.4894,2.545,2.5907,2.5965,2.6024,2.5917,2.5965,2.0241,2.0435,2.0976,2.1211,2.1211,2.1211,2.1211,2.1211,2.1211,2.1211,2.1211,2.1211,2.1211,2.1211,2.1211,2.1211,2.1211,2.1211,2.1211,2.1211,2.1211,2.1211,2.1211,2.1211,2.1211,2.1211,2.1211,2.1211,2.1211,2.1211,2.1211,2.1211,2.1211,2.1211,2.1211,2.1211,2.1211,2.1211,2.1211,2.1211,2.1211,2.1211,2.1211,2.1211,2.1211,2.1211,2.1211,2.1211,2.1211,2.1211,2.1211,2.1211,2.1211,2.1211,2.1211,2.1211,2.1211,2.1211,2.1211,2.1211,2.1211,2.1211,2.1211,2.1211,2.1211,2.1211,2.1211,2.1211,2.1211,2.1211,2.1211,2.1211,2.1211,2.1211,2.1211,2.1211,2.1211,2.1211,2.1268,2.1653,2.1816,2.2587,2.3327,2.451,2.5007,2.4743,2.4391,2.3876,2.2938,2.2048,2.1715,2.2037,2.2038,2.2038,2.2391,2.2944,2.3335,2.384,2.4639,2.5294,2.5703,2.5917,2.5965,2.5965,2.5965,2.611,2.6207,2.5945,2.5645,2.5897,2.6352,2.6304,2.6304,2.6207,2.6255,2.0128,2.0241,2.0794,2.1086,2.1203,2.1211,2.1211,2.1211,2.1211,2.1211,2.1211,2.1211,2.1211,2.1211,2.1211,2.1211,2.1211,2.1211,2.1211,2.1211,2.1211,2.1211,2.1211,2.1211,2.1211,2.1211,2.1211,2.1211,2.1211,2.1211,2.1211,2.1211,2.1211,2.1211,2.1211,2.1211,2.1211,2.1211,2.1211,2.1211,2.1211,2.1211,2.1211,2.1211,2.1211,2.1211,2.1211,2.1211,2.1211,2.1211,2.1211,2.1211,2.1211,2.1211,2.1211,2.1211,2.1211,2.1211,2.1211,2.1211,2.1211,2.1211,2.1211,2.1211,2.1211,2.1211,2.1211,2.1211,2.1211,2.1211,2.1211,2.1211,2.1211,2.1211,2.1211,2.1211,2.1211,2.1211,2.1546,2.1987,2.2652,2.348,2.4522,2.5799,2.6653,2.6576,2.6463,2.6197,2.4965,2.3471,2.3229,2.3421,2.3243,2.3135,2.3543,2.3899,2.4196,2.4599,2.5138,2.5742,2.6149,2.6255,2.6255,2.6255,2.6245,2.64,2.6496,2.6496,2.6352,2.6554,2.6699,2.6688,2.664,2.6506,2.6602,1.9952,2.0219,2.0555,2.0969,2.1189,2.1211,2.1211,2.1211,2.1211,2.1211,2.1211,2.1211,2.1211,2.1211,2.1211,2.1211,2.1211,2.1211,2.1211,2.1211,2.1211,2.1211,2.1211,2.1211,2.1211,2.1211,2.1211,2.1211,2.1211,2.1211,2.1211,2.1211,2.1211,2.1211,2.1211,2.1211,2.1211,2.1211,2.1211,2.1211,2.1211,2.1211,2.1211,2.1211,2.1211,2.1211,2.1211,2.1211,2.1211,2.1211,2.1211,2.1211,2.1211,2.1211,2.1211,2.1211,2.1211,2.1211,2.1211,2.1211,2.1211,2.1211,2.1211,2.1211,2.1211,2.1211,2.1211,2.1211,2.1211,2.1211,2.1211,2.1211,2.1211,2.1211,2.1211,2.1211,2.1211,2.1489,2.2101,2.2708,2.3704,2.4531,2.5415,2.669,2.7295,2.7805,2.7898,2.7733,2.6965,2.5231,2.4763,2.4808,2.4592,2.4411,2.4492,2.4796,2.506,2.5411,2.5849,2.6149,2.6448,2.6544,2.6544,2.6544,2.6544,2.6592,2.664,2.6688,2.6794,2.689,2.6986,2.7023,2.6976,2.6842,2.6842,1.9952,2.0234,2.0852,2.1145,2.1203,2.1211,2.1211,2.1211,2.1211,2.1211,2.1211,2.1211,2.1211,2.1211,2.1211,2.1211,2.1211,2.1211,2.1211,2.1211,2.1211,2.1211,2.1211,2.1211,2.1211,2.1211,2.1211,2.1211,2.1211,2.1211,2.1211,2.1211,2.1211,2.1211,2.1211,2.1211,2.1211,2.1211,2.1211,2.1211,2.1211,2.1211,2.1211,2.1211,2.1211,2.1211,2.1211,2.1211,2.1211,2.1211,2.1211,2.1211,2.1211,2.1211,2.1211,2.1211,2.1211,2.1211,2.1211,2.1211,2.1211,2.1211,2.1211,2.1211,2.1211,2.1211,2.1211,2.1211,2.1211,2.1211,2.1211,2.1211,2.1211,2.1211,2.1318,2.1318,2.1375,2.2044,2.2708,2.3704,2.4761,2.5643,2.6518,2.7241,2.7853,2.8121,2.8174,2.813,2.8119,2.7065,2.6285,2.6161,2.5946,2.5796,2.5761,2.5596,2.5761,2.6004,2.6352,2.6602,2.6805,2.6794,2.6784,2.6794,2.6805,2.6842,2.6928,2.7119,2.7177,2.7177,2.7177,2.7177,2.7214,2.7129,2.7177,1.9733,2.0098,2.072,2.1079,2.1196,2.1211,2.1211,2.1211,2.1211,2.1211,2.1211,2.1211,2.1211,2.1211,2.1211,2.1211,2.1211,2.1211,2.1211,2.1211,2.1211,2.1211,2.1211,2.1211,2.1211,2.1211,2.1211,2.1211,2.1211,2.1211,2.1211,2.1211,2.1211,2.1211,2.1211,2.1211,2.1211,2.1211,2.1211,2.1211,2.1211,2.1211,2.1211,2.1211,2.1211,2.1211,2.1211,2.1211,2.1211,2.1211,2.1211,2.1211,2.1211,2.1211,2.1211,2.1211,2.1211,2.1211,2.1211,2.1211,2.1211,2.1211,2.1211,2.1211,2.1211,2.1211,2.1211,2.1211,2.1211,2.1211,2.1211,2.1211,2.1211,2.1211,2.193,2.2425,2.2805,2.3463,2.4245,2.5139,2.5972,2.6626,2.7447,2.8111,2.8558,2.8461,2.8461,2.8504,2.8512,2.8486,2.788,2.7406,2.709,2.6794,2.6556,2.6396,2.6304,2.6602,2.6842,2.6938,2.6986,2.7034,2.7071,2.7034,2.7092,2.7129,2.7214,2.732,2.732,2.7272,2.7272,2.732,2.732,2.732,2.732,1.9506,1.9894,2.0479,2.0911,2.1189,2.1211,2.1211,2.1211,2.1211,2.1211,2.1211,2.1211,2.1211,2.1211,2.1211,2.1211,2.1211,2.1211,2.1211,2.1211,2.1211,2.1211,2.1211,2.1211,2.1211,2.1211,2.1211,2.1211,2.1211,2.1211,2.1211,2.1211,2.1211,2.1211,2.1211,2.1211,2.1211,2.1211,2.1211,2.1211,2.1211,2.1211,2.1211,2.1211,2.1211,2.1211,2.1211,2.1211,2.1211,2.1211,2.1211,2.1211,2.1211,2.1211,2.1211,2.1211,2.1211,2.1211,2.1211,2.1211,2.1211,2.1211,2.1211,2.1261,2.1318,2.1318,2.1318,2.1482,2.1482,2.1318,2.1318,2.1539,2.1539,2.1759,2.27,2.3472,2.4125,2.4782,2.5626,2.6463,2.707,2.7663,2.8208,2.892,2.893,2.8834,2.8781,2.8781,2.8804,2.886,2.857,2.8213,2.7984,2.7663,2.7319,2.6946,2.6691,2.6832,2.7023,2.7119,2.7214,2.7167,2.7214,2.7272,2.7272,2.7262,2.7262,2.732,2.732,2.732,2.732,2.732,2.732,2.732,2.732,1.9623,2.0179,2.0567,2.0903,2.1174,2.1203,2.1211,2.1211,2.1211,2.1211,2.1211,2.1211,2.1211,2.1211,2.1211,2.1211,2.1211,2.1211,2.1211,2.1211,2.1211,2.1211,2.1211,2.1211,2.1211,2.1211,2.1211,2.1211,2.1211,2.1211,2.1211,2.1211,2.1211,2.1211,2.1211,2.1211,2.1211,2.1211,2.1211,2.1211,2.1211,2.1211,2.1211,2.1211,2.1211,2.1211,2.1211,2.1211,2.1211,2.1211,2.1211,2.1211,2.1211,2.1211,2.1211,2.1211,2.1211,2.1211,2.1211,2.1211,2.1211,2.1531,2.1588,2.1645,2.1702,2.1759,2.2036,2.2587,2.2418,2.1816,2.1816,2.2482,2.27,2.3143,2.3799,2.4403,2.5003,2.5726,2.6509,2.7232,2.7833,2.8315,2.8804,2.9132,2.9132,2.9036,2.9036,2.9079,2.9248,2.9227,2.9154,2.8988,2.8726,2.8207,2.7657,2.724,2.7002,2.7123,2.7214,2.7214,2.7262,2.7272,2.732,2.732,2.732,2.732,2.732,2.732,2.732,2.732,2.732,2.732,2.732,2.732,2.732]}]]